<?xml version="1.0" encoding="UTF-8" standalone="no" ?>
<gpx xmlns="http://www.topografix.com/GPX/1/1" xmlns:xsi="http://www.w3.org/2001/XMLSchema-instance" xsi:schemaLocation="http://www.topografix.com/GPX/1/1 http://www.topografix.com/GPX/1/1/gpx.xsd" version="1.1" creator="VisuGPX - https://www.visugpx.com">
  <metadata>
    <name>Les saisies bikepark </name>
    <desc><![CDATA[Trace AlpineQuest 20/08/2022 10:02:08]]></desc>
  </metadata>
  <trk>
    <name><![CDATA[Les saisies bikepark _1]]></name>
    <trkseg>
      <trkpt lat="45.75551" lon="6.53379">
        <ele>1618.328</ele>
        <time>2022-08-20T08:02:08Z</time>
      </trkpt>
      <trkpt lat="45.7555" lon="6.5338">
        <ele>1618.208</ele>
        <time>2022-08-20T08:02:18Z</time>
      </trkpt>
      <trkpt lat="45.75538" lon="6.53373">
        <ele>1617.059</ele>
        <time>2022-08-20T08:02:28Z</time>
      </trkpt>
      <trkpt lat="45.75521" lon="6.53344">
        <ele>1617.722</ele>
        <time>2022-08-20T08:02:38Z</time>
      </trkpt>
      <trkpt lat="45.75519" lon="6.53344">
        <ele>1619.316</ele>
        <time>2022-08-20T08:02:47Z</time>
      </trkpt>
      <trkpt lat="45.75519" lon="6.53338">
        <ele>1618.188</ele>
        <time>2022-08-20T08:02:57Z</time>
      </trkpt>
      <trkpt lat="45.75516" lon="6.53329">
        <ele>1618.027</ele>
        <time>2022-08-20T08:03:07Z</time>
      </trkpt>
      <trkpt lat="45.75515" lon="6.53328">
        <ele>1616.762</ele>
        <time>2022-08-20T08:03:16Z</time>
      </trkpt>
      <trkpt lat="45.75513" lon="6.53324">
        <ele>1615.993</ele>
        <time>2022-08-20T08:03:26Z</time>
      </trkpt>
      <trkpt lat="45.75512" lon="6.53317">
        <ele>1617</ele>
        <time>2022-08-20T08:03:35Z</time>
      </trkpt>
      <trkpt lat="45.75513" lon="6.53317">
        <ele>1615.589</ele>
        <time>2022-08-20T08:03:45Z</time>
      </trkpt>
      <trkpt lat="45.75507" lon="6.53298">
        <ele>1616.672</ele>
        <time>2022-08-20T08:03:54Z</time>
      </trkpt>
      <trkpt lat="45.75497" lon="6.53263">
        <ele>1622.056</ele>
        <time>2022-08-20T08:04:03Z</time>
      </trkpt>
      <trkpt lat="45.75487" lon="6.53226">
        <ele>1627.015</ele>
        <time>2022-08-20T08:04:12Z</time>
      </trkpt>
      <trkpt lat="45.75475" lon="6.53185">
        <ele>1631.171</ele>
        <time>2022-08-20T08:04:22Z</time>
      </trkpt>
      <trkpt lat="45.75462" lon="6.53145">
        <ele>1636.76</ele>
        <time>2022-08-20T08:04:32Z</time>
      </trkpt>
      <trkpt lat="45.75451" lon="6.53108">
        <ele>1641.841</ele>
        <time>2022-08-20T08:04:41Z</time>
      </trkpt>
      <trkpt lat="45.75439" lon="6.53067">
        <ele>1646.466</ele>
        <time>2022-08-20T08:04:51Z</time>
      </trkpt>
      <trkpt lat="45.75428" lon="6.53031">
        <ele>1646.31</ele>
        <time>2022-08-20T08:05:00Z</time>
      </trkpt>
      <trkpt lat="45.75416" lon="6.52989">
        <ele>1649.155</ele>
        <time>2022-08-20T08:05:10Z</time>
      </trkpt>
      <trkpt lat="45.75405" lon="6.52952">
        <ele>1651.294</ele>
        <time>2022-08-20T08:05:19Z</time>
      </trkpt>
      <trkpt lat="45.75393" lon="6.52914">
        <ele>1653.684</ele>
        <time>2022-08-20T08:05:28Z</time>
      </trkpt>
      <trkpt lat="45.75381" lon="6.52874">
        <ele>1657.368</ele>
        <time>2022-08-20T08:05:38Z</time>
      </trkpt>
      <trkpt lat="45.7537" lon="6.52832">
        <ele>1660.097</ele>
        <time>2022-08-20T08:05:48Z</time>
      </trkpt>
      <trkpt lat="45.7536" lon="6.52795">
        <ele>1664.292</ele>
        <time>2022-08-20T08:05:57Z</time>
      </trkpt>
      <trkpt lat="45.7535" lon="6.52755">
        <ele>1668.81</ele>
        <time>2022-08-20T08:06:07Z</time>
      </trkpt>
      <trkpt lat="45.7534" lon="6.52718">
        <ele>1674.625</ele>
        <time>2022-08-20T08:06:16Z</time>
      </trkpt>
      <trkpt lat="45.75329" lon="6.52678">
        <ele>1681.564</ele>
        <time>2022-08-20T08:06:26Z</time>
      </trkpt>
      <trkpt lat="45.75319" lon="6.52641">
        <ele>1689.554</ele>
        <time>2022-08-20T08:06:35Z</time>
      </trkpt>
      <trkpt lat="45.75305" lon="6.52601">
        <ele>1698.651</ele>
        <time>2022-08-20T08:06:45Z</time>
      </trkpt>
      <trkpt lat="45.75293" lon="6.52565">
        <ele>1706.226</ele>
        <time>2022-08-20T08:06:54Z</time>
      </trkpt>
      <trkpt lat="45.75282" lon="6.52529">
        <ele>1713.808</ele>
        <time>2022-08-20T08:07:03Z</time>
      </trkpt>
      <trkpt lat="45.75268" lon="6.52487">
        <ele>1717.203</ele>
        <time>2022-08-20T08:07:13Z</time>
      </trkpt>
      <trkpt lat="45.75256" lon="6.52451">
        <ele>1721.095</ele>
        <time>2022-08-20T08:07:22Z</time>
      </trkpt>
      <trkpt lat="45.75244" lon="6.52411">
        <ele>1725.6</ele>
        <time>2022-08-20T08:07:32Z</time>
      </trkpt>
      <trkpt lat="45.75233" lon="6.52375">
        <ele>1730.859</ele>
        <time>2022-08-20T08:07:41Z</time>
      </trkpt>
      <trkpt lat="45.7522" lon="6.52334">
        <ele>1735.444</ele>
        <time>2022-08-20T08:07:51Z</time>
      </trkpt>
      <trkpt lat="45.75209" lon="6.52297">
        <ele>1741.348</ele>
        <time>2022-08-20T08:08:00Z</time>
      </trkpt>
      <trkpt lat="45.75198" lon="6.5226">
        <ele>1747.23</ele>
        <time>2022-08-20T08:08:09Z</time>
      </trkpt>
      <trkpt lat="45.75186" lon="6.5222">
        <ele>1753.617</ele>
        <time>2022-08-20T08:08:19Z</time>
      </trkpt>
      <trkpt lat="45.75174" lon="6.52178">
        <ele>1759.965</ele>
        <time>2022-08-20T08:08:29Z</time>
      </trkpt>
      <trkpt lat="45.75164" lon="6.52142">
        <ele>1767.477</ele>
        <time>2022-08-20T08:08:38Z</time>
      </trkpt>
      <trkpt lat="45.75151" lon="6.52103">
        <ele>1775.543</ele>
        <time>2022-08-20T08:08:48Z</time>
      </trkpt>
      <trkpt lat="45.75141" lon="6.52067">
        <ele>1783.868</ele>
        <time>2022-08-20T08:08:57Z</time>
      </trkpt>
      <trkpt lat="45.7513" lon="6.52027">
        <ele>1793.078</ele>
        <time>2022-08-20T08:09:07Z</time>
      </trkpt>
      <trkpt lat="45.75117" lon="6.51985">
        <ele>1797.791</ele>
        <time>2022-08-20T08:09:17Z</time>
      </trkpt>
      <trkpt lat="45.75106" lon="6.51948">
        <ele>1801.894</ele>
        <time>2022-08-20T08:09:26Z</time>
      </trkpt>
      <trkpt lat="45.75094" lon="6.51907">
        <ele>1807.309</ele>
        <time>2022-08-20T08:09:36Z</time>
      </trkpt>
      <trkpt lat="45.75082" lon="6.51867">
        <ele>1813.563</ele>
        <time>2022-08-20T08:09:46Z</time>
      </trkpt>
      <trkpt lat="45.7507" lon="6.51825">
        <ele>1819.657</ele>
        <time>2022-08-20T08:09:56Z</time>
      </trkpt>
      <trkpt lat="45.7506" lon="6.51788">
        <ele>1823.229</ele>
        <time>2022-08-20T08:10:05Z</time>
      </trkpt>
      <trkpt lat="45.75047" lon="6.51747">
        <ele>1827.222</ele>
        <time>2022-08-20T08:10:15Z</time>
      </trkpt>
      <trkpt lat="45.75036" lon="6.5171">
        <ele>1831.361</ele>
        <time>2022-08-20T08:10:24Z</time>
      </trkpt>
      <trkpt lat="45.75026" lon="6.51673">
        <ele>1836.862</ele>
        <time>2022-08-20T08:10:33Z</time>
      </trkpt>
      <trkpt lat="45.75014" lon="6.51633">
        <ele>1843.306</ele>
        <time>2022-08-20T08:10:43Z</time>
      </trkpt>
      <trkpt lat="45.75001" lon="6.51592">
        <ele>1847.136</ele>
        <time>2022-08-20T08:10:53Z</time>
      </trkpt>
      <trkpt lat="45.74989" lon="6.51555">
        <ele>1852.257</ele>
        <time>2022-08-20T08:11:02Z</time>
      </trkpt>
      <trkpt lat="45.74976" lon="6.51514">
        <ele>1858.292</ele>
        <time>2022-08-20T08:11:12Z</time>
      </trkpt>
      <trkpt lat="45.74963" lon="6.51474">
        <ele>1863.428</ele>
        <time>2022-08-20T08:11:22Z</time>
      </trkpt>
      <trkpt lat="45.74951" lon="6.51433">
        <ele>1867.147</ele>
        <time>2022-08-20T08:11:32Z</time>
      </trkpt>
      <trkpt lat="45.74939" lon="6.51393">
        <ele>1869.398</ele>
        <time>2022-08-20T08:11:42Z</time>
      </trkpt>
      <trkpt lat="45.74927" lon="6.51352">
        <ele>1873.295</ele>
        <time>2022-08-20T08:11:52Z</time>
      </trkpt>
      <trkpt lat="45.74917" lon="6.51315">
        <ele>1876.883</ele>
        <time>2022-08-20T08:12:01Z</time>
      </trkpt>
      <trkpt lat="45.74905" lon="6.51274">
        <ele>1883.85</ele>
        <time>2022-08-20T08:12:11Z</time>
      </trkpt>
      <trkpt lat="45.74894" lon="6.51238">
        <ele>1889.578</ele>
        <time>2022-08-20T08:12:20Z</time>
      </trkpt>
      <trkpt lat="45.74883" lon="6.51201">
        <ele>1895.431</ele>
        <time>2022-08-20T08:12:29Z</time>
      </trkpt>
      <trkpt lat="45.74873" lon="6.51164">
        <ele>1900.034</ele>
        <time>2022-08-20T08:12:38Z</time>
      </trkpt>
      <trkpt lat="45.74861" lon="6.51124">
        <ele>1906.205</ele>
        <time>2022-08-20T08:12:48Z</time>
      </trkpt>
      <trkpt lat="45.7485" lon="6.51086">
        <ele>1911.791</ele>
        <time>2022-08-20T08:12:57Z</time>
      </trkpt>
      <trkpt lat="45.74838" lon="6.51046">
        <ele>1919.127</ele>
        <time>2022-08-20T08:13:07Z</time>
      </trkpt>
      <trkpt lat="45.74827" lon="6.51006">
        <ele>1926.02</ele>
        <time>2022-08-20T08:13:17Z</time>
      </trkpt>
      <trkpt lat="45.74814" lon="6.50965">
        <ele>1933.441</ele>
        <time>2022-08-20T08:13:27Z</time>
      </trkpt>
      <trkpt lat="45.74802" lon="6.50929">
        <ele>1938.081</ele>
        <time>2022-08-20T08:13:36Z</time>
      </trkpt>
      <trkpt lat="45.74791" lon="6.50892">
        <ele>1942.456</ele>
        <time>2022-08-20T08:13:45Z</time>
      </trkpt>
      <trkpt lat="45.7478" lon="6.5085">
        <ele>1945.66</ele>
        <time>2022-08-20T08:13:55Z</time>
      </trkpt>
      <trkpt lat="45.7477" lon="6.5082">
        <ele>1945.529</ele>
        <time>2022-08-20T08:14:04Z</time>
      </trkpt>
      <trkpt lat="45.74765" lon="6.50814">
        <ele>1946.707</ele>
        <time>2022-08-20T08:14:14Z</time>
      </trkpt>
      <trkpt lat="45.74756" lon="6.50785">
        <ele>1942.354</ele>
        <time>2022-08-20T08:14:23Z</time>
      </trkpt>
      <trkpt lat="45.74756" lon="6.50784">
        <ele>1942.634</ele>
        <time>2022-08-20T08:14:33Z</time>
      </trkpt>
      <trkpt lat="45.74756" lon="6.50784">
        <ele>1943.561</ele>
        <time>2022-08-20T08:14:43Z</time>
      </trkpt>
      <trkpt lat="45.74756" lon="6.50784">
        <ele>1943.077</ele>
        <time>2022-08-20T08:14:53Z</time>
      </trkpt>
      <trkpt lat="45.74756" lon="6.50783">
        <ele>1942.27</ele>
        <time>2022-08-20T08:15:02Z</time>
      </trkpt>
      <trkpt lat="45.74755" lon="6.50783">
        <ele>1941.97</ele>
        <time>2022-08-20T08:15:12Z</time>
      </trkpt>
      <trkpt lat="45.74752" lon="6.50778">
        <ele>1942.507</ele>
        <time>2022-08-20T08:15:21Z</time>
      </trkpt>
      <trkpt lat="45.74753" lon="6.50778">
        <ele>1943.143</ele>
        <time>2022-08-20T08:15:31Z</time>
      </trkpt>
      <trkpt lat="45.74754" lon="6.50777">
        <ele>1943.618</ele>
        <time>2022-08-20T08:15:41Z</time>
      </trkpt>
      <trkpt lat="45.74753" lon="6.50777">
        <ele>1944.62</ele>
        <time>2022-08-20T08:15:50Z</time>
      </trkpt>
      <trkpt lat="45.74753" lon="6.50778">
        <ele>1943.491</ele>
        <time>2022-08-20T08:16:00Z</time>
      </trkpt>
      <trkpt lat="45.74754" lon="6.50778">
        <ele>1941.96</ele>
        <time>2022-08-20T08:16:09Z</time>
      </trkpt>
      <trkpt lat="45.74754" lon="6.50778">
        <ele>1941.712</ele>
        <time>2022-08-20T08:16:19Z</time>
      </trkpt>
      <trkpt lat="45.74754" lon="6.50779">
        <ele>1942.246</ele>
        <time>2022-08-20T08:16:28Z</time>
      </trkpt>
      <trkpt lat="45.74753" lon="6.50779">
        <ele>1941.763</ele>
        <time>2022-08-20T08:16:38Z</time>
      </trkpt>
      <trkpt lat="45.74753" lon="6.50779">
        <ele>1941.77</ele>
        <time>2022-08-20T08:16:47Z</time>
      </trkpt>
      <trkpt lat="45.74753" lon="6.50779">
        <ele>1941.767</ele>
        <time>2022-08-20T08:16:57Z</time>
      </trkpt>
      <trkpt lat="45.74754" lon="6.5078">
        <ele>1942.276</ele>
        <time>2022-08-20T08:17:07Z</time>
      </trkpt>
      <trkpt lat="45.74756" lon="6.50778">
        <ele>1943.273</ele>
        <time>2022-08-20T08:17:17Z</time>
      </trkpt>
      <trkpt lat="45.74749" lon="6.50736">
        <ele>1942.401</ele>
        <time>2022-08-20T08:17:26Z</time>
      </trkpt>
      <trkpt lat="45.7473" lon="6.50688">
        <ele>1939.793</ele>
        <time>2022-08-20T08:17:36Z</time>
      </trkpt>
      <trkpt lat="45.7475" lon="6.50682">
        <ele>1932.916</ele>
        <time>2022-08-20T08:17:45Z</time>
      </trkpt>
      <trkpt lat="45.74789" lon="6.50743">
        <ele>1933.567</ele>
        <time>2022-08-20T08:17:54Z</time>
      </trkpt>
      <trkpt lat="45.74807" lon="6.50834">
        <ele>1924.478</ele>
        <time>2022-08-20T08:18:03Z</time>
      </trkpt>
      <trkpt lat="45.7482" lon="6.50933">
        <ele>1918.233</ele>
        <time>2022-08-20T08:18:13Z</time>
      </trkpt>
      <trkpt lat="45.74821" lon="6.50973">
        <ele>1917.88</ele>
        <time>2022-08-20T08:18:22Z</time>
      </trkpt>
      <trkpt lat="45.74811" lon="6.51002">
        <ele>1915.421</ele>
        <time>2022-08-20T08:18:31Z</time>
      </trkpt>
      <trkpt lat="45.74856" lon="6.50996">
        <ele>1911.45</ele>
        <time>2022-08-20T08:18:40Z</time>
      </trkpt>
      <trkpt lat="45.74825" lon="6.51048">
        <ele>1906.463</ele>
        <time>2022-08-20T08:18:49Z</time>
      </trkpt>
      <trkpt lat="45.74808" lon="6.51092">
        <ele>1903.517</ele>
        <time>2022-08-20T08:18:59Z</time>
      </trkpt>
      <trkpt lat="45.74869" lon="6.51066">
        <ele>1899.214</ele>
        <time>2022-08-20T08:19:09Z</time>
      </trkpt>
      <trkpt lat="45.74877" lon="6.51134">
        <ele>1891.849</ele>
        <time>2022-08-20T08:19:19Z</time>
      </trkpt>
      <trkpt lat="45.74839" lon="6.51186">
        <ele>1884.259</ele>
        <time>2022-08-20T08:19:28Z</time>
      </trkpt>
      <trkpt lat="45.74785" lon="6.51183">
        <ele>1882.331</ele>
        <time>2022-08-20T08:19:37Z</time>
      </trkpt>
      <trkpt lat="45.74801" lon="6.51233">
        <ele>1877.445</ele>
        <time>2022-08-20T08:19:47Z</time>
      </trkpt>
      <trkpt lat="45.74781" lon="6.51264">
        <ele>1867.645</ele>
        <time>2022-08-20T08:19:57Z</time>
      </trkpt>
      <trkpt lat="45.74799" lon="6.51344">
        <ele>1863.487</ele>
        <time>2022-08-20T08:20:06Z</time>
      </trkpt>
      <trkpt lat="45.74812" lon="6.51443">
        <ele>1858.258</ele>
        <time>2022-08-20T08:20:16Z</time>
      </trkpt>
      <trkpt lat="45.74827" lon="6.51538">
        <ele>1852.301</ele>
        <time>2022-08-20T08:20:26Z</time>
      </trkpt>
      <trkpt lat="45.74834" lon="6.51631">
        <ele>1841.901</ele>
        <time>2022-08-20T08:20:36Z</time>
      </trkpt>
      <trkpt lat="45.74823" lon="6.51632">
        <ele>1841.577</ele>
        <time>2022-08-20T08:20:45Z</time>
      </trkpt>
      <trkpt lat="45.74833" lon="6.51725">
        <ele>1834.581</ele>
        <time>2022-08-20T08:20:55Z</time>
      </trkpt>
      <trkpt lat="45.74862" lon="6.51792">
        <ele>1824.676</ele>
        <time>2022-08-20T08:21:05Z</time>
      </trkpt>
      <trkpt lat="45.74814" lon="6.5174">
        <ele>1820.134</ele>
        <time>2022-08-20T08:21:14Z</time>
      </trkpt>
      <trkpt lat="45.74825" lon="6.51826">
        <ele>1810.955</ele>
        <time>2022-08-20T08:21:24Z</time>
      </trkpt>
      <trkpt lat="45.74836" lon="6.51887">
        <ele>1812.352</ele>
        <time>2022-08-20T08:21:33Z</time>
      </trkpt>
      <trkpt lat="45.74833" lon="6.51883">
        <ele>1811.542</ele>
        <time>2022-08-20T08:21:43Z</time>
      </trkpt>
      <trkpt lat="45.74831" lon="6.51881">
        <ele>1811.108</ele>
        <time>2022-08-20T08:21:52Z</time>
      </trkpt>
      <trkpt lat="45.74831" lon="6.51882">
        <ele>1811.397</ele>
        <time>2022-08-20T08:22:01Z</time>
      </trkpt>
      <trkpt lat="45.74831" lon="6.51881">
        <ele>1811.408</ele>
        <time>2022-08-20T08:22:11Z</time>
      </trkpt>
      <trkpt lat="45.74831" lon="6.51881">
        <ele>1811.408</ele>
        <time>2022-08-20T08:22:20Z</time>
      </trkpt>
      <trkpt lat="45.74834" lon="6.51887">
        <ele>1811.148</ele>
        <time>2022-08-20T08:22:30Z</time>
      </trkpt>
      <trkpt lat="45.74835" lon="6.51888">
        <ele>1811.531</ele>
        <time>2022-08-20T08:22:40Z</time>
      </trkpt>
      <trkpt lat="45.74834" lon="6.51888">
        <ele>1811.384</ele>
        <time>2022-08-20T08:22:49Z</time>
      </trkpt>
      <trkpt lat="45.74834" lon="6.51888">
        <ele>1811.417</ele>
        <time>2022-08-20T08:22:59Z</time>
      </trkpt>
      <trkpt lat="45.74835" lon="6.51889">
        <ele>1811.586</ele>
        <time>2022-08-20T08:23:08Z</time>
      </trkpt>
      <trkpt lat="45.74835" lon="6.51889">
        <ele>1810.375</ele>
        <time>2022-08-20T08:23:18Z</time>
      </trkpt>
      <trkpt lat="45.74835" lon="6.51889">
        <ele>1811.609</ele>
        <time>2022-08-20T08:23:27Z</time>
      </trkpt>
      <trkpt lat="45.74835" lon="6.51889">
        <ele>1812.236</ele>
        <time>2022-08-20T08:23:36Z</time>
      </trkpt>
      <trkpt lat="45.74835" lon="6.51888">
        <ele>1811.694</ele>
        <time>2022-08-20T08:23:46Z</time>
      </trkpt>
      <trkpt lat="45.74833" lon="6.51888">
        <ele>1811.214</ele>
        <time>2022-08-20T08:23:55Z</time>
      </trkpt>
      <trkpt lat="45.74832" lon="6.51888">
        <ele>1811.429</ele>
        <time>2022-08-20T08:24:04Z</time>
      </trkpt>
      <trkpt lat="45.74832" lon="6.51888">
        <ele>1810.84</ele>
        <time>2022-08-20T08:24:13Z</time>
      </trkpt>
      <trkpt lat="45.74832" lon="6.51887">
        <ele>1810.544</ele>
        <time>2022-08-20T08:24:23Z</time>
      </trkpt>
      <trkpt lat="45.74833" lon="6.51884">
        <ele>1811.907</ele>
        <time>2022-08-20T08:24:32Z</time>
      </trkpt>
      <trkpt lat="45.74834" lon="6.51884">
        <ele>1810.389</ele>
        <time>2022-08-20T08:24:41Z</time>
      </trkpt>
      <trkpt lat="45.74834" lon="6.51885">
        <ele>1809.359</ele>
        <time>2022-08-20T08:24:51Z</time>
      </trkpt>
      <trkpt lat="45.74841" lon="6.51924">
        <ele>1806.969</ele>
        <time>2022-08-20T08:25:00Z</time>
      </trkpt>
      <trkpt lat="45.74814" lon="6.51885">
        <ele>1803.266</ele>
        <time>2022-08-20T08:25:09Z</time>
      </trkpt>
      <trkpt lat="45.74805" lon="6.51944">
        <ele>1797.207</ele>
        <time>2022-08-20T08:25:19Z</time>
      </trkpt>
      <trkpt lat="45.74802" lon="6.52016">
        <ele>1792.276</ele>
        <time>2022-08-20T08:25:28Z</time>
      </trkpt>
      <trkpt lat="45.74791" lon="6.52092">
        <ele>1787.871</ele>
        <time>2022-08-20T08:25:38Z</time>
      </trkpt>
      <trkpt lat="45.74787" lon="6.52163">
        <ele>1784.583</ele>
        <time>2022-08-20T08:25:47Z</time>
      </trkpt>
      <trkpt lat="45.74775" lon="6.52215">
        <ele>1774.139</ele>
        <time>2022-08-20T08:25:56Z</time>
      </trkpt>
      <trkpt lat="45.7475" lon="6.52304">
        <ele>1768.378</ele>
        <time>2022-08-20T08:26:06Z</time>
      </trkpt>
      <trkpt lat="45.74733" lon="6.52369">
        <ele>1766.901</ele>
        <time>2022-08-20T08:26:15Z</time>
      </trkpt>
      <trkpt lat="45.74706" lon="6.52434">
        <ele>1760.013</ele>
        <time>2022-08-20T08:26:24Z</time>
      </trkpt>
      <trkpt lat="45.74695" lon="6.52503">
        <ele>1758.113</ele>
        <time>2022-08-20T08:26:33Z</time>
      </trkpt>
      <trkpt lat="45.74693" lon="6.52605">
        <ele>1746.176</ele>
        <time>2022-08-20T08:26:43Z</time>
      </trkpt>
      <trkpt lat="45.74688" lon="6.52688">
        <ele>1742.091</ele>
        <time>2022-08-20T08:26:52Z</time>
      </trkpt>
      <trkpt lat="45.74667" lon="6.52751">
        <ele>1737.125</ele>
        <time>2022-08-20T08:27:02Z</time>
      </trkpt>
      <trkpt lat="45.74682" lon="6.52784">
        <ele>1732.693</ele>
        <time>2022-08-20T08:27:11Z</time>
      </trkpt>
      <trkpt lat="45.74682" lon="6.52783">
        <ele>1732.63</ele>
        <time>2022-08-20T08:27:20Z</time>
      </trkpt>
      <trkpt lat="45.74682" lon="6.52782">
        <ele>1732.402</ele>
        <time>2022-08-20T08:27:30Z</time>
      </trkpt>
      <trkpt lat="45.74682" lon="6.52782">
        <ele>1732.404</ele>
        <time>2022-08-20T08:27:39Z</time>
      </trkpt>
      <trkpt lat="45.74682" lon="6.52783">
        <ele>1732.408</ele>
        <time>2022-08-20T08:27:48Z</time>
      </trkpt>
      <trkpt lat="45.74682" lon="6.52783">
        <ele>1732.421</ele>
        <time>2022-08-20T08:27:57Z</time>
      </trkpt>
      <trkpt lat="45.74678" lon="6.52825">
        <ele>1731.767</ele>
        <time>2022-08-20T08:28:07Z</time>
      </trkpt>
      <trkpt lat="45.74683" lon="6.52889">
        <ele>1732.33</ele>
        <time>2022-08-20T08:28:16Z</time>
      </trkpt>
      <trkpt lat="45.74696" lon="6.52982">
        <ele>1731.706</ele>
        <time>2022-08-20T08:28:26Z</time>
      </trkpt>
      <trkpt lat="45.74717" lon="6.53041">
        <ele>1731.401</ele>
        <time>2022-08-20T08:28:35Z</time>
      </trkpt>
      <trkpt lat="45.74775" lon="6.53071">
        <ele>1727.99</ele>
        <time>2022-08-20T08:28:45Z</time>
      </trkpt>
      <trkpt lat="45.74801" lon="6.53039">
        <ele>1722.322</ele>
        <time>2022-08-20T08:28:55Z</time>
      </trkpt>
      <trkpt lat="45.7481" lon="6.53109">
        <ele>1714.739</ele>
        <time>2022-08-20T08:29:05Z</time>
      </trkpt>
      <trkpt lat="45.74808" lon="6.53167">
        <ele>1713.152</ele>
        <time>2022-08-20T08:29:15Z</time>
      </trkpt>
      <trkpt lat="45.74838" lon="6.53174">
        <ele>1707.312</ele>
        <time>2022-08-20T08:29:25Z</time>
      </trkpt>
      <trkpt lat="45.74839" lon="6.53215">
        <ele>1697.536</ele>
        <time>2022-08-20T08:29:34Z</time>
      </trkpt>
      <trkpt lat="45.74857" lon="6.5326">
        <ele>1692.196</ele>
        <time>2022-08-20T08:29:43Z</time>
      </trkpt>
      <trkpt lat="45.74892" lon="6.53277">
        <ele>1687.573</ele>
        <time>2022-08-20T08:29:53Z</time>
      </trkpt>
      <trkpt lat="45.74891" lon="6.53334">
        <ele>1682.601</ele>
        <time>2022-08-20T08:30:02Z</time>
      </trkpt>
      <trkpt lat="45.74924" lon="6.53338">
        <ele>1676.126</ele>
        <time>2022-08-20T08:30:11Z</time>
      </trkpt>
      <trkpt lat="45.74895" lon="6.53404">
        <ele>1673.342</ele>
        <time>2022-08-20T08:30:21Z</time>
      </trkpt>
      <trkpt lat="45.74862" lon="6.53468">
        <ele>1669</ele>
        <time>2022-08-20T08:30:31Z</time>
      </trkpt>
      <trkpt lat="45.74833" lon="6.53513">
        <ele>1664.608</ele>
        <time>2022-08-20T08:30:40Z</time>
      </trkpt>
      <trkpt lat="45.74834" lon="6.53559">
        <ele>1660.549</ele>
        <time>2022-08-20T08:30:50Z</time>
      </trkpt>
      <trkpt lat="45.74834" lon="6.53559">
        <ele>1661.296</ele>
        <time>2022-08-20T08:30:59Z</time>
      </trkpt>
      <trkpt lat="45.74834" lon="6.53559">
        <ele>1661.237</ele>
        <time>2022-08-20T08:31:09Z</time>
      </trkpt>
      <trkpt lat="45.74834" lon="6.53559">
        <ele>1661.234</ele>
        <time>2022-08-20T08:31:18Z</time>
      </trkpt>
      <trkpt lat="45.74834" lon="6.53559">
        <ele>1661.221</ele>
        <time>2022-08-20T08:31:27Z</time>
      </trkpt>
      <trkpt lat="45.7487" lon="6.53571">
        <ele>1658.357</ele>
        <time>2022-08-20T08:31:37Z</time>
      </trkpt>
      <trkpt lat="45.74925" lon="6.53551">
        <ele>1655.03</ele>
        <time>2022-08-20T08:31:46Z</time>
      </trkpt>
      <trkpt lat="45.74978" lon="6.53538">
        <ele>1648.699</ele>
        <time>2022-08-20T08:31:55Z</time>
      </trkpt>
      <trkpt lat="45.7502" lon="6.53581">
        <ele>1644.271</ele>
        <time>2022-08-20T08:32:05Z</time>
      </trkpt>
      <trkpt lat="45.75069" lon="6.5358">
        <ele>1639.913</ele>
        <time>2022-08-20T08:32:14Z</time>
      </trkpt>
      <trkpt lat="45.75118" lon="6.53583">
        <ele>1636.268</ele>
        <time>2022-08-20T08:32:24Z</time>
      </trkpt>
      <trkpt lat="45.75116" lon="6.53582">
        <ele>1636.143</ele>
        <time>2022-08-20T08:32:33Z</time>
      </trkpt>
      <trkpt lat="45.751" lon="6.53578">
        <ele>1636.388</ele>
        <time>2022-08-20T08:32:43Z</time>
      </trkpt>
      <trkpt lat="45.75087" lon="6.53576">
        <ele>1638.579</ele>
        <time>2022-08-20T08:32:53Z</time>
      </trkpt>
      <trkpt lat="45.7509" lon="6.53579">
        <ele>1638.239</ele>
        <time>2022-08-20T08:33:02Z</time>
      </trkpt>
      <trkpt lat="45.75135" lon="6.53569">
        <ele>1634.875</ele>
        <time>2022-08-20T08:33:12Z</time>
      </trkpt>
      <trkpt lat="45.7518" lon="6.53519">
        <ele>1630.326</ele>
        <time>2022-08-20T08:33:22Z</time>
      </trkpt>
      <trkpt lat="45.75211" lon="6.53503">
        <ele>1630.264</ele>
        <time>2022-08-20T08:33:31Z</time>
      </trkpt>
      <trkpt lat="45.75248" lon="6.53477">
        <ele>1629.564</ele>
        <time>2022-08-20T08:33:41Z</time>
      </trkpt>
      <trkpt lat="45.75298" lon="6.5345">
        <ele>1628.191</ele>
        <time>2022-08-20T08:33:50Z</time>
      </trkpt>
      <trkpt lat="45.75356" lon="6.53402">
        <ele>1624.94</ele>
        <time>2022-08-20T08:34:00Z</time>
      </trkpt>
      <trkpt lat="45.75383" lon="6.53409">
        <ele>1621.072</ele>
        <time>2022-08-20T08:34:10Z</time>
      </trkpt>
      <trkpt lat="45.75442" lon="6.53453">
        <ele>1612.638</ele>
        <time>2022-08-20T08:34:20Z</time>
      </trkpt>
      <trkpt lat="45.75461" lon="6.53437">
        <ele>1613.717</ele>
        <time>2022-08-20T08:34:29Z</time>
      </trkpt>
      <trkpt lat="45.75461" lon="6.53397">
        <ele>1613.795</ele>
        <time>2022-08-20T08:34:39Z</time>
      </trkpt>
      <trkpt lat="45.75462" lon="6.53365">
        <ele>1616.058</ele>
        <time>2022-08-20T08:34:49Z</time>
      </trkpt>
      <trkpt lat="45.75474" lon="6.53346">
        <ele>1616.77</ele>
        <time>2022-08-20T08:34:58Z</time>
      </trkpt>
      <trkpt lat="45.75499" lon="6.53348">
        <ele>1616.703</ele>
        <time>2022-08-20T08:35:07Z</time>
      </trkpt>
      <trkpt lat="45.75522" lon="6.53366">
        <ele>1617.35</ele>
        <time>2022-08-20T08:35:17Z</time>
      </trkpt>
      <trkpt lat="45.7555" lon="6.53379">
        <ele>1617.321</ele>
        <time>2022-08-20T08:35:26Z</time>
      </trkpt>
      <trkpt lat="45.75553" lon="6.5337">
        <ele>1616.947</ele>
        <time>2022-08-20T08:35:36Z</time>
      </trkpt>
      <trkpt lat="45.75553" lon="6.5337">
        <ele>1616.578</ele>
        <time>2022-08-20T08:35:45Z</time>
      </trkpt>
      <trkpt lat="45.75553" lon="6.5337">
        <ele>1616.579</ele>
        <time>2022-08-20T08:35:54Z</time>
      </trkpt>
      <trkpt lat="45.75552" lon="6.53372">
        <ele>1616.384</ele>
        <time>2022-08-20T08:36:04Z</time>
      </trkpt>
      <trkpt lat="45.75551" lon="6.53372">
        <ele>1616.028</ele>
        <time>2022-08-20T08:36:14Z</time>
      </trkpt>
      <trkpt lat="45.75551" lon="6.53372">
        <ele>1616.046</ele>
        <time>2022-08-20T08:36:24Z</time>
      </trkpt>
      <trkpt lat="45.75551" lon="6.53372">
        <ele>1615.921</ele>
        <time>2022-08-20T08:36:33Z</time>
      </trkpt>
      <trkpt lat="45.75551" lon="6.53372">
        <ele>1615.944</ele>
        <time>2022-08-20T08:36:42Z</time>
      </trkpt>
      <trkpt lat="45.7555" lon="6.53372">
        <ele>1616.812</ele>
        <time>2022-08-20T08:36:52Z</time>
      </trkpt>
      <trkpt lat="45.75551" lon="6.53376">
        <ele>1616.714</ele>
        <time>2022-08-20T08:37:02Z</time>
      </trkpt>
      <trkpt lat="45.7555" lon="6.53376">
        <ele>1616.686</ele>
        <time>2022-08-20T08:37:12Z</time>
      </trkpt>
      <trkpt lat="45.75548" lon="6.53375">
        <ele>1617.01</ele>
        <time>2022-08-20T08:37:21Z</time>
      </trkpt>
      <trkpt lat="45.7554" lon="6.53377">
        <ele>1618.133</ele>
        <time>2022-08-20T08:37:30Z</time>
      </trkpt>
      <trkpt lat="45.75536" lon="6.53371">
        <ele>1618.635</ele>
        <time>2022-08-20T08:37:39Z</time>
      </trkpt>
      <trkpt lat="45.75538" lon="6.53364">
        <ele>1616.489</ele>
        <time>2022-08-20T08:37:49Z</time>
      </trkpt>
      <trkpt lat="45.75541" lon="6.53362">
        <ele>1617.983</ele>
        <time>2022-08-20T08:37:58Z</time>
      </trkpt>
      <trkpt lat="45.75541" lon="6.53361">
        <ele>1617.477</ele>
        <time>2022-08-20T08:38:07Z</time>
      </trkpt>
      <trkpt lat="45.75541" lon="6.5336">
        <ele>1617.461</ele>
        <time>2022-08-20T08:38:17Z</time>
      </trkpt>
      <trkpt lat="45.75544" lon="6.53352">
        <ele>1618.712</ele>
        <time>2022-08-20T08:38:27Z</time>
      </trkpt>
      <trkpt lat="45.75548" lon="6.53354">
        <ele>1618.815</ele>
        <time>2022-08-20T08:38:36Z</time>
      </trkpt>
      <trkpt lat="45.7555" lon="6.53352">
        <ele>1618.43</ele>
        <time>2022-08-20T08:38:46Z</time>
      </trkpt>
      <trkpt lat="45.75567" lon="6.53369">
        <ele>1612.249</ele>
        <time>2022-08-20T08:38:56Z</time>
      </trkpt>
      <trkpt lat="45.7559" lon="6.5339">
        <ele>1620.585</ele>
        <time>2022-08-20T08:39:06Z</time>
      </trkpt>
      <trkpt lat="45.75611" lon="6.53411">
        <ele>1624.735</ele>
        <time>2022-08-20T08:39:15Z</time>
      </trkpt>
      <trkpt lat="45.75634" lon="6.53432">
        <ele>1628.39</ele>
        <time>2022-08-20T08:39:25Z</time>
      </trkpt>
      <trkpt lat="45.75654" lon="6.53451">
        <ele>1632.956</ele>
        <time>2022-08-20T08:39:34Z</time>
      </trkpt>
      <trkpt lat="45.75674" lon="6.53472">
        <ele>1634.292</ele>
        <time>2022-08-20T08:39:43Z</time>
      </trkpt>
      <trkpt lat="45.75695" lon="6.53493">
        <ele>1638.722</ele>
        <time>2022-08-20T08:39:52Z</time>
      </trkpt>
      <trkpt lat="45.75717" lon="6.53516">
        <ele>1642.822</ele>
        <time>2022-08-20T08:40:02Z</time>
      </trkpt>
      <trkpt lat="45.7574" lon="6.53537">
        <ele>1646.775</ele>
        <time>2022-08-20T08:40:12Z</time>
      </trkpt>
      <trkpt lat="45.7576" lon="6.53558">
        <ele>1651.69</ele>
        <time>2022-08-20T08:40:21Z</time>
      </trkpt>
      <trkpt lat="45.75783" lon="6.5358">
        <ele>1653.96</ele>
        <time>2022-08-20T08:40:31Z</time>
      </trkpt>
      <trkpt lat="45.75805" lon="6.53602">
        <ele>1656.943</ele>
        <time>2022-08-20T08:40:41Z</time>
      </trkpt>
      <trkpt lat="45.75827" lon="6.53625">
        <ele>1660.927</ele>
        <time>2022-08-20T08:40:51Z</time>
      </trkpt>
      <trkpt lat="45.7585" lon="6.53649">
        <ele>1664.212</ele>
        <time>2022-08-20T08:41:01Z</time>
      </trkpt>
      <trkpt lat="45.7587" lon="6.53669">
        <ele>1666.684</ele>
        <time>2022-08-20T08:41:10Z</time>
      </trkpt>
      <trkpt lat="45.7589" lon="6.53689">
        <ele>1669.494</ele>
        <time>2022-08-20T08:41:19Z</time>
      </trkpt>
      <trkpt lat="45.75914" lon="6.53711">
        <ele>1674.337</ele>
        <time>2022-08-20T08:41:29Z</time>
      </trkpt>
      <trkpt lat="45.75933" lon="6.53731">
        <ele>1679.881</ele>
        <time>2022-08-20T08:41:38Z</time>
      </trkpt>
      <trkpt lat="45.75953" lon="6.53751">
        <ele>1683.523</ele>
        <time>2022-08-20T08:41:47Z</time>
      </trkpt>
      <trkpt lat="45.75973" lon="6.53771">
        <ele>1687.725</ele>
        <time>2022-08-20T08:41:56Z</time>
      </trkpt>
      <trkpt lat="45.75996" lon="6.53794">
        <ele>1692.797</ele>
        <time>2022-08-20T08:42:06Z</time>
      </trkpt>
      <trkpt lat="45.76018" lon="6.53817">
        <ele>1699.78</ele>
        <time>2022-08-20T08:42:16Z</time>
      </trkpt>
      <trkpt lat="45.7604" lon="6.53838">
        <ele>1702.743</ele>
        <time>2022-08-20T08:42:26Z</time>
      </trkpt>
      <trkpt lat="45.76063" lon="6.53861">
        <ele>1709.1</ele>
        <time>2022-08-20T08:42:36Z</time>
      </trkpt>
      <trkpt lat="45.76085" lon="6.53883">
        <ele>1714.284</ele>
        <time>2022-08-20T08:42:46Z</time>
      </trkpt>
      <trkpt lat="45.76106" lon="6.53905">
        <ele>1720.012</ele>
        <time>2022-08-20T08:42:56Z</time>
      </trkpt>
      <trkpt lat="45.76128" lon="6.53928">
        <ele>1726.68</ele>
        <time>2022-08-20T08:43:06Z</time>
      </trkpt>
      <trkpt lat="45.7615" lon="6.53949">
        <ele>1727.611</ele>
        <time>2022-08-20T08:43:16Z</time>
      </trkpt>
      <trkpt lat="45.76171" lon="6.53969">
        <ele>1730.067</ele>
        <time>2022-08-20T08:43:25Z</time>
      </trkpt>
      <trkpt lat="45.76192" lon="6.53989">
        <ele>1731.891</ele>
        <time>2022-08-20T08:43:34Z</time>
      </trkpt>
      <trkpt lat="45.76215" lon="6.54009">
        <ele>1733.97</ele>
        <time>2022-08-20T08:43:44Z</time>
      </trkpt>
      <trkpt lat="45.76235" lon="6.5403">
        <ele>1735.632</ele>
        <time>2022-08-20T08:43:53Z</time>
      </trkpt>
      <trkpt lat="45.76257" lon="6.54053">
        <ele>1746.492</ele>
        <time>2022-08-20T08:44:03Z</time>
      </trkpt>
      <trkpt lat="45.76277" lon="6.54071">
        <ele>1756.32</ele>
        <time>2022-08-20T08:44:12Z</time>
      </trkpt>
      <trkpt lat="45.76299" lon="6.54093">
        <ele>1765.384</ele>
        <time>2022-08-20T08:44:22Z</time>
      </trkpt>
      <trkpt lat="45.76321" lon="6.54113">
        <ele>1773.763</ele>
        <time>2022-08-20T08:44:32Z</time>
      </trkpt>
      <trkpt lat="45.7634" lon="6.54132">
        <ele>1782.51</ele>
        <time>2022-08-20T08:44:41Z</time>
      </trkpt>
      <trkpt lat="45.76361" lon="6.54154">
        <ele>1790.761</ele>
        <time>2022-08-20T08:44:51Z</time>
      </trkpt>
      <trkpt lat="45.76382" lon="6.54174">
        <ele>1796.148</ele>
        <time>2022-08-20T08:45:00Z</time>
      </trkpt>
      <trkpt lat="45.76401" lon="6.54195">
        <ele>1803.846</ele>
        <time>2022-08-20T08:45:09Z</time>
      </trkpt>
      <trkpt lat="45.76423" lon="6.54217">
        <ele>1810.525</ele>
        <time>2022-08-20T08:45:19Z</time>
      </trkpt>
      <trkpt lat="45.76446" lon="6.5424">
        <ele>1813.905</ele>
        <time>2022-08-20T08:45:29Z</time>
      </trkpt>
      <trkpt lat="45.76468" lon="6.54263">
        <ele>1816.603</ele>
        <time>2022-08-20T08:45:39Z</time>
      </trkpt>
      <trkpt lat="45.76491" lon="6.54286">
        <ele>1820.715</ele>
        <time>2022-08-20T08:45:49Z</time>
      </trkpt>
      <trkpt lat="45.76514" lon="6.54308">
        <ele>1823.966</ele>
        <time>2022-08-20T08:45:59Z</time>
      </trkpt>
      <trkpt lat="45.76536" lon="6.54331">
        <ele>1828.549</ele>
        <time>2022-08-20T08:46:09Z</time>
      </trkpt>
      <trkpt lat="45.76557" lon="6.5435">
        <ele>1831.344</ele>
        <time>2022-08-20T08:46:18Z</time>
      </trkpt>
      <trkpt lat="45.7658" lon="6.54373">
        <ele>1835.176</ele>
        <time>2022-08-20T08:46:28Z</time>
      </trkpt>
      <trkpt lat="45.76602" lon="6.54394">
        <ele>1840.597</ele>
        <time>2022-08-20T08:46:38Z</time>
      </trkpt>
      <trkpt lat="45.76622" lon="6.54413">
        <ele>1846.267</ele>
        <time>2022-08-20T08:46:47Z</time>
      </trkpt>
      <trkpt lat="45.76644" lon="6.54435">
        <ele>1849.981</ele>
        <time>2022-08-20T08:46:57Z</time>
      </trkpt>
      <trkpt lat="45.76665" lon="6.54457">
        <ele>1854.516</ele>
        <time>2022-08-20T08:47:06Z</time>
      </trkpt>
      <trkpt lat="45.76687" lon="6.54477">
        <ele>1859.183</ele>
        <time>2022-08-20T08:47:16Z</time>
      </trkpt>
      <trkpt lat="45.7669" lon="6.54485">
        <ele>1862.014</ele>
        <time>2022-08-20T08:47:26Z</time>
      </trkpt>
      <trkpt lat="45.7669" lon="6.54484">
        <ele>1861.994</ele>
        <time>2022-08-20T08:47:36Z</time>
      </trkpt>
      <trkpt lat="45.7669" lon="6.54485">
        <ele>1862.212</ele>
        <time>2022-08-20T08:47:46Z</time>
      </trkpt>
      <trkpt lat="45.76693" lon="6.54489">
        <ele>1863.085</ele>
        <time>2022-08-20T08:47:55Z</time>
      </trkpt>
      <trkpt lat="45.76703" lon="6.545">
        <ele>1864.755</ele>
        <time>2022-08-20T08:48:04Z</time>
      </trkpt>
      <trkpt lat="45.76721" lon="6.54517">
        <ele>1868.696</ele>
        <time>2022-08-20T08:48:13Z</time>
      </trkpt>
      <trkpt lat="45.76742" lon="6.54535">
        <ele>1872.453</ele>
        <time>2022-08-20T08:48:22Z</time>
      </trkpt>
      <trkpt lat="45.76765" lon="6.54556">
        <ele>1876.109</ele>
        <time>2022-08-20T08:48:32Z</time>
      </trkpt>
      <trkpt lat="45.76786" lon="6.54576">
        <ele>1880.613</ele>
        <time>2022-08-20T08:48:41Z</time>
      </trkpt>
      <trkpt lat="45.76806" lon="6.54595">
        <ele>1885.826</ele>
        <time>2022-08-20T08:48:50Z</time>
      </trkpt>
      <trkpt lat="45.76829" lon="6.54616">
        <ele>1885.007</ele>
        <time>2022-08-20T08:49:00Z</time>
      </trkpt>
      <trkpt lat="45.76849" lon="6.54637">
        <ele>1886.384</ele>
        <time>2022-08-20T08:49:09Z</time>
      </trkpt>
      <trkpt lat="45.7687" lon="6.54658">
        <ele>1887.029</ele>
        <time>2022-08-20T08:49:18Z</time>
      </trkpt>
      <trkpt lat="45.7689" lon="6.54678">
        <ele>1889.183</ele>
        <time>2022-08-20T08:49:27Z</time>
      </trkpt>
      <trkpt lat="45.76905" lon="6.54694">
        <ele>1888.769</ele>
        <time>2022-08-20T08:49:36Z</time>
      </trkpt>
      <trkpt lat="45.76908" lon="6.54696">
        <ele>1891.534</ele>
        <time>2022-08-20T08:49:46Z</time>
      </trkpt>
      <trkpt lat="45.76908" lon="6.54694">
        <ele>1892.967</ele>
        <time>2022-08-20T08:49:56Z</time>
      </trkpt>
      <trkpt lat="45.76909" lon="6.54709">
        <ele>1895.981</ele>
        <time>2022-08-20T08:50:05Z</time>
      </trkpt>
      <trkpt lat="45.76916" lon="6.54717">
        <ele>1895.355</ele>
        <time>2022-08-20T08:50:15Z</time>
      </trkpt>
      <trkpt lat="45.76916" lon="6.54717">
        <ele>1895.347</ele>
        <time>2022-08-20T08:50:24Z</time>
      </trkpt>
      <trkpt lat="45.76916" lon="6.54717">
        <ele>1895.343</ele>
        <time>2022-08-20T08:50:34Z</time>
      </trkpt>
      <trkpt lat="45.76916" lon="6.54717">
        <ele>1895.351</ele>
        <time>2022-08-20T08:50:43Z</time>
      </trkpt>
      <trkpt lat="45.76916" lon="6.54717">
        <ele>1895.347</ele>
        <time>2022-08-20T08:50:53Z</time>
      </trkpt>
      <trkpt lat="45.76916" lon="6.54717">
        <ele>1895.341</ele>
        <time>2022-08-20T08:51:03Z</time>
      </trkpt>
      <trkpt lat="45.76916" lon="6.54717">
        <ele>1895.324</ele>
        <time>2022-08-20T08:51:13Z</time>
      </trkpt>
      <trkpt lat="45.76916" lon="6.54717">
        <ele>1895.308</ele>
        <time>2022-08-20T08:51:22Z</time>
      </trkpt>
      <trkpt lat="45.76916" lon="6.54717">
        <ele>1895.297</ele>
        <time>2022-08-20T08:51:32Z</time>
      </trkpt>
      <trkpt lat="45.76916" lon="6.54717">
        <ele>1895.289</ele>
        <time>2022-08-20T08:51:42Z</time>
      </trkpt>
      <trkpt lat="45.76916" lon="6.54718">
        <ele>1895.343</ele>
        <time>2022-08-20T08:51:51Z</time>
      </trkpt>
      <trkpt lat="45.7689" lon="6.5473">
        <ele>1895.594</ele>
        <time>2022-08-20T08:52:00Z</time>
      </trkpt>
      <trkpt lat="45.76851" lon="6.54686">
        <ele>1890.611</ele>
        <time>2022-08-20T08:52:09Z</time>
      </trkpt>
      <trkpt lat="45.7683" lon="6.54678">
        <ele>1886.175</ele>
        <time>2022-08-20T08:52:19Z</time>
      </trkpt>
      <trkpt lat="45.76827" lon="6.54692">
        <ele>1882.381</ele>
        <time>2022-08-20T08:52:29Z</time>
      </trkpt>
      <trkpt lat="45.76823" lon="6.54759">
        <ele>1870.923</ele>
        <time>2022-08-20T08:52:39Z</time>
      </trkpt>
      <trkpt lat="45.768" lon="6.54778">
        <ele>1863.174</ele>
        <time>2022-08-20T08:52:49Z</time>
      </trkpt>
      <trkpt lat="45.7675" lon="6.54791">
        <ele>1857.234</ele>
        <time>2022-08-20T08:52:59Z</time>
      </trkpt>
      <trkpt lat="45.76688" lon="6.54809">
        <ele>1852.807</ele>
        <time>2022-08-20T08:53:09Z</time>
      </trkpt>
      <trkpt lat="45.76634" lon="6.54849">
        <ele>1845.794</ele>
        <time>2022-08-20T08:53:19Z</time>
      </trkpt>
      <trkpt lat="45.76582" lon="6.54865">
        <ele>1840.423</ele>
        <time>2022-08-20T08:53:28Z</time>
      </trkpt>
      <trkpt lat="45.76514" lon="6.54849">
        <ele>1833.048</ele>
        <time>2022-08-20T08:53:38Z</time>
      </trkpt>
      <trkpt lat="45.76459" lon="6.54839">
        <ele>1831.054</ele>
        <time>2022-08-20T08:53:47Z</time>
      </trkpt>
      <trkpt lat="45.76404" lon="6.54797">
        <ele>1824.419</ele>
        <time>2022-08-20T08:53:57Z</time>
      </trkpt>
      <trkpt lat="45.76356" lon="6.54767">
        <ele>1820.572</ele>
        <time>2022-08-20T08:54:07Z</time>
      </trkpt>
      <trkpt lat="45.76338" lon="6.54755">
        <ele>1820.369</ele>
        <time>2022-08-20T08:54:17Z</time>
      </trkpt>
      <trkpt lat="45.76326" lon="6.54753">
        <ele>1820.989</ele>
        <time>2022-08-20T08:54:26Z</time>
      </trkpt>
      <trkpt lat="45.76311" lon="6.54749">
        <ele>1820.415</ele>
        <time>2022-08-20T08:54:35Z</time>
      </trkpt>
      <trkpt lat="45.76293" lon="6.54743">
        <ele>1819.542</ele>
        <time>2022-08-20T08:54:45Z</time>
      </trkpt>
      <trkpt lat="45.76287" lon="6.54741">
        <ele>1819.972</ele>
        <time>2022-08-20T08:54:54Z</time>
      </trkpt>
      <trkpt lat="45.76286" lon="6.54741">
        <ele>1819.822</ele>
        <time>2022-08-20T08:55:03Z</time>
      </trkpt>
      <trkpt lat="45.76286" lon="6.54741">
        <ele>1819.865</ele>
        <time>2022-08-20T08:55:12Z</time>
      </trkpt>
      <trkpt lat="45.76281" lon="6.54736">
        <ele>1818.593</ele>
        <time>2022-08-20T08:55:21Z</time>
      </trkpt>
      <trkpt lat="45.76266" lon="6.54688">
        <ele>1814.418</ele>
        <time>2022-08-20T08:55:30Z</time>
      </trkpt>
      <trkpt lat="45.76237" lon="6.54589">
        <ele>1807.901</ele>
        <time>2022-08-20T08:55:40Z</time>
      </trkpt>
      <trkpt lat="45.76194" lon="6.54552">
        <ele>1804.243</ele>
        <time>2022-08-20T08:55:49Z</time>
      </trkpt>
      <trkpt lat="45.7618" lon="6.54545">
        <ele>1801.95</ele>
        <time>2022-08-20T08:55:58Z</time>
      </trkpt>
      <trkpt lat="45.76178" lon="6.54543">
        <ele>1801.983</ele>
        <time>2022-08-20T08:56:08Z</time>
      </trkpt>
      <trkpt lat="45.76171" lon="6.54543">
        <ele>1802.228</ele>
        <time>2022-08-20T08:56:18Z</time>
      </trkpt>
      <trkpt lat="45.76144" lon="6.54587">
        <ele>1800.587</ele>
        <time>2022-08-20T08:56:27Z</time>
      </trkpt>
      <trkpt lat="45.76127" lon="6.54662">
        <ele>1799.99</ele>
        <time>2022-08-20T08:56:37Z</time>
      </trkpt>
      <trkpt lat="45.76118" lon="6.54726">
        <ele>1796.802</ele>
        <time>2022-08-20T08:56:46Z</time>
      </trkpt>
      <trkpt lat="45.76091" lon="6.54768">
        <ele>1789.435</ele>
        <time>2022-08-20T08:56:56Z</time>
      </trkpt>
      <trkpt lat="45.76073" lon="6.54839">
        <ele>1787.087</ele>
        <time>2022-08-20T08:57:05Z</time>
      </trkpt>
      <trkpt lat="45.76053" lon="6.54876">
        <ele>1783.839</ele>
        <time>2022-08-20T08:57:15Z</time>
      </trkpt>
      <trkpt lat="45.76031" lon="6.54932">
        <ele>1782.675</ele>
        <time>2022-08-20T08:57:24Z</time>
      </trkpt>
      <trkpt lat="45.76008" lon="6.5499">
        <ele>1779.274</ele>
        <time>2022-08-20T08:57:34Z</time>
      </trkpt>
      <trkpt lat="45.75993" lon="6.5502">
        <ele>1776.968</ele>
        <time>2022-08-20T08:57:43Z</time>
      </trkpt>
      <trkpt lat="45.75992" lon="6.55021">
        <ele>1777.253</ele>
        <time>2022-08-20T08:57:52Z</time>
      </trkpt>
      <trkpt lat="45.75991" lon="6.55021">
        <ele>1776.593</ele>
        <time>2022-08-20T08:58:02Z</time>
      </trkpt>
      <trkpt lat="45.75991" lon="6.55021">
        <ele>1776.596</ele>
        <time>2022-08-20T08:58:11Z</time>
      </trkpt>
      <trkpt lat="45.7598" lon="6.55012">
        <ele>1776.031</ele>
        <time>2022-08-20T08:58:21Z</time>
      </trkpt>
      <trkpt lat="45.75932" lon="6.54984">
        <ele>1768.784</ele>
        <time>2022-08-20T08:58:30Z</time>
      </trkpt>
      <trkpt lat="45.75877" lon="6.54946">
        <ele>1767.074</ele>
        <time>2022-08-20T08:58:39Z</time>
      </trkpt>
      <trkpt lat="45.7584" lon="6.54928">
        <ele>1759.228</ele>
        <time>2022-08-20T08:58:49Z</time>
      </trkpt>
      <trkpt lat="45.75809" lon="6.54926">
        <ele>1757.088</ele>
        <time>2022-08-20T08:58:58Z</time>
      </trkpt>
      <trkpt lat="45.75775" lon="6.54922">
        <ele>1748.287</ele>
        <time>2022-08-20T08:59:07Z</time>
      </trkpt>
      <trkpt lat="45.75751" lon="6.54899">
        <ele>1735.346</ele>
        <time>2022-08-20T08:59:16Z</time>
      </trkpt>
      <trkpt lat="45.75711" lon="6.54918">
        <ele>1728.181</ele>
        <time>2022-08-20T08:59:26Z</time>
      </trkpt>
      <trkpt lat="45.75689" lon="6.54907">
        <ele>1722.995</ele>
        <time>2022-08-20T08:59:35Z</time>
      </trkpt>
      <trkpt lat="45.75683" lon="6.54849">
        <ele>1714.844</ele>
        <time>2022-08-20T08:59:45Z</time>
      </trkpt>
      <trkpt lat="45.75652" lon="6.54839">
        <ele>1701.869</ele>
        <time>2022-08-20T08:59:54Z</time>
      </trkpt>
      <trkpt lat="45.75648" lon="6.54771">
        <ele>1690.126</ele>
        <time>2022-08-20T09:00:04Z</time>
      </trkpt>
      <trkpt lat="45.75634" lon="6.54761">
        <ele>1683.032</ele>
        <time>2022-08-20T09:00:13Z</time>
      </trkpt>
      <trkpt lat="45.7564" lon="6.54745">
        <ele>1683.534</ele>
        <time>2022-08-20T09:00:23Z</time>
      </trkpt>
      <trkpt lat="45.75633" lon="6.54708">
        <ele>1679.603</ele>
        <time>2022-08-20T09:00:32Z</time>
      </trkpt>
      <trkpt lat="45.7561" lon="6.5469">
        <ele>1671.564</ele>
        <time>2022-08-20T09:00:41Z</time>
      </trkpt>
      <trkpt lat="45.75625" lon="6.54608">
        <ele>1658.827</ele>
        <time>2022-08-20T09:00:51Z</time>
      </trkpt>
      <trkpt lat="45.75605" lon="6.54574">
        <ele>1646.54</ele>
        <time>2022-08-20T09:01:00Z</time>
      </trkpt>
      <trkpt lat="45.75585" lon="6.54538">
        <ele>1639.557</ele>
        <time>2022-08-20T09:01:10Z</time>
      </trkpt>
      <trkpt lat="45.7554" lon="6.54572">
        <ele>1631.394</ele>
        <time>2022-08-20T09:01:19Z</time>
      </trkpt>
      <trkpt lat="45.75519" lon="6.54627">
        <ele>1621.923</ele>
        <time>2022-08-20T09:01:29Z</time>
      </trkpt>
      <trkpt lat="45.75512" lon="6.54674">
        <ele>1619.737</ele>
        <time>2022-08-20T09:01:38Z</time>
      </trkpt>
      <trkpt lat="45.75494" lon="6.54637">
        <ele>1616.812</ele>
        <time>2022-08-20T09:01:48Z</time>
      </trkpt>
      <trkpt lat="45.75461" lon="6.54638">
        <ele>1616.024</ele>
        <time>2022-08-20T09:01:58Z</time>
      </trkpt>
      <trkpt lat="45.75431" lon="6.54657">
        <ele>1612.466</ele>
        <time>2022-08-20T09:02:07Z</time>
      </trkpt>
      <trkpt lat="45.75394" lon="6.54685">
        <ele>1608.448</ele>
        <time>2022-08-20T09:02:17Z</time>
      </trkpt>
      <trkpt lat="45.75359" lon="6.54687">
        <ele>1600.795</ele>
        <time>2022-08-20T09:02:27Z</time>
      </trkpt>
      <trkpt lat="45.75339" lon="6.54645">
        <ele>1590.942</ele>
        <time>2022-08-20T09:02:36Z</time>
      </trkpt>
      <trkpt lat="45.75287" lon="6.54667">
        <ele>1583.853</ele>
        <time>2022-08-20T09:02:45Z</time>
      </trkpt>
      <trkpt lat="45.75253" lon="6.54592">
        <ele>1578.125</ele>
        <time>2022-08-20T09:02:55Z</time>
      </trkpt>
      <trkpt lat="45.75214" lon="6.54518">
        <ele>1574.868</ele>
        <time>2022-08-20T09:03:04Z</time>
      </trkpt>
      <trkpt lat="45.752" lon="6.54434">
        <ele>1572.931</ele>
        <time>2022-08-20T09:03:13Z</time>
      </trkpt>
      <trkpt lat="45.75207" lon="6.54431">
        <ele>1573.039</ele>
        <time>2022-08-20T09:03:23Z</time>
      </trkpt>
      <trkpt lat="45.75209" lon="6.54438">
        <ele>1572.313</ele>
        <time>2022-08-20T09:03:32Z</time>
      </trkpt>
      <trkpt lat="45.75209" lon="6.54439">
        <ele>1571.866</ele>
        <time>2022-08-20T09:03:41Z</time>
      </trkpt>
      <trkpt lat="45.75211" lon="6.54445">
        <ele>1573.007</ele>
        <time>2022-08-20T09:03:51Z</time>
      </trkpt>
      <trkpt lat="45.75211" lon="6.54447">
        <ele>1572.446</ele>
        <time>2022-08-20T09:04:01Z</time>
      </trkpt>
      <trkpt lat="45.75214" lon="6.54454">
        <ele>1568.684</ele>
        <time>2022-08-20T09:04:10Z</time>
      </trkpt>
      <trkpt lat="45.75221" lon="6.5448">
        <ele>1571.365</ele>
        <time>2022-08-20T09:04:20Z</time>
      </trkpt>
      <trkpt lat="45.75231" lon="6.54515">
        <ele>1576.52</ele>
        <time>2022-08-20T09:04:29Z</time>
      </trkpt>
      <trkpt lat="45.7524" lon="6.54548">
        <ele>1582.13</ele>
        <time>2022-08-20T09:04:38Z</time>
      </trkpt>
      <trkpt lat="45.7525" lon="6.54581">
        <ele>1587.486</ele>
        <time>2022-08-20T09:04:47Z</time>
      </trkpt>
      <trkpt lat="45.75262" lon="6.54618">
        <ele>1591.969</ele>
        <time>2022-08-20T09:04:57Z</time>
      </trkpt>
      <trkpt lat="45.75272" lon="6.54656">
        <ele>1596.565</ele>
        <time>2022-08-20T09:05:07Z</time>
      </trkpt>
      <trkpt lat="45.75283" lon="6.54694">
        <ele>1601.17</ele>
        <time>2022-08-20T09:05:17Z</time>
      </trkpt>
      <trkpt lat="45.75294" lon="6.54731">
        <ele>1607.015</ele>
        <time>2022-08-20T09:05:27Z</time>
      </trkpt>
      <trkpt lat="45.75304" lon="6.54764">
        <ele>1613.849</ele>
        <time>2022-08-20T09:05:36Z</time>
      </trkpt>
      <trkpt lat="45.75313" lon="6.54797">
        <ele>1622.3</ele>
        <time>2022-08-20T09:05:45Z</time>
      </trkpt>
      <trkpt lat="45.75322" lon="6.54829">
        <ele>1638.731</ele>
        <time>2022-08-20T09:05:55Z</time>
      </trkpt>
      <trkpt lat="45.75331" lon="6.54859">
        <ele>1650.757</ele>
        <time>2022-08-20T09:06:04Z</time>
      </trkpt>
      <trkpt lat="45.75341" lon="6.54892">
        <ele>1661.654</ele>
        <time>2022-08-20T09:06:13Z</time>
      </trkpt>
      <trkpt lat="45.75351" lon="6.54926">
        <ele>1674.381</ele>
        <time>2022-08-20T09:06:23Z</time>
      </trkpt>
      <trkpt lat="45.7536" lon="6.54957">
        <ele>1687.039</ele>
        <time>2022-08-20T09:06:32Z</time>
      </trkpt>
      <trkpt lat="45.7537" lon="6.54988">
        <ele>1696.967</ele>
        <time>2022-08-20T09:06:41Z</time>
      </trkpt>
      <trkpt lat="45.7538" lon="6.55023">
        <ele>1709.529</ele>
        <time>2022-08-20T09:06:51Z</time>
      </trkpt>
      <trkpt lat="45.7539" lon="6.55058">
        <ele>1722.29</ele>
        <time>2022-08-20T09:07:01Z</time>
      </trkpt>
      <trkpt lat="45.75399" lon="6.5509">
        <ele>1734.239</ele>
        <time>2022-08-20T09:07:10Z</time>
      </trkpt>
      <trkpt lat="45.75409" lon="6.55123">
        <ele>1748.814</ele>
        <time>2022-08-20T09:07:20Z</time>
      </trkpt>
      <trkpt lat="45.7542" lon="6.5516">
        <ele>1756.633</ele>
        <time>2022-08-20T09:07:30Z</time>
      </trkpt>
      <trkpt lat="45.75431" lon="6.55197">
        <ele>1765.602</ele>
        <time>2022-08-20T09:07:40Z</time>
      </trkpt>
      <trkpt lat="45.7544" lon="6.55229">
        <ele>1775.211</ele>
        <time>2022-08-20T09:07:49Z</time>
      </trkpt>
      <trkpt lat="45.7545" lon="6.55265">
        <ele>1784.862</ele>
        <time>2022-08-20T09:07:59Z</time>
      </trkpt>
      <trkpt lat="45.7546" lon="6.55299">
        <ele>1792.081</ele>
        <time>2022-08-20T09:08:08Z</time>
      </trkpt>
      <trkpt lat="45.7547" lon="6.55335">
        <ele>1800.406</ele>
        <time>2022-08-20T09:08:18Z</time>
      </trkpt>
      <trkpt lat="45.75482" lon="6.55372">
        <ele>1809.094</ele>
        <time>2022-08-20T09:08:28Z</time>
      </trkpt>
      <trkpt lat="45.75492" lon="6.55407">
        <ele>1820.392</ele>
        <time>2022-08-20T09:08:38Z</time>
      </trkpt>
      <trkpt lat="45.75502" lon="6.55441">
        <ele>1824.993</ele>
        <time>2022-08-20T09:08:47Z</time>
      </trkpt>
      <trkpt lat="45.75513" lon="6.55478">
        <ele>1830.511</ele>
        <time>2022-08-20T09:08:57Z</time>
      </trkpt>
      <trkpt lat="45.75524" lon="6.55516">
        <ele>1836.571</ele>
        <time>2022-08-20T09:09:07Z</time>
      </trkpt>
      <trkpt lat="45.75535" lon="6.55552">
        <ele>1843.431</ele>
        <time>2022-08-20T09:09:17Z</time>
      </trkpt>
      <trkpt lat="45.75541" lon="6.55575">
        <ele>1847.641</ele>
        <time>2022-08-20T09:09:26Z</time>
      </trkpt>
      <trkpt lat="45.75546" lon="6.55591">
        <ele>1852.355</ele>
        <time>2022-08-20T09:09:36Z</time>
      </trkpt>
      <trkpt lat="45.75552" lon="6.55611">
        <ele>1857.203</ele>
        <time>2022-08-20T09:09:45Z</time>
      </trkpt>
      <trkpt lat="45.75563" lon="6.55648">
        <ele>1862.068</ele>
        <time>2022-08-20T09:09:55Z</time>
      </trkpt>
      <trkpt lat="45.75573" lon="6.55682">
        <ele>1863.756</ele>
        <time>2022-08-20T09:10:04Z</time>
      </trkpt>
      <trkpt lat="45.75583" lon="6.55717">
        <ele>1863.767</ele>
        <time>2022-08-20T09:10:14Z</time>
      </trkpt>
      <trkpt lat="45.75583" lon="6.55732">
        <ele>1862.393</ele>
        <time>2022-08-20T09:10:23Z</time>
      </trkpt>
      <trkpt lat="45.75586" lon="6.55741">
        <ele>1859.957</ele>
        <time>2022-08-20T09:10:32Z</time>
      </trkpt>
      <trkpt lat="45.75594" lon="6.55738">
        <ele>1860.978</ele>
        <time>2022-08-20T09:10:42Z</time>
      </trkpt>
      <trkpt lat="45.75595" lon="6.55738">
        <ele>1861.644</ele>
        <time>2022-08-20T09:10:52Z</time>
      </trkpt>
      <trkpt lat="45.75594" lon="6.55731">
        <ele>1861.934</ele>
        <time>2022-08-20T09:11:02Z</time>
      </trkpt>
      <trkpt lat="45.75593" lon="6.5573">
        <ele>1861.533</ele>
        <time>2022-08-20T09:11:12Z</time>
      </trkpt>
      <trkpt lat="45.75593" lon="6.55729">
        <ele>1860.709</ele>
        <time>2022-08-20T09:11:22Z</time>
      </trkpt>
      <trkpt lat="45.75594" lon="6.5573">
        <ele>1860.912</ele>
        <time>2022-08-20T09:11:32Z</time>
      </trkpt>
      <trkpt lat="45.75595" lon="6.55735">
        <ele>1863.576</ele>
        <time>2022-08-20T09:11:42Z</time>
      </trkpt>
      <trkpt lat="45.75595" lon="6.55735">
        <ele>1862.769</ele>
        <time>2022-08-20T09:11:52Z</time>
      </trkpt>
      <trkpt lat="45.75595" lon="6.55735">
        <ele>1862.758</ele>
        <time>2022-08-20T09:12:01Z</time>
      </trkpt>
      <trkpt lat="45.75595" lon="6.55735">
        <ele>1863.201</ele>
        <time>2022-08-20T09:12:11Z</time>
      </trkpt>
      <trkpt lat="45.75595" lon="6.55735">
        <ele>1863.509</ele>
        <time>2022-08-20T09:12:20Z</time>
      </trkpt>
      <trkpt lat="45.75595" lon="6.55735">
        <ele>1863.509</ele>
        <time>2022-08-20T09:12:29Z</time>
      </trkpt>
      <trkpt lat="45.75603" lon="6.55727">
        <ele>1861.624</ele>
        <time>2022-08-20T09:12:38Z</time>
      </trkpt>
      <trkpt lat="45.75631" lon="6.55683">
        <ele>1855.283</ele>
        <time>2022-08-20T09:12:47Z</time>
      </trkpt>
      <trkpt lat="45.75684" lon="6.55628">
        <ele>1846.561</ele>
        <time>2022-08-20T09:12:57Z</time>
      </trkpt>
      <trkpt lat="45.75722" lon="6.5561">
        <ele>1841.167</ele>
        <time>2022-08-20T09:13:06Z</time>
      </trkpt>
      <trkpt lat="45.75732" lon="6.55567">
        <ele>1834.773</ele>
        <time>2022-08-20T09:13:15Z</time>
      </trkpt>
      <trkpt lat="45.75782" lon="6.55546">
        <ele>1827.617</ele>
        <time>2022-08-20T09:13:25Z</time>
      </trkpt>
      <trkpt lat="45.75779" lon="6.55503">
        <ele>1820.611</ele>
        <time>2022-08-20T09:13:35Z</time>
      </trkpt>
      <trkpt lat="45.75774" lon="6.55463">
        <ele>1816.491</ele>
        <time>2022-08-20T09:13:44Z</time>
      </trkpt>
      <trkpt lat="45.75782" lon="6.55414">
        <ele>1808.856</ele>
        <time>2022-08-20T09:13:53Z</time>
      </trkpt>
      <trkpt lat="45.7577" lon="6.5536">
        <ele>1802.127</ele>
        <time>2022-08-20T09:14:03Z</time>
      </trkpt>
      <trkpt lat="45.75806" lon="6.55297">
        <ele>1799.444</ele>
        <time>2022-08-20T09:14:12Z</time>
      </trkpt>
      <trkpt lat="45.75787" lon="6.55266">
        <ele>1791.858</ele>
        <time>2022-08-20T09:14:22Z</time>
      </trkpt>
      <trkpt lat="45.75768" lon="6.55235">
        <ele>1783.736</ele>
        <time>2022-08-20T09:14:32Z</time>
      </trkpt>
      <trkpt lat="45.75753" lon="6.55246">
        <ele>1779.316</ele>
        <time>2022-08-20T09:14:41Z</time>
      </trkpt>
      <trkpt lat="45.75754" lon="6.55216">
        <ele>1775.192</ele>
        <time>2022-08-20T09:14:51Z</time>
      </trkpt>
      <trkpt lat="45.75763" lon="6.55135">
        <ele>1767.982</ele>
        <time>2022-08-20T09:15:01Z</time>
      </trkpt>
      <trkpt lat="45.7574" lon="6.55121">
        <ele>1766.584</ele>
        <time>2022-08-20T09:15:10Z</time>
      </trkpt>
      <trkpt lat="45.75756" lon="6.55063">
        <ele>1761.615</ele>
        <time>2022-08-20T09:15:19Z</time>
      </trkpt>
      <trkpt lat="45.75756" lon="6.5502">
        <ele>1756.832</ele>
        <time>2022-08-20T09:15:28Z</time>
      </trkpt>
      <trkpt lat="45.75743" lon="6.54996">
        <ele>1752.443</ele>
        <time>2022-08-20T09:15:37Z</time>
      </trkpt>
      <trkpt lat="45.75727" lon="6.54986">
        <ele>1743.644</ele>
        <time>2022-08-20T09:15:47Z</time>
      </trkpt>
      <trkpt lat="45.75714" lon="6.54965">
        <ele>1735.74</ele>
        <time>2022-08-20T09:15:56Z</time>
      </trkpt>
      <trkpt lat="45.75696" lon="6.54948">
        <ele>1726.247</ele>
        <time>2022-08-20T09:16:06Z</time>
      </trkpt>
      <trkpt lat="45.75694" lon="6.54899">
        <ele>1723.075</ele>
        <time>2022-08-20T09:16:15Z</time>
      </trkpt>
      <trkpt lat="45.75685" lon="6.54867">
        <ele>1713.829</ele>
        <time>2022-08-20T09:16:24Z</time>
      </trkpt>
      <trkpt lat="45.75678" lon="6.54852">
        <ele>1707.551</ele>
        <time>2022-08-20T09:16:33Z</time>
      </trkpt>
      <trkpt lat="45.75677" lon="6.54851">
        <ele>1708.045</ele>
        <time>2022-08-20T09:16:42Z</time>
      </trkpt>
      <trkpt lat="45.75677" lon="6.54851">
        <ele>1708.075</ele>
        <time>2022-08-20T09:16:51Z</time>
      </trkpt>
      <trkpt lat="45.75678" lon="6.54852">
        <ele>1707.395</ele>
        <time>2022-08-20T09:17:01Z</time>
      </trkpt>
      <trkpt lat="45.75679" lon="6.54853">
        <ele>1706.328</ele>
        <time>2022-08-20T09:17:10Z</time>
      </trkpt>
      <trkpt lat="45.75679" lon="6.54853">
        <ele>1706.368</ele>
        <time>2022-08-20T09:17:19Z</time>
      </trkpt>
      <trkpt lat="45.75679" lon="6.54853">
        <ele>1706.361</ele>
        <time>2022-08-20T09:17:29Z</time>
      </trkpt>
      <trkpt lat="45.75679" lon="6.54853">
        <ele>1706.354</ele>
        <time>2022-08-20T09:17:38Z</time>
      </trkpt>
      <trkpt lat="45.75679" lon="6.54853">
        <ele>1706.36</ele>
        <time>2022-08-20T09:17:48Z</time>
      </trkpt>
      <trkpt lat="45.75679" lon="6.54853">
        <ele>1706.368</ele>
        <time>2022-08-20T09:17:58Z</time>
      </trkpt>
      <trkpt lat="45.75669" lon="6.54857">
        <ele>1704.769</ele>
        <time>2022-08-20T09:18:07Z</time>
      </trkpt>
      <trkpt lat="45.7565" lon="6.54815">
        <ele>1693.966</ele>
        <time>2022-08-20T09:18:17Z</time>
      </trkpt>
      <trkpt lat="45.75643" lon="6.5478">
        <ele>1682.636</ele>
        <time>2022-08-20T09:18:26Z</time>
      </trkpt>
      <trkpt lat="45.75626" lon="6.54729">
        <ele>1680.158</ele>
        <time>2022-08-20T09:18:36Z</time>
      </trkpt>
      <trkpt lat="45.75612" lon="6.54691">
        <ele>1668.505</ele>
        <time>2022-08-20T09:18:46Z</time>
      </trkpt>
      <trkpt lat="45.75611" lon="6.54635">
        <ele>1659.787</ele>
        <time>2022-08-20T09:18:55Z</time>
      </trkpt>
      <trkpt lat="45.75619" lon="6.54584">
        <ele>1653.251</ele>
        <time>2022-08-20T09:19:04Z</time>
      </trkpt>
      <trkpt lat="45.75606" lon="6.54555">
        <ele>1640.547</ele>
        <time>2022-08-20T09:19:13Z</time>
      </trkpt>
      <trkpt lat="45.75549" lon="6.5456">
        <ele>1628.359</ele>
        <time>2022-08-20T09:19:23Z</time>
      </trkpt>
      <trkpt lat="45.75524" lon="6.54617">
        <ele>1620.767</ele>
        <time>2022-08-20T09:19:32Z</time>
      </trkpt>
      <trkpt lat="45.75512" lon="6.54675">
        <ele>1618.01</ele>
        <time>2022-08-20T09:19:42Z</time>
      </trkpt>
      <trkpt lat="45.75482" lon="6.5464">
        <ele>1615.327</ele>
        <time>2022-08-20T09:19:51Z</time>
      </trkpt>
      <trkpt lat="45.75421" lon="6.54664">
        <ele>1608.936</ele>
        <time>2022-08-20T09:20:01Z</time>
      </trkpt>
      <trkpt lat="45.75363" lon="6.54704">
        <ele>1601.959</ele>
        <time>2022-08-20T09:20:10Z</time>
      </trkpt>
      <trkpt lat="45.75378" lon="6.54657">
        <ele>1596.241</ele>
        <time>2022-08-20T09:20:20Z</time>
      </trkpt>
      <trkpt lat="45.75342" lon="6.54634">
        <ele>1590.872</ele>
        <time>2022-08-20T09:20:29Z</time>
      </trkpt>
      <trkpt lat="45.75342" lon="6.54633">
        <ele>1589.401</ele>
        <time>2022-08-20T09:20:39Z</time>
      </trkpt>
      <trkpt lat="45.75343" lon="6.54633">
        <ele>1589.172</ele>
        <time>2022-08-20T09:20:49Z</time>
      </trkpt>
      <trkpt lat="45.75343" lon="6.54633">
        <ele>1589.169</ele>
        <time>2022-08-20T09:20:58Z</time>
      </trkpt>
      <trkpt lat="45.75343" lon="6.54633">
        <ele>1589.16</ele>
        <time>2022-08-20T09:21:08Z</time>
      </trkpt>
      <trkpt lat="45.75343" lon="6.54633">
        <ele>1589.165</ele>
        <time>2022-08-20T09:21:18Z</time>
      </trkpt>
      <trkpt lat="45.75342" lon="6.54635">
        <ele>1589.234</ele>
        <time>2022-08-20T09:21:28Z</time>
      </trkpt>
      <trkpt lat="45.75342" lon="6.54635">
        <ele>1590.286</ele>
        <time>2022-08-20T09:21:37Z</time>
      </trkpt>
      <trkpt lat="45.75342" lon="6.54635">
        <ele>1590.298</ele>
        <time>2022-08-20T09:21:46Z</time>
      </trkpt>
      <trkpt lat="45.75342" lon="6.54635">
        <ele>1590.298</ele>
        <time>2022-08-20T09:21:56Z</time>
      </trkpt>
      <trkpt lat="45.75342" lon="6.54635">
        <ele>1590.307</ele>
        <time>2022-08-20T09:22:05Z</time>
      </trkpt>
      <trkpt lat="45.75342" lon="6.54635">
        <ele>1590.319</ele>
        <time>2022-08-20T09:22:14Z</time>
      </trkpt>
      <trkpt lat="45.75342" lon="6.54635">
        <ele>1590.326</ele>
        <time>2022-08-20T09:22:24Z</time>
      </trkpt>
      <trkpt lat="45.75342" lon="6.54634">
        <ele>1590.33</ele>
        <time>2022-08-20T09:22:34Z</time>
      </trkpt>
      <trkpt lat="45.75342" lon="6.54634">
        <ele>1590.327</ele>
        <time>2022-08-20T09:22:43Z</time>
      </trkpt>
      <trkpt lat="45.75342" lon="6.54634">
        <ele>1590.32</ele>
        <time>2022-08-20T09:22:53Z</time>
      </trkpt>
      <trkpt lat="45.75342" lon="6.54634">
        <ele>1590.862</ele>
        <time>2022-08-20T09:23:02Z</time>
      </trkpt>
      <trkpt lat="45.75342" lon="6.54634">
        <ele>1590.544</ele>
        <time>2022-08-20T09:23:12Z</time>
      </trkpt>
      <trkpt lat="45.75341" lon="6.54635">
        <ele>1590.408</ele>
        <time>2022-08-20T09:23:21Z</time>
      </trkpt>
      <trkpt lat="45.7529" lon="6.54668">
        <ele>1579.84</ele>
        <time>2022-08-20T09:23:31Z</time>
      </trkpt>
      <trkpt lat="45.75255" lon="6.54593">
        <ele>1576.039</ele>
        <time>2022-08-20T09:23:40Z</time>
      </trkpt>
      <trkpt lat="45.75214" lon="6.54507">
        <ele>1570.349</ele>
        <time>2022-08-20T09:23:50Z</time>
      </trkpt>
      <trkpt lat="45.752" lon="6.54434">
        <ele>1567.588</ele>
        <time>2022-08-20T09:23:59Z</time>
      </trkpt>
      <trkpt lat="45.75205" lon="6.54431">
        <ele>1568.511</ele>
        <time>2022-08-20T09:24:09Z</time>
      </trkpt>
      <trkpt lat="45.75206" lon="6.54436">
        <ele>1568.688</ele>
        <time>2022-08-20T09:24:18Z</time>
      </trkpt>
      <trkpt lat="45.75208" lon="6.54441">
        <ele>1570.029</ele>
        <time>2022-08-20T09:24:27Z</time>
      </trkpt>
      <trkpt lat="45.75209" lon="6.54442">
        <ele>1570.881</ele>
        <time>2022-08-20T09:24:37Z</time>
      </trkpt>
      <trkpt lat="45.7521" lon="6.54446">
        <ele>1566.535</ele>
        <time>2022-08-20T09:24:46Z</time>
      </trkpt>
      <trkpt lat="45.75211" lon="6.54448">
        <ele>1565.103</ele>
        <time>2022-08-20T09:24:56Z</time>
      </trkpt>
      <trkpt lat="45.75212" lon="6.54453">
        <ele>1561.901</ele>
        <time>2022-08-20T09:25:06Z</time>
      </trkpt>
      <trkpt lat="45.75221" lon="6.54478">
        <ele>1560.973</ele>
        <time>2022-08-20T09:25:15Z</time>
      </trkpt>
      <trkpt lat="45.75232" lon="6.54519">
        <ele>1572.412</ele>
        <time>2022-08-20T09:25:25Z</time>
      </trkpt>
      <trkpt lat="45.75243" lon="6.54559">
        <ele>1579.324</ele>
        <time>2022-08-20T09:25:35Z</time>
      </trkpt>
      <trkpt lat="45.75253" lon="6.54593">
        <ele>1585.917</ele>
        <time>2022-08-20T09:25:44Z</time>
      </trkpt>
      <trkpt lat="45.75263" lon="6.54627">
        <ele>1591.917</ele>
        <time>2022-08-20T09:25:53Z</time>
      </trkpt>
      <trkpt lat="45.75273" lon="6.54663">
        <ele>1596.325</ele>
        <time>2022-08-20T09:26:03Z</time>
      </trkpt>
      <trkpt lat="45.75284" lon="6.54702">
        <ele>1602.253</ele>
        <time>2022-08-20T09:26:13Z</time>
      </trkpt>
      <trkpt lat="45.75295" lon="6.5474">
        <ele>1608.767</ele>
        <time>2022-08-20T09:26:23Z</time>
      </trkpt>
      <trkpt lat="45.75305" lon="6.54772">
        <ele>1615.646</ele>
        <time>2022-08-20T09:26:32Z</time>
      </trkpt>
      <trkpt lat="45.75315" lon="6.54804">
        <ele>1622.596</ele>
        <time>2022-08-20T09:26:41Z</time>
      </trkpt>
      <trkpt lat="45.75324" lon="6.54833">
        <ele>1638.832</ele>
        <time>2022-08-20T09:26:50Z</time>
      </trkpt>
      <trkpt lat="45.75333" lon="6.54866">
        <ele>1652.287</ele>
        <time>2022-08-20T09:27:00Z</time>
      </trkpt>
      <trkpt lat="45.75342" lon="6.54898">
        <ele>1663.79</ele>
        <time>2022-08-20T09:27:09Z</time>
      </trkpt>
      <trkpt lat="45.75353" lon="6.54932">
        <ele>1677.268</ele>
        <time>2022-08-20T09:27:19Z</time>
      </trkpt>
      <trkpt lat="45.75363" lon="6.54966">
        <ele>1691.274</ele>
        <time>2022-08-20T09:27:29Z</time>
      </trkpt>
      <trkpt lat="45.75371" lon="6.54999">
        <ele>1701.462</ele>
        <time>2022-08-20T09:27:38Z</time>
      </trkpt>
      <trkpt lat="45.75381" lon="6.55031">
        <ele>1711.584</ele>
        <time>2022-08-20T09:27:47Z</time>
      </trkpt>
      <trkpt lat="45.75392" lon="6.55066">
        <ele>1724.245</ele>
        <time>2022-08-20T09:27:57Z</time>
      </trkpt>
      <trkpt lat="45.75402" lon="6.551">
        <ele>1737.863</ele>
        <time>2022-08-20T09:28:07Z</time>
      </trkpt>
      <trkpt lat="45.75412" lon="6.55134">
        <ele>1750.402</ele>
        <time>2022-08-20T09:28:17Z</time>
      </trkpt>
      <trkpt lat="45.75422" lon="6.55167">
        <ele>1758.928</ele>
        <time>2022-08-20T09:28:26Z</time>
      </trkpt>
      <trkpt lat="45.75431" lon="6.552">
        <ele>1768.542</ele>
        <time>2022-08-20T09:28:35Z</time>
      </trkpt>
      <trkpt lat="45.75441" lon="6.55232">
        <ele>1777.672</ele>
        <time>2022-08-20T09:28:44Z</time>
      </trkpt>
      <trkpt lat="45.75451" lon="6.55268">
        <ele>1787.044</ele>
        <time>2022-08-20T09:28:54Z</time>
      </trkpt>
      <trkpt lat="45.75461" lon="6.55302">
        <ele>1793.587</ele>
        <time>2022-08-20T09:29:03Z</time>
      </trkpt>
      <trkpt lat="45.75471" lon="6.55335">
        <ele>1800.804</ele>
        <time>2022-08-20T09:29:12Z</time>
      </trkpt>
      <trkpt lat="45.75481" lon="6.55371">
        <ele>1810.067</ele>
        <time>2022-08-20T09:29:22Z</time>
      </trkpt>
      <trkpt lat="45.75491" lon="6.55408">
        <ele>1820.298</ele>
        <time>2022-08-20T09:29:32Z</time>
      </trkpt>
      <trkpt lat="45.75501" lon="6.55441">
        <ele>1825.354</ele>
        <time>2022-08-20T09:29:41Z</time>
      </trkpt>
      <trkpt lat="45.75513" lon="6.55478">
        <ele>1830.226</ele>
        <time>2022-08-20T09:29:51Z</time>
      </trkpt>
      <trkpt lat="45.75524" lon="6.55516">
        <ele>1835.664</ele>
        <time>2022-08-20T09:30:01Z</time>
      </trkpt>
      <trkpt lat="45.75534" lon="6.55549">
        <ele>1841.92</ele>
        <time>2022-08-20T09:30:10Z</time>
      </trkpt>
      <trkpt lat="45.75545" lon="6.55585">
        <ele>1850.919</ele>
        <time>2022-08-20T09:30:20Z</time>
      </trkpt>
      <trkpt lat="45.75555" lon="6.55617">
        <ele>1859.251</ele>
        <time>2022-08-20T09:30:29Z</time>
      </trkpt>
      <trkpt lat="45.75566" lon="6.55655">
        <ele>1861.554</ele>
        <time>2022-08-20T09:30:39Z</time>
      </trkpt>
      <trkpt lat="45.75576" lon="6.55689">
        <ele>1864.447</ele>
        <time>2022-08-20T09:30:48Z</time>
      </trkpt>
      <trkpt lat="45.75584" lon="6.55718">
        <ele>1863.803</ele>
        <time>2022-08-20T09:30:58Z</time>
      </trkpt>
      <trkpt lat="45.75586" lon="6.55731">
        <ele>1861.567</ele>
        <time>2022-08-20T09:31:07Z</time>
      </trkpt>
      <trkpt lat="45.75582" lon="6.55741">
        <ele>1859.724</ele>
        <time>2022-08-20T09:31:17Z</time>
      </trkpt>
      <trkpt lat="45.75597" lon="6.55746">
        <ele>1859.989</ele>
        <time>2022-08-20T09:31:27Z</time>
      </trkpt>
      <trkpt lat="45.756" lon="6.55745">
        <ele>1859.916</ele>
        <time>2022-08-20T09:31:36Z</time>
      </trkpt>
      <trkpt lat="45.756" lon="6.55745">
        <ele>1859.921</ele>
        <time>2022-08-20T09:31:45Z</time>
      </trkpt>
      <trkpt lat="45.756" lon="6.55745">
        <ele>1859.919</ele>
        <time>2022-08-20T09:31:55Z</time>
      </trkpt>
      <trkpt lat="45.756" lon="6.55745">
        <ele>1859.924</ele>
        <time>2022-08-20T09:32:05Z</time>
      </trkpt>
      <trkpt lat="45.756" lon="6.55745">
        <ele>1859.928</ele>
        <time>2022-08-20T09:32:14Z</time>
      </trkpt>
      <trkpt lat="45.756" lon="6.55745">
        <ele>1859.939</ele>
        <time>2022-08-20T09:32:23Z</time>
      </trkpt>
      <trkpt lat="45.756" lon="6.55745">
        <ele>1859.956</ele>
        <time>2022-08-20T09:32:33Z</time>
      </trkpt>
      <trkpt lat="45.756" lon="6.55745">
        <ele>1860.128</ele>
        <time>2022-08-20T09:32:43Z</time>
      </trkpt>
      <trkpt lat="45.756" lon="6.55745">
        <ele>1860.133</ele>
        <time>2022-08-20T09:32:53Z</time>
      </trkpt>
      <trkpt lat="45.756" lon="6.55745">
        <ele>1860.145</ele>
        <time>2022-08-20T09:33:02Z</time>
      </trkpt>
      <trkpt lat="45.75603" lon="6.55742">
        <ele>1860.338</ele>
        <time>2022-08-20T09:33:11Z</time>
      </trkpt>
      <trkpt lat="45.75612" lon="6.55696">
        <ele>1859.35</ele>
        <time>2022-08-20T09:33:20Z</time>
      </trkpt>
      <trkpt lat="45.75668" lon="6.55646">
        <ele>1852.113</ele>
        <time>2022-08-20T09:33:30Z</time>
      </trkpt>
      <trkpt lat="45.75716" lon="6.55609">
        <ele>1844.276</ele>
        <time>2022-08-20T09:33:40Z</time>
      </trkpt>
      <trkpt lat="45.75731" lon="6.55577">
        <ele>1838.132</ele>
        <time>2022-08-20T09:33:49Z</time>
      </trkpt>
      <trkpt lat="45.7578" lon="6.55549">
        <ele>1827.209</ele>
        <time>2022-08-20T09:33:59Z</time>
      </trkpt>
      <trkpt lat="45.75777" lon="6.55504">
        <ele>1819.327</ele>
        <time>2022-08-20T09:34:09Z</time>
      </trkpt>
      <trkpt lat="45.75775" lon="6.55452">
        <ele>1814.545</ele>
        <time>2022-08-20T09:34:19Z</time>
      </trkpt>
      <trkpt lat="45.7579" lon="6.5544">
        <ele>1813.212</ele>
        <time>2022-08-20T09:34:28Z</time>
      </trkpt>
      <trkpt lat="45.75802" lon="6.55408">
        <ele>1810.943</ele>
        <time>2022-08-20T09:34:37Z</time>
      </trkpt>
      <trkpt lat="45.75807" lon="6.55353">
        <ele>1802.991</ele>
        <time>2022-08-20T09:34:46Z</time>
      </trkpt>
      <trkpt lat="45.75837" lon="6.55269">
        <ele>1798.107</ele>
        <time>2022-08-20T09:34:56Z</time>
      </trkpt>
      <trkpt lat="45.75871" lon="6.55185">
        <ele>1791.093</ele>
        <time>2022-08-20T09:35:05Z</time>
      </trkpt>
      <trkpt lat="45.75907" lon="6.55107">
        <ele>1787.214</ele>
        <time>2022-08-20T09:35:15Z</time>
      </trkpt>
      <trkpt lat="45.75924" lon="6.55051">
        <ele>1780.544</ele>
        <time>2022-08-20T09:35:25Z</time>
      </trkpt>
      <trkpt lat="45.75981" lon="6.55045">
        <ele>1775.822</ele>
        <time>2022-08-20T09:35:34Z</time>
      </trkpt>
      <trkpt lat="45.75993" lon="6.55016">
        <ele>1775.373</ele>
        <time>2022-08-20T09:35:43Z</time>
      </trkpt>
      <trkpt lat="45.75992" lon="6.55014">
        <ele>1774.836</ele>
        <time>2022-08-20T09:35:53Z</time>
      </trkpt>
      <trkpt lat="45.75992" lon="6.55014">
        <ele>1774.722</ele>
        <time>2022-08-20T09:36:02Z</time>
      </trkpt>
      <trkpt lat="45.75992" lon="6.55014">
        <ele>1774.728</ele>
        <time>2022-08-20T09:36:11Z</time>
      </trkpt>
      <trkpt lat="45.75992" lon="6.55014">
        <ele>1774.747</ele>
        <time>2022-08-20T09:36:21Z</time>
      </trkpt>
      <trkpt lat="45.75992" lon="6.55014">
        <ele>1774.757</ele>
        <time>2022-08-20T09:36:30Z</time>
      </trkpt>
      <trkpt lat="45.75982" lon="6.54992">
        <ele>1771.706</ele>
        <time>2022-08-20T09:36:40Z</time>
      </trkpt>
      <trkpt lat="45.75979" lon="6.54914">
        <ele>1766.271</ele>
        <time>2022-08-20T09:36:49Z</time>
      </trkpt>
      <trkpt lat="45.7595" lon="6.5481">
        <ele>1756.671</ele>
        <time>2022-08-20T09:36:59Z</time>
      </trkpt>
      <trkpt lat="45.75918" lon="6.54729">
        <ele>1751.421</ele>
        <time>2022-08-20T09:37:08Z</time>
      </trkpt>
      <trkpt lat="45.75935" lon="6.54641">
        <ele>1746.698</ele>
        <time>2022-08-20T09:37:18Z</time>
      </trkpt>
      <trkpt lat="45.75969" lon="6.54568">
        <ele>1744.754</ele>
        <time>2022-08-20T09:37:27Z</time>
      </trkpt>
      <trkpt lat="45.75969" lon="6.54481">
        <ele>1739.314</ele>
        <time>2022-08-20T09:37:36Z</time>
      </trkpt>
      <trkpt lat="45.75959" lon="6.54384">
        <ele>1728.616</ele>
        <time>2022-08-20T09:37:45Z</time>
      </trkpt>
      <trkpt lat="45.75955" lon="6.54278">
        <ele>1723.835</ele>
        <time>2022-08-20T09:37:55Z</time>
      </trkpt>
      <trkpt lat="45.75953" lon="6.54201">
        <ele>1720.737</ele>
        <time>2022-08-20T09:38:04Z</time>
      </trkpt>
      <trkpt lat="45.75964" lon="6.54138">
        <ele>1715.101</ele>
        <time>2022-08-20T09:38:13Z</time>
      </trkpt>
      <trkpt lat="45.75954" lon="6.54068">
        <ele>1713.848</ele>
        <time>2022-08-20T09:38:22Z</time>
      </trkpt>
      <trkpt lat="45.75955" lon="6.53998">
        <ele>1710.416</ele>
        <time>2022-08-20T09:38:31Z</time>
      </trkpt>
      <trkpt lat="45.75972" lon="6.53941">
        <ele>1704.725</ele>
        <time>2022-08-20T09:38:40Z</time>
      </trkpt>
      <trkpt lat="45.75991" lon="6.53904">
        <ele>1705.872</ele>
        <time>2022-08-20T09:38:50Z</time>
      </trkpt>
      <trkpt lat="45.75996" lon="6.53886">
        <ele>1704.487</ele>
        <time>2022-08-20T09:38:59Z</time>
      </trkpt>
      <trkpt lat="45.75997" lon="6.53884">
        <ele>1704.907</ele>
        <time>2022-08-20T09:39:09Z</time>
      </trkpt>
      <trkpt lat="45.75997" lon="6.53884">
        <ele>1704.954</ele>
        <time>2022-08-20T09:39:19Z</time>
      </trkpt>
      <trkpt lat="45.75997" lon="6.53884">
        <ele>1704.966</ele>
        <time>2022-08-20T09:39:29Z</time>
      </trkpt>
      <trkpt lat="45.75997" lon="6.53884">
        <ele>1704.979</ele>
        <time>2022-08-20T09:39:38Z</time>
      </trkpt>
      <trkpt lat="45.75997" lon="6.53884">
        <ele>1704.983</ele>
        <time>2022-08-20T09:39:48Z</time>
      </trkpt>
      <trkpt lat="45.75996" lon="6.53885">
        <ele>1705.608</ele>
        <time>2022-08-20T09:39:58Z</time>
      </trkpt>
      <trkpt lat="45.75996" lon="6.53888">
        <ele>1707.208</ele>
        <time>2022-08-20T09:40:08Z</time>
      </trkpt>
      <trkpt lat="45.75996" lon="6.53884">
        <ele>1706.541</ele>
        <time>2022-08-20T09:40:18Z</time>
      </trkpt>
      <trkpt lat="45.75995" lon="6.53884">
        <ele>1708.811</ele>
        <time>2022-08-20T09:40:27Z</time>
      </trkpt>
      <trkpt lat="45.75995" lon="6.53884">
        <ele>1709.054</ele>
        <time>2022-08-20T09:40:36Z</time>
      </trkpt>
      <trkpt lat="45.75996" lon="6.53884">
        <ele>1709.05</ele>
        <time>2022-08-20T09:40:46Z</time>
      </trkpt>
      <trkpt lat="45.75996" lon="6.53883">
        <ele>1707.851</ele>
        <time>2022-08-20T09:40:56Z</time>
      </trkpt>
      <trkpt lat="45.76001" lon="6.53863">
        <ele>1703.671</ele>
        <time>2022-08-20T09:41:06Z</time>
      </trkpt>
      <trkpt lat="45.76045" lon="6.53805">
        <ele>1698.483</ele>
        <time>2022-08-20T09:41:16Z</time>
      </trkpt>
      <trkpt lat="45.7603" lon="6.53714">
        <ele>1689.699</ele>
        <time>2022-08-20T09:41:26Z</time>
      </trkpt>
      <trkpt lat="45.76046" lon="6.53631">
        <ele>1685.154</ele>
        <time>2022-08-20T09:41:35Z</time>
      </trkpt>
      <trkpt lat="45.7602" lon="6.53586">
        <ele>1678.207</ele>
        <time>2022-08-20T09:41:44Z</time>
      </trkpt>
      <trkpt lat="45.75992" lon="6.53569">
        <ele>1669.545</ele>
        <time>2022-08-20T09:41:53Z</time>
      </trkpt>
      <trkpt lat="45.75955" lon="6.53543">
        <ele>1667.332</ele>
        <time>2022-08-20T09:42:03Z</time>
      </trkpt>
      <trkpt lat="45.75956" lon="6.53546">
        <ele>1667.1</ele>
        <time>2022-08-20T09:42:13Z</time>
      </trkpt>
      <trkpt lat="45.75936" lon="6.53508">
        <ele>1664.975</ele>
        <time>2022-08-20T09:42:22Z</time>
      </trkpt>
      <trkpt lat="45.75902" lon="6.53476">
        <ele>1663.81</ele>
        <time>2022-08-20T09:42:32Z</time>
      </trkpt>
      <trkpt lat="45.75846" lon="6.53408">
        <ele>1654.128</ele>
        <time>2022-08-20T09:42:42Z</time>
      </trkpt>
      <trkpt lat="45.75793" lon="6.53356">
        <ele>1651.313</ele>
        <time>2022-08-20T09:42:51Z</time>
      </trkpt>
      <trkpt lat="45.75782" lon="6.53394">
        <ele>1647.154</ele>
        <time>2022-08-20T09:43:01Z</time>
      </trkpt>
      <trkpt lat="45.75726" lon="6.53454">
        <ele>1638.723</ele>
        <time>2022-08-20T09:43:10Z</time>
      </trkpt>
      <trkpt lat="45.75663" lon="6.53509">
        <ele>1629.475</ele>
        <time>2022-08-20T09:43:19Z</time>
      </trkpt>
      <trkpt lat="45.75624" lon="6.5354">
        <ele>1626.991</ele>
        <time>2022-08-20T09:43:29Z</time>
      </trkpt>
      <trkpt lat="45.75608" lon="6.53607">
        <ele>1623.005</ele>
        <time>2022-08-20T09:43:39Z</time>
      </trkpt>
      <trkpt lat="45.75555" lon="6.53563">
        <ele>1619.625</ele>
        <time>2022-08-20T09:43:49Z</time>
      </trkpt>
      <trkpt lat="45.75519" lon="6.53499">
        <ele>1620.343</ele>
        <time>2022-08-20T09:43:58Z</time>
      </trkpt>
      <trkpt lat="45.75505" lon="6.53489">
        <ele>1619.28</ele>
        <time>2022-08-20T09:44:07Z</time>
      </trkpt>
      <trkpt lat="45.75464" lon="6.53445">
        <ele>1613.377</ele>
        <time>2022-08-20T09:44:16Z</time>
      </trkpt>
      <trkpt lat="45.75467" lon="6.53356">
        <ele>1614.688</ele>
        <time>2022-08-20T09:44:26Z</time>
      </trkpt>
      <trkpt lat="45.75509" lon="6.5335">
        <ele>1615.732</ele>
        <time>2022-08-20T09:44:35Z</time>
      </trkpt>
      <trkpt lat="45.75518" lon="6.53346">
        <ele>1617.182</ele>
        <time>2022-08-20T09:44:45Z</time>
      </trkpt>
      <trkpt lat="45.75515" lon="6.53331">
        <ele>1619.164</ele>
        <time>2022-08-20T09:44:55Z</time>
      </trkpt>
      <trkpt lat="45.75513" lon="6.53323">
        <ele>1618.147</ele>
        <time>2022-08-20T09:45:05Z</time>
      </trkpt>
      <trkpt lat="45.75512" lon="6.53318">
        <ele>1616.906</ele>
        <time>2022-08-20T09:45:14Z</time>
      </trkpt>
      <trkpt lat="45.75509" lon="6.53316">
        <ele>1615.709</ele>
        <time>2022-08-20T09:45:24Z</time>
      </trkpt>
      <trkpt lat="45.75501" lon="6.53284">
        <ele>1618.39</ele>
        <time>2022-08-20T09:45:33Z</time>
      </trkpt>
      <trkpt lat="45.7549" lon="6.53245">
        <ele>1626.581</ele>
        <time>2022-08-20T09:45:43Z</time>
      </trkpt>
      <trkpt lat="45.75479" lon="6.53205">
        <ele>1630.252</ele>
        <time>2022-08-20T09:45:53Z</time>
      </trkpt>
      <trkpt lat="45.75466" lon="6.53163">
        <ele>1634.348</ele>
        <time>2022-08-20T09:46:03Z</time>
      </trkpt>
      <trkpt lat="45.75455" lon="6.53127">
        <ele>1638.335</ele>
        <time>2022-08-20T09:46:12Z</time>
      </trkpt>
      <trkpt lat="45.75443" lon="6.53086">
        <ele>1644.771</ele>
        <time>2022-08-20T09:46:22Z</time>
      </trkpt>
      <trkpt lat="45.75431" lon="6.53045">
        <ele>1646.033</ele>
        <time>2022-08-20T09:46:32Z</time>
      </trkpt>
      <trkpt lat="45.75419" lon="6.53007">
        <ele>1648.242</ele>
        <time>2022-08-20T09:46:41Z</time>
      </trkpt>
      <trkpt lat="45.75407" lon="6.52966">
        <ele>1650.016</ele>
        <time>2022-08-20T09:46:51Z</time>
      </trkpt>
      <trkpt lat="45.75395" lon="6.52925">
        <ele>1652.045</ele>
        <time>2022-08-20T09:47:01Z</time>
      </trkpt>
      <trkpt lat="45.75383" lon="6.52884">
        <ele>1655.928</ele>
        <time>2022-08-20T09:47:11Z</time>
      </trkpt>
      <trkpt lat="45.75373" lon="6.52847">
        <ele>1659.483</ele>
        <time>2022-08-20T09:47:20Z</time>
      </trkpt>
      <trkpt lat="45.75361" lon="6.52807">
        <ele>1664.116</ele>
        <time>2022-08-20T09:47:30Z</time>
      </trkpt>
      <trkpt lat="45.75348" lon="6.52766">
        <ele>1669.096</ele>
        <time>2022-08-20T09:47:40Z</time>
      </trkpt>
      <trkpt lat="45.75336" lon="6.52725">
        <ele>1676.07</ele>
        <time>2022-08-20T09:47:50Z</time>
      </trkpt>
      <trkpt lat="45.75326" lon="6.52689">
        <ele>1682.634</ele>
        <time>2022-08-20T09:47:59Z</time>
      </trkpt>
      <trkpt lat="45.75313" lon="6.52648">
        <ele>1689.525</ele>
        <time>2022-08-20T09:48:09Z</time>
      </trkpt>
      <trkpt lat="45.75303" lon="6.52612">
        <ele>1697.059</ele>
        <time>2022-08-20T09:48:18Z</time>
      </trkpt>
      <trkpt lat="45.75292" lon="6.52576">
        <ele>1705.148</ele>
        <time>2022-08-20T09:48:27Z</time>
      </trkpt>
      <trkpt lat="45.7528" lon="6.52535">
        <ele>1713.894</ele>
        <time>2022-08-20T09:48:37Z</time>
      </trkpt>
      <trkpt lat="45.75268" lon="6.52494">
        <ele>1717.812</ele>
        <time>2022-08-20T09:48:47Z</time>
      </trkpt>
      <trkpt lat="45.75255" lon="6.52453">
        <ele>1722.645</ele>
        <time>2022-08-20T09:48:57Z</time>
      </trkpt>
      <trkpt lat="45.75245" lon="6.52417">
        <ele>1727.959</ele>
        <time>2022-08-20T09:49:06Z</time>
      </trkpt>
      <trkpt lat="45.75232" lon="6.52377">
        <ele>1733.941</ele>
        <time>2022-08-20T09:49:16Z</time>
      </trkpt>
      <trkpt lat="45.7522" lon="6.52335">
        <ele>1737.765</ele>
        <time>2022-08-20T09:49:26Z</time>
      </trkpt>
      <trkpt lat="45.75208" lon="6.52295">
        <ele>1743.37</ele>
        <time>2022-08-20T09:49:36Z</time>
      </trkpt>
      <trkpt lat="45.75196" lon="6.52254">
        <ele>1750.036</ele>
        <time>2022-08-20T09:49:46Z</time>
      </trkpt>
      <trkpt lat="45.75185" lon="6.52218">
        <ele>1755.274</ele>
        <time>2022-08-20T09:49:55Z</time>
      </trkpt>
      <trkpt lat="45.75173" lon="6.52177">
        <ele>1762.79</ele>
        <time>2022-08-20T09:50:05Z</time>
      </trkpt>
      <trkpt lat="45.75161" lon="6.52137">
        <ele>1770.683</ele>
        <time>2022-08-20T09:50:15Z</time>
      </trkpt>
      <trkpt lat="45.75149" lon="6.52097">
        <ele>1778.851</ele>
        <time>2022-08-20T09:50:25Z</time>
      </trkpt>
      <trkpt lat="45.75137" lon="6.52057">
        <ele>1787.084</ele>
        <time>2022-08-20T09:50:35Z</time>
      </trkpt>
      <trkpt lat="45.75127" lon="6.52021">
        <ele>1794.24</ele>
        <time>2022-08-20T09:50:44Z</time>
      </trkpt>
      <trkpt lat="45.75114" lon="6.5198">
        <ele>1798.63</ele>
        <time>2022-08-20T09:50:54Z</time>
      </trkpt>
      <trkpt lat="45.75101" lon="6.51938">
        <ele>1802.476</ele>
        <time>2022-08-20T09:51:04Z</time>
      </trkpt>
      <trkpt lat="45.75089" lon="6.51898">
        <ele>1808.498</ele>
        <time>2022-08-20T09:51:14Z</time>
      </trkpt>
      <trkpt lat="45.75078" lon="6.51858">
        <ele>1814.135</ele>
        <time>2022-08-20T09:51:24Z</time>
      </trkpt>
      <trkpt lat="45.75066" lon="6.51817">
        <ele>1819.959</ele>
        <time>2022-08-20T09:51:34Z</time>
      </trkpt>
      <trkpt lat="45.75055" lon="6.5178">
        <ele>1822.804</ele>
        <time>2022-08-20T09:51:43Z</time>
      </trkpt>
      <trkpt lat="45.75043" lon="6.51739">
        <ele>1827.103</ele>
        <time>2022-08-20T09:51:53Z</time>
      </trkpt>
      <trkpt lat="45.75031" lon="6.51698">
        <ele>1832.694</ele>
        <time>2022-08-20T09:52:03Z</time>
      </trkpt>
      <trkpt lat="45.75019" lon="6.51657">
        <ele>1839.041</ele>
        <time>2022-08-20T09:52:13Z</time>
      </trkpt>
      <trkpt lat="45.75008" lon="6.51621">
        <ele>1844.133</ele>
        <time>2022-08-20T09:52:22Z</time>
      </trkpt>
      <trkpt lat="45.74997" lon="6.51584">
        <ele>1847.84</ele>
        <time>2022-08-20T09:52:31Z</time>
      </trkpt>
      <trkpt lat="45.74985" lon="6.51544">
        <ele>1852.037</ele>
        <time>2022-08-20T09:52:41Z</time>
      </trkpt>
      <trkpt lat="45.74973" lon="6.51504">
        <ele>1856.958</ele>
        <time>2022-08-20T09:52:51Z</time>
      </trkpt>
      <trkpt lat="45.74961" lon="6.51463">
        <ele>1862.113</ele>
        <time>2022-08-20T09:53:01Z</time>
      </trkpt>
      <trkpt lat="45.7495" lon="6.51426">
        <ele>1864.556</ele>
        <time>2022-08-20T09:53:10Z</time>
      </trkpt>
      <trkpt lat="45.74938" lon="6.51385">
        <ele>1868.723</ele>
        <time>2022-08-20T09:53:20Z</time>
      </trkpt>
      <trkpt lat="45.74925" lon="6.51343">
        <ele>1873.072</ele>
        <time>2022-08-20T09:53:30Z</time>
      </trkpt>
      <trkpt lat="45.74913" lon="6.51302">
        <ele>1877.98</ele>
        <time>2022-08-20T09:53:40Z</time>
      </trkpt>
      <trkpt lat="45.74903" lon="6.51266">
        <ele>1883.883</ele>
        <time>2022-08-20T09:53:49Z</time>
      </trkpt>
      <trkpt lat="45.74892" lon="6.5123">
        <ele>1890.183</ele>
        <time>2022-08-20T09:53:58Z</time>
      </trkpt>
      <trkpt lat="45.7488" lon="6.51189">
        <ele>1896.021</ele>
        <time>2022-08-20T09:54:08Z</time>
      </trkpt>
      <trkpt lat="45.74869" lon="6.51152">
        <ele>1900.66</ele>
        <time>2022-08-20T09:54:17Z</time>
      </trkpt>
      <trkpt lat="45.74857" lon="6.51116">
        <ele>1906.377</ele>
        <time>2022-08-20T09:54:26Z</time>
      </trkpt>
      <trkpt lat="45.74847" lon="6.51079">
        <ele>1912</ele>
        <time>2022-08-20T09:54:35Z</time>
      </trkpt>
      <trkpt lat="45.74835" lon="6.5104">
        <ele>1918.466</ele>
        <time>2022-08-20T09:54:45Z</time>
      </trkpt>
      <trkpt lat="45.74823" lon="6.50999">
        <ele>1925.178</ele>
        <time>2022-08-20T09:54:55Z</time>
      </trkpt>
      <trkpt lat="45.7481" lon="6.50958">
        <ele>1930.969</ele>
        <time>2022-08-20T09:55:05Z</time>
      </trkpt>
      <trkpt lat="45.74799" lon="6.50921">
        <ele>1935.339</ele>
        <time>2022-08-20T09:55:14Z</time>
      </trkpt>
      <trkpt lat="45.74789" lon="6.50884">
        <ele>1939.571</ele>
        <time>2022-08-20T09:55:23Z</time>
      </trkpt>
      <trkpt lat="45.74778" lon="6.50847">
        <ele>1943.952</ele>
        <time>2022-08-20T09:55:32Z</time>
      </trkpt>
      <trkpt lat="45.74769" lon="6.50817">
        <ele>1945.988</ele>
        <time>2022-08-20T09:55:42Z</time>
      </trkpt>
      <trkpt lat="45.74763" lon="6.50796">
        <ele>1943.536</ele>
        <time>2022-08-20T09:55:52Z</time>
      </trkpt>
      <trkpt lat="45.74757" lon="6.50774">
        <ele>1942.726</ele>
        <time>2022-08-20T09:56:02Z</time>
      </trkpt>
      <trkpt lat="45.74756" lon="6.50773">
        <ele>1942.317</ele>
        <time>2022-08-20T09:56:11Z</time>
      </trkpt>
      <trkpt lat="45.74756" lon="6.50773">
        <ele>1942.314</ele>
        <time>2022-08-20T09:56:20Z</time>
      </trkpt>
      <trkpt lat="45.74756" lon="6.50773">
        <ele>1942.299</ele>
        <time>2022-08-20T09:56:30Z</time>
      </trkpt>
      <trkpt lat="45.74756" lon="6.50773">
        <ele>1942.351</ele>
        <time>2022-08-20T09:56:40Z</time>
      </trkpt>
      <trkpt lat="45.74756" lon="6.50774">
        <ele>1942.487</ele>
        <time>2022-08-20T09:56:49Z</time>
      </trkpt>
      <trkpt lat="45.74756" lon="6.50773">
        <ele>1942.065</ele>
        <time>2022-08-20T09:56:58Z</time>
      </trkpt>
      <trkpt lat="45.74756" lon="6.50773">
        <ele>1942.057</ele>
        <time>2022-08-20T09:57:08Z</time>
      </trkpt>
      <trkpt lat="45.74756" lon="6.50773">
        <ele>1942.052</ele>
        <time>2022-08-20T09:57:17Z</time>
      </trkpt>
      <trkpt lat="45.74756" lon="6.50773">
        <ele>1942.048</ele>
        <time>2022-08-20T09:57:26Z</time>
      </trkpt>
      <trkpt lat="45.74756" lon="6.50773">
        <ele>1942.048</ele>
        <time>2022-08-20T09:57:36Z</time>
      </trkpt>
      <trkpt lat="45.74756" lon="6.50773">
        <ele>1942.043</ele>
        <time>2022-08-20T09:57:46Z</time>
      </trkpt>
      <trkpt lat="45.74756" lon="6.50773">
        <ele>1942.044</ele>
        <time>2022-08-20T09:57:56Z</time>
      </trkpt>
      <trkpt lat="45.74756" lon="6.50773">
        <ele>1942.036</ele>
        <time>2022-08-20T09:58:06Z</time>
      </trkpt>
      <trkpt lat="45.74753" lon="6.50761">
        <ele>1941.689</ele>
        <time>2022-08-20T09:58:15Z</time>
      </trkpt>
      <trkpt lat="45.74736" lon="6.50728">
        <ele>1939.53</ele>
        <time>2022-08-20T09:58:24Z</time>
      </trkpt>
      <trkpt lat="45.74728" lon="6.50698">
        <ele>1938.893</ele>
        <time>2022-08-20T09:58:34Z</time>
      </trkpt>
      <trkpt lat="45.74728" lon="6.50695">
        <ele>1939.092</ele>
        <time>2022-08-20T09:58:43Z</time>
      </trkpt>
      <trkpt lat="45.74728" lon="6.50695">
        <ele>1939.468</ele>
        <time>2022-08-20T09:58:53Z</time>
      </trkpt>
      <trkpt lat="45.74728" lon="6.50695">
        <ele>1939.462</ele>
        <time>2022-08-20T09:59:03Z</time>
      </trkpt>
      <trkpt lat="45.74728" lon="6.50695">
        <ele>1939.782</ele>
        <time>2022-08-20T09:59:12Z</time>
      </trkpt>
      <trkpt lat="45.7473" lon="6.50681">
        <ele>1936.568</ele>
        <time>2022-08-20T09:59:22Z</time>
      </trkpt>
      <trkpt lat="45.74742" lon="6.50686">
        <ele>1936.441</ele>
        <time>2022-08-20T09:59:32Z</time>
      </trkpt>
      <trkpt lat="45.74754" lon="6.50693">
        <ele>1934.527</ele>
        <time>2022-08-20T09:59:41Z</time>
      </trkpt>
      <trkpt lat="45.74783" lon="6.50728">
        <ele>1933.098</ele>
        <time>2022-08-20T09:59:50Z</time>
      </trkpt>
      <trkpt lat="45.74801" lon="6.50801">
        <ele>1927.538</ele>
        <time>2022-08-20T10:00:00Z</time>
      </trkpt>
      <trkpt lat="45.74817" lon="6.50899">
        <ele>1920.663</ele>
        <time>2022-08-20T10:00:10Z</time>
      </trkpt>
      <trkpt lat="45.74802" lon="6.5099">
        <ele>1918.071</ele>
        <time>2022-08-20T10:00:20Z</time>
      </trkpt>
      <trkpt lat="45.74845" lon="6.5098">
        <ele>1912.074</ele>
        <time>2022-08-20T10:00:29Z</time>
      </trkpt>
      <trkpt lat="45.74825" lon="6.51043">
        <ele>1907.247</ele>
        <time>2022-08-20T10:00:39Z</time>
      </trkpt>
      <trkpt lat="45.74804" lon="6.51092">
        <ele>1902.659</ele>
        <time>2022-08-20T10:00:48Z</time>
      </trkpt>
      <trkpt lat="45.74872" lon="6.51062">
        <ele>1896.307</ele>
        <time>2022-08-20T10:00:58Z</time>
      </trkpt>
      <trkpt lat="45.74875" lon="6.51141">
        <ele>1890.913</ele>
        <time>2022-08-20T10:01:07Z</time>
      </trkpt>
      <trkpt lat="45.74813" lon="6.51184">
        <ele>1884.655</ele>
        <time>2022-08-20T10:01:17Z</time>
      </trkpt>
      <trkpt lat="45.74777" lon="6.51188">
        <ele>1880.372</ele>
        <time>2022-08-20T10:01:26Z</time>
      </trkpt>
      <trkpt lat="45.74787" lon="6.51229">
        <ele>1873.498</ele>
        <time>2022-08-20T10:01:36Z</time>
      </trkpt>
      <trkpt lat="45.74791" lon="6.51298">
        <ele>1868.087</ele>
        <time>2022-08-20T10:01:46Z</time>
      </trkpt>
      <trkpt lat="45.74802" lon="6.5139">
        <ele>1860.487</ele>
        <time>2022-08-20T10:01:55Z</time>
      </trkpt>
      <trkpt lat="45.74815" lon="6.51488">
        <ele>1857.984</ele>
        <time>2022-08-20T10:02:04Z</time>
      </trkpt>
      <trkpt lat="45.74832" lon="6.51587">
        <ele>1850.484</ele>
        <time>2022-08-20T10:02:14Z</time>
      </trkpt>
      <trkpt lat="45.74838" lon="6.5167">
        <ele>1842.976</ele>
        <time>2022-08-20T10:02:23Z</time>
      </trkpt>
      <trkpt lat="45.74823" lon="6.5168">
        <ele>1839.747</ele>
        <time>2022-08-20T10:02:33Z</time>
      </trkpt>
      <trkpt lat="45.74841" lon="6.51764">
        <ele>1829.802</ele>
        <time>2022-08-20T10:02:42Z</time>
      </trkpt>
      <trkpt lat="45.74824" lon="6.51773">
        <ele>1821.783</ele>
        <time>2022-08-20T10:02:52Z</time>
      </trkpt>
      <trkpt lat="45.74816" lon="6.51799">
        <ele>1815.532</ele>
        <time>2022-08-20T10:03:02Z</time>
      </trkpt>
      <trkpt lat="45.74833" lon="6.51887">
        <ele>1809.462</ele>
        <time>2022-08-20T10:03:12Z</time>
      </trkpt>
      <trkpt lat="45.74833" lon="6.51888">
        <ele>1810.105</ele>
        <time>2022-08-20T10:03:22Z</time>
      </trkpt>
      <trkpt lat="45.74833" lon="6.51888">
        <ele>1810.183</ele>
        <time>2022-08-20T10:03:32Z</time>
      </trkpt>
      <trkpt lat="45.74833" lon="6.51888">
        <ele>1810.191</ele>
        <time>2022-08-20T10:03:42Z</time>
      </trkpt>
      <trkpt lat="45.74833" lon="6.51888">
        <ele>1810.201</ele>
        <time>2022-08-20T10:03:51Z</time>
      </trkpt>
      <trkpt lat="45.74833" lon="6.51888">
        <ele>1810.207</ele>
        <time>2022-08-20T10:04:01Z</time>
      </trkpt>
      <trkpt lat="45.74833" lon="6.51888">
        <ele>1810.212</ele>
        <time>2022-08-20T10:04:11Z</time>
      </trkpt>
      <trkpt lat="45.74833" lon="6.51888">
        <ele>1810.214</ele>
        <time>2022-08-20T10:04:20Z</time>
      </trkpt>
      <trkpt lat="45.74833" lon="6.51888">
        <ele>1810.224</ele>
        <time>2022-08-20T10:04:30Z</time>
      </trkpt>
      <trkpt lat="45.74831" lon="6.51886">
        <ele>1808.723</ele>
        <time>2022-08-20T10:04:39Z</time>
      </trkpt>
      <trkpt lat="45.74831" lon="6.51887">
        <ele>1809.202</ele>
        <time>2022-08-20T10:04:48Z</time>
      </trkpt>
      <trkpt lat="45.74831" lon="6.51888">
        <ele>1809.344</ele>
        <time>2022-08-20T10:04:58Z</time>
      </trkpt>
      <trkpt lat="45.74831" lon="6.51888">
        <ele>1809.78</ele>
        <time>2022-08-20T10:05:08Z</time>
      </trkpt>
      <trkpt lat="45.74831" lon="6.51888">
        <ele>1810.894</ele>
        <time>2022-08-20T10:05:18Z</time>
      </trkpt>
      <trkpt lat="45.74832" lon="6.51888">
        <ele>1811.017</ele>
        <time>2022-08-20T10:05:28Z</time>
      </trkpt>
      <trkpt lat="45.74832" lon="6.51888">
        <ele>1811.022</ele>
        <time>2022-08-20T10:05:38Z</time>
      </trkpt>
      <trkpt lat="45.74832" lon="6.51895">
        <ele>1808.472</ele>
        <time>2022-08-20T10:05:48Z</time>
      </trkpt>
      <trkpt lat="45.74819" lon="6.51919">
        <ele>1801.254</ele>
        <time>2022-08-20T10:05:57Z</time>
      </trkpt>
      <trkpt lat="45.748" lon="6.51896">
        <ele>1798.292</ele>
        <time>2022-08-20T10:06:06Z</time>
      </trkpt>
      <trkpt lat="45.74804" lon="6.51986">
        <ele>1795.891</ele>
        <time>2022-08-20T10:06:15Z</time>
      </trkpt>
      <trkpt lat="45.74789" lon="6.52091">
        <ele>1787.574</ele>
        <time>2022-08-20T10:06:25Z</time>
      </trkpt>
      <trkpt lat="45.7479" lon="6.52176">
        <ele>1781.04</ele>
        <time>2022-08-20T10:06:35Z</time>
      </trkpt>
      <trkpt lat="45.74758" lon="6.52259">
        <ele>1770.104</ele>
        <time>2022-08-20T10:06:45Z</time>
      </trkpt>
      <trkpt lat="45.74735" lon="6.5235">
        <ele>1766.723</ele>
        <time>2022-08-20T10:06:54Z</time>
      </trkpt>
      <trkpt lat="45.74707" lon="6.52434">
        <ele>1759.405</ele>
        <time>2022-08-20T10:07:04Z</time>
      </trkpt>
      <trkpt lat="45.74689" lon="6.52529">
        <ele>1754.245</ele>
        <time>2022-08-20T10:07:14Z</time>
      </trkpt>
      <trkpt lat="45.74695" lon="6.52639">
        <ele>1744.639</ele>
        <time>2022-08-20T10:07:23Z</time>
      </trkpt>
      <trkpt lat="45.74677" lon="6.52693">
        <ele>1741.137</ele>
        <time>2022-08-20T10:07:33Z</time>
      </trkpt>
      <trkpt lat="45.74668" lon="6.52759">
        <ele>1736.978</ele>
        <time>2022-08-20T10:07:42Z</time>
      </trkpt>
      <trkpt lat="45.74683" lon="6.52787">
        <ele>1736.167</ele>
        <time>2022-08-20T10:07:52Z</time>
      </trkpt>
      <trkpt lat="45.74684" lon="6.52786">
        <ele>1736.416</ele>
        <time>2022-08-20T10:08:02Z</time>
      </trkpt>
      <trkpt lat="45.74684" lon="6.52786">
        <ele>1735.684</ele>
        <time>2022-08-20T10:08:11Z</time>
      </trkpt>
      <trkpt lat="45.74684" lon="6.52786">
        <ele>1735.649</ele>
        <time>2022-08-20T10:08:21Z</time>
      </trkpt>
      <trkpt lat="45.74684" lon="6.52786">
        <ele>1735.65</ele>
        <time>2022-08-20T10:08:30Z</time>
      </trkpt>
      <trkpt lat="45.74684" lon="6.52786">
        <ele>1735.644</ele>
        <time>2022-08-20T10:08:39Z</time>
      </trkpt>
      <trkpt lat="45.74684" lon="6.52786">
        <ele>1735.665</ele>
        <time>2022-08-20T10:08:49Z</time>
      </trkpt>
      <trkpt lat="45.74684" lon="6.52786">
        <ele>1735.663</ele>
        <time>2022-08-20T10:08:58Z</time>
      </trkpt>
      <trkpt lat="45.74682" lon="6.52794">
        <ele>1735.306</ele>
        <time>2022-08-20T10:09:08Z</time>
      </trkpt>
      <trkpt lat="45.74681" lon="6.5285">
        <ele>1731.323</ele>
        <time>2022-08-20T10:09:17Z</time>
      </trkpt>
      <trkpt lat="45.74692" lon="6.52928">
        <ele>1730.762</ele>
        <time>2022-08-20T10:09:27Z</time>
      </trkpt>
      <trkpt lat="45.74691" lon="6.53009">
        <ele>1729.934</ele>
        <time>2022-08-20T10:09:36Z</time>
      </trkpt>
      <trkpt lat="45.74736" lon="6.53063">
        <ele>1728.861</ele>
        <time>2022-08-20T10:09:46Z</time>
      </trkpt>
      <trkpt lat="45.74783" lon="6.53051">
        <ele>1727.16</ele>
        <time>2022-08-20T10:09:55Z</time>
      </trkpt>
      <trkpt lat="45.74807" lon="6.53077">
        <ele>1719.78</ele>
        <time>2022-08-20T10:10:05Z</time>
      </trkpt>
      <trkpt lat="45.74796" lon="6.53161">
        <ele>1714.411</ele>
        <time>2022-08-20T10:10:15Z</time>
      </trkpt>
      <trkpt lat="45.74838" lon="6.53157">
        <ele>1711.8</ele>
        <time>2022-08-20T10:10:24Z</time>
      </trkpt>
      <trkpt lat="45.74857" lon="6.53194">
        <ele>1704.619</ele>
        <time>2022-08-20T10:10:33Z</time>
      </trkpt>
      <trkpt lat="45.74845" lon="6.53252">
        <ele>1696.846</ele>
        <time>2022-08-20T10:10:42Z</time>
      </trkpt>
      <trkpt lat="45.74889" lon="6.53269">
        <ele>1688.806</ele>
        <time>2022-08-20T10:10:52Z</time>
      </trkpt>
      <trkpt lat="45.74894" lon="6.53338">
        <ele>1682.714</ele>
        <time>2022-08-20T10:11:01Z</time>
      </trkpt>
      <trkpt lat="45.74917" lon="6.53356">
        <ele>1676.73</ele>
        <time>2022-08-20T10:11:10Z</time>
      </trkpt>
      <trkpt lat="45.74882" lon="6.53427">
        <ele>1671.91</ele>
        <time>2022-08-20T10:11:20Z</time>
      </trkpt>
      <trkpt lat="45.74838" lon="6.53494">
        <ele>1667.955</ele>
        <time>2022-08-20T10:11:30Z</time>
      </trkpt>
      <trkpt lat="45.74832" lon="6.53562">
        <ele>1661.834</ele>
        <time>2022-08-20T10:11:40Z</time>
      </trkpt>
      <trkpt lat="45.74834" lon="6.53564">
        <ele>1659.888</ele>
        <time>2022-08-20T10:11:49Z</time>
      </trkpt>
      <trkpt lat="45.74834" lon="6.53564">
        <ele>1659.295</ele>
        <time>2022-08-20T10:11:58Z</time>
      </trkpt>
      <trkpt lat="45.74834" lon="6.53564">
        <ele>1659.296</ele>
        <time>2022-08-20T10:12:07Z</time>
      </trkpt>
      <trkpt lat="45.74834" lon="6.53564">
        <ele>1659.309</ele>
        <time>2022-08-20T10:12:17Z</time>
      </trkpt>
      <trkpt lat="45.74834" lon="6.53564">
        <ele>1659.324</ele>
        <time>2022-08-20T10:12:27Z</time>
      </trkpt>
      <trkpt lat="45.74834" lon="6.53564">
        <ele>1659.331</ele>
        <time>2022-08-20T10:12:36Z</time>
      </trkpt>
      <trkpt lat="45.74834" lon="6.53564">
        <ele>1659.35</ele>
        <time>2022-08-20T10:12:45Z</time>
      </trkpt>
      <trkpt lat="45.74834" lon="6.53564">
        <ele>1659.364</ele>
        <time>2022-08-20T10:12:55Z</time>
      </trkpt>
      <trkpt lat="45.74834" lon="6.53564">
        <ele>1659.374</ele>
        <time>2022-08-20T10:13:05Z</time>
      </trkpt>
      <trkpt lat="45.74834" lon="6.53564">
        <ele>1659.382</ele>
        <time>2022-08-20T10:13:14Z</time>
      </trkpt>
      <trkpt lat="45.74834" lon="6.53564">
        <ele>1659.392</ele>
        <time>2022-08-20T10:13:23Z</time>
      </trkpt>
      <trkpt lat="45.74834" lon="6.53564">
        <ele>1659.398</ele>
        <time>2022-08-20T10:13:33Z</time>
      </trkpt>
      <trkpt lat="45.74834" lon="6.53564">
        <ele>1659.408</ele>
        <time>2022-08-20T10:13:43Z</time>
      </trkpt>
      <trkpt lat="45.74834" lon="6.53564">
        <ele>1659.454</ele>
        <time>2022-08-20T10:13:52Z</time>
      </trkpt>
      <trkpt lat="45.74834" lon="6.53564">
        <ele>1659.456</ele>
        <time>2022-08-20T10:14:02Z</time>
      </trkpt>
      <trkpt lat="45.74834" lon="6.53564">
        <ele>1659.459</ele>
        <time>2022-08-20T10:14:12Z</time>
      </trkpt>
      <trkpt lat="45.74834" lon="6.53564">
        <ele>1659.512</ele>
        <time>2022-08-20T10:14:21Z</time>
      </trkpt>
      <trkpt lat="45.74834" lon="6.53564">
        <ele>1659.526</ele>
        <time>2022-08-20T10:14:31Z</time>
      </trkpt>
      <trkpt lat="45.74834" lon="6.53564">
        <ele>1659.533</ele>
        <time>2022-08-20T10:14:40Z</time>
      </trkpt>
      <trkpt lat="45.74834" lon="6.53564">
        <ele>1659.588</ele>
        <time>2022-08-20T10:14:50Z</time>
      </trkpt>
      <trkpt lat="45.74834" lon="6.53564">
        <ele>1659.608</ele>
        <time>2022-08-20T10:15:00Z</time>
      </trkpt>
      <trkpt lat="45.74834" lon="6.53564">
        <ele>1659.607</ele>
        <time>2022-08-20T10:15:09Z</time>
      </trkpt>
      <trkpt lat="45.74834" lon="6.53564">
        <ele>1659.606</ele>
        <time>2022-08-20T10:15:18Z</time>
      </trkpt>
      <trkpt lat="45.74834" lon="6.53564">
        <ele>1659.606</ele>
        <time>2022-08-20T10:15:28Z</time>
      </trkpt>
      <trkpt lat="45.7486" lon="6.5357">
        <ele>1658.776</ele>
        <time>2022-08-20T10:15:37Z</time>
      </trkpt>
      <trkpt lat="45.74918" lon="6.53554">
        <ele>1654.962</ele>
        <time>2022-08-20T10:15:46Z</time>
      </trkpt>
      <trkpt lat="45.74985" lon="6.5354">
        <ele>1649.631</ele>
        <time>2022-08-20T10:15:56Z</time>
      </trkpt>
      <trkpt lat="45.75024" lon="6.53585">
        <ele>1646.626</ele>
        <time>2022-08-20T10:16:05Z</time>
      </trkpt>
      <trkpt lat="45.75084" lon="6.53579">
        <ele>1638.312</ele>
        <time>2022-08-20T10:16:15Z</time>
      </trkpt>
      <trkpt lat="45.75134" lon="6.53577">
        <ele>1638.261</ele>
        <time>2022-08-20T10:16:24Z</time>
      </trkpt>
      <trkpt lat="45.75135" lon="6.53577">
        <ele>1637.084</ele>
        <time>2022-08-20T10:16:34Z</time>
      </trkpt>
      <trkpt lat="45.75135" lon="6.53576">
        <ele>1636.672</ele>
        <time>2022-08-20T10:16:43Z</time>
      </trkpt>
      <trkpt lat="45.75135" lon="6.53576">
        <ele>1636.259</ele>
        <time>2022-08-20T10:16:53Z</time>
      </trkpt>
      <trkpt lat="45.75135" lon="6.53576">
        <ele>1636.218</ele>
        <time>2022-08-20T10:17:02Z</time>
      </trkpt>
      <trkpt lat="45.75135" lon="6.53576">
        <ele>1636.212</ele>
        <time>2022-08-20T10:17:12Z</time>
      </trkpt>
      <trkpt lat="45.75135" lon="6.53576">
        <ele>1636.196</ele>
        <time>2022-08-20T10:17:21Z</time>
      </trkpt>
      <trkpt lat="45.75135" lon="6.53576">
        <ele>1636.211</ele>
        <time>2022-08-20T10:17:31Z</time>
      </trkpt>
      <trkpt lat="45.75135" lon="6.53576">
        <ele>1636.235</ele>
        <time>2022-08-20T10:17:40Z</time>
      </trkpt>
      <trkpt lat="45.75135" lon="6.53576">
        <ele>1636.245</ele>
        <time>2022-08-20T10:17:50Z</time>
      </trkpt>
      <trkpt lat="45.75135" lon="6.53576">
        <ele>1636.262</ele>
        <time>2022-08-20T10:18:00Z</time>
      </trkpt>
      <trkpt lat="45.75136" lon="6.53573">
        <ele>1634.395</ele>
        <time>2022-08-20T10:18:10Z</time>
      </trkpt>
      <trkpt lat="45.75159" lon="6.5354">
        <ele>1631.371</ele>
        <time>2022-08-20T10:18:20Z</time>
      </trkpt>
      <trkpt lat="45.7521" lon="6.53504">
        <ele>1629.347</ele>
        <time>2022-08-20T10:18:30Z</time>
      </trkpt>
      <trkpt lat="45.75263" lon="6.53468">
        <ele>1628.081</ele>
        <time>2022-08-20T10:18:40Z</time>
      </trkpt>
      <trkpt lat="45.75319" lon="6.53436">
        <ele>1627.184</ele>
        <time>2022-08-20T10:18:49Z</time>
      </trkpt>
      <trkpt lat="45.75369" lon="6.53398">
        <ele>1624.205</ele>
        <time>2022-08-20T10:18:59Z</time>
      </trkpt>
      <trkpt lat="45.75426" lon="6.53441">
        <ele>1614.427</ele>
        <time>2022-08-20T10:19:09Z</time>
      </trkpt>
      <trkpt lat="45.75461" lon="6.53442">
        <ele>1613.495</ele>
        <time>2022-08-20T10:19:18Z</time>
      </trkpt>
      <trkpt lat="45.75462" lon="6.53384">
        <ele>1613.835</ele>
        <time>2022-08-20T10:19:28Z</time>
      </trkpt>
      <trkpt lat="45.75476" lon="6.53347">
        <ele>1613.163</ele>
        <time>2022-08-20T10:19:37Z</time>
      </trkpt>
      <trkpt lat="45.75509" lon="6.53352">
        <ele>1614.187</ele>
        <time>2022-08-20T10:19:47Z</time>
      </trkpt>
      <trkpt lat="45.75535" lon="6.5337">
        <ele>1616.452</ele>
        <time>2022-08-20T10:19:57Z</time>
      </trkpt>
      <trkpt lat="45.75539" lon="6.53359">
        <ele>1614.933</ele>
        <time>2022-08-20T10:20:06Z</time>
      </trkpt>
      <trkpt lat="45.75538" lon="6.53359">
        <ele>1614.495</ele>
        <time>2022-08-20T10:20:16Z</time>
      </trkpt>
      <trkpt lat="45.75539" lon="6.53359">
        <ele>1614.479</ele>
        <time>2022-08-20T10:20:25Z</time>
      </trkpt>
      <trkpt lat="45.75543" lon="6.53355">
        <ele>1615.918</ele>
        <time>2022-08-20T10:20:34Z</time>
      </trkpt>
      <trkpt lat="45.75547" lon="6.53349">
        <ele>1613.721</ele>
        <time>2022-08-20T10:20:44Z</time>
      </trkpt>
      <trkpt lat="45.75547" lon="6.5335">
        <ele>1612.15</ele>
        <time>2022-08-20T10:20:54Z</time>
      </trkpt>
      <trkpt lat="45.75553" lon="6.53351">
        <ele>1611.272</ele>
        <time>2022-08-20T10:21:04Z</time>
      </trkpt>
      <trkpt lat="45.75572" lon="6.53372">
        <ele>1613.692</ele>
        <time>2022-08-20T10:21:14Z</time>
      </trkpt>
      <trkpt lat="45.75594" lon="6.53393">
        <ele>1623.459</ele>
        <time>2022-08-20T10:21:23Z</time>
      </trkpt>
      <trkpt lat="45.75613" lon="6.53414">
        <ele>1623.77</ele>
        <time>2022-08-20T10:21:32Z</time>
      </trkpt>
      <trkpt lat="45.75636" lon="6.53436">
        <ele>1627.489</ele>
        <time>2022-08-20T10:21:42Z</time>
      </trkpt>
      <trkpt lat="45.75656" lon="6.53457">
        <ele>1631.792</ele>
        <time>2022-08-20T10:21:51Z</time>
      </trkpt>
      <trkpt lat="45.75679" lon="6.53479">
        <ele>1636.17</ele>
        <time>2022-08-20T10:22:01Z</time>
      </trkpt>
      <trkpt lat="45.757" lon="6.53499">
        <ele>1639.59</ele>
        <time>2022-08-20T10:22:10Z</time>
      </trkpt>
      <trkpt lat="45.7572" lon="6.5352">
        <ele>1642.97</ele>
        <time>2022-08-20T10:22:19Z</time>
      </trkpt>
      <trkpt lat="45.75741" lon="6.5354">
        <ele>1646.156</ele>
        <time>2022-08-20T10:22:28Z</time>
      </trkpt>
      <trkpt lat="45.75763" lon="6.53561">
        <ele>1650.886</ele>
        <time>2022-08-20T10:22:38Z</time>
      </trkpt>
      <trkpt lat="45.75784" lon="6.53581">
        <ele>1653.066</ele>
        <time>2022-08-20T10:22:47Z</time>
      </trkpt>
      <trkpt lat="45.75803" lon="6.53601">
        <ele>1657.192</ele>
        <time>2022-08-20T10:22:56Z</time>
      </trkpt>
      <trkpt lat="45.75826" lon="6.53623">
        <ele>1661.362</ele>
        <time>2022-08-20T10:23:06Z</time>
      </trkpt>
      <trkpt lat="45.75849" lon="6.53646">
        <ele>1663.894</ele>
        <time>2022-08-20T10:23:16Z</time>
      </trkpt>
      <trkpt lat="45.75871" lon="6.53668">
        <ele>1669.179</ele>
        <time>2022-08-20T10:23:26Z</time>
      </trkpt>
      <trkpt lat="45.75891" lon="6.53688">
        <ele>1672.379</ele>
        <time>2022-08-20T10:23:35Z</time>
      </trkpt>
      <trkpt lat="45.75911" lon="6.53709">
        <ele>1676.282</ele>
        <time>2022-08-20T10:23:44Z</time>
      </trkpt>
      <trkpt lat="45.75934" lon="6.53731">
        <ele>1682.485</ele>
        <time>2022-08-20T10:23:54Z</time>
      </trkpt>
      <trkpt lat="45.75953" lon="6.53751">
        <ele>1685.677</ele>
        <time>2022-08-20T10:24:03Z</time>
      </trkpt>
      <trkpt lat="45.75973" lon="6.53771">
        <ele>1688.802</ele>
        <time>2022-08-20T10:24:12Z</time>
      </trkpt>
      <trkpt lat="45.75996" lon="6.53793">
        <ele>1694.758</ele>
        <time>2022-08-20T10:24:22Z</time>
      </trkpt>
      <trkpt lat="45.76018" lon="6.53815">
        <ele>1701.577</ele>
        <time>2022-08-20T10:24:32Z</time>
      </trkpt>
      <trkpt lat="45.7604" lon="6.53836">
        <ele>1706.588</ele>
        <time>2022-08-20T10:24:41Z</time>
      </trkpt>
      <trkpt lat="45.76061" lon="6.53856">
        <ele>1712.09</ele>
        <time>2022-08-20T10:24:50Z</time>
      </trkpt>
      <trkpt lat="45.76084" lon="6.53879">
        <ele>1716.897</ele>
        <time>2022-08-20T10:25:00Z</time>
      </trkpt>
      <trkpt lat="45.76103" lon="6.53899">
        <ele>1722.28</ele>
        <time>2022-08-20T10:25:09Z</time>
      </trkpt>
      <trkpt lat="45.76123" lon="6.5392">
        <ele>1729.435</ele>
        <time>2022-08-20T10:25:19Z</time>
      </trkpt>
      <trkpt lat="45.76147" lon="6.53943">
        <ele>1731.215</ele>
        <time>2022-08-20T10:25:29Z</time>
      </trkpt>
      <trkpt lat="45.76168" lon="6.53963">
        <ele>1734.353</ele>
        <time>2022-08-20T10:25:38Z</time>
      </trkpt>
      <trkpt lat="45.76189" lon="6.53983">
        <ele>1734.773</ele>
        <time>2022-08-20T10:25:47Z</time>
      </trkpt>
      <trkpt lat="45.76212" lon="6.54005">
        <ele>1736.531</ele>
        <time>2022-08-20T10:25:57Z</time>
      </trkpt>
      <trkpt lat="45.76233" lon="6.54026">
        <ele>1739.716</ele>
        <time>2022-08-20T10:26:06Z</time>
      </trkpt>
      <trkpt lat="45.76252" lon="6.54046">
        <ele>1747.794</ele>
        <time>2022-08-20T10:26:15Z</time>
      </trkpt>
      <trkpt lat="45.76274" lon="6.54067">
        <ele>1758.355</ele>
        <time>2022-08-20T10:26:25Z</time>
      </trkpt>
      <trkpt lat="45.76293" lon="6.54087">
        <ele>1767.183</ele>
        <time>2022-08-20T10:26:34Z</time>
      </trkpt>
      <trkpt lat="45.76315" lon="6.54108">
        <ele>1776.532</ele>
        <time>2022-08-20T10:26:44Z</time>
      </trkpt>
      <trkpt lat="45.76336" lon="6.54129">
        <ele>1787.824</ele>
        <time>2022-08-20T10:26:54Z</time>
      </trkpt>
      <trkpt lat="45.76356" lon="6.54148">
        <ele>1794.451</ele>
        <time>2022-08-20T10:27:03Z</time>
      </trkpt>
      <trkpt lat="45.76378" lon="6.54171">
        <ele>1800.548</ele>
        <time>2022-08-20T10:27:13Z</time>
      </trkpt>
      <trkpt lat="45.76398" lon="6.54191">
        <ele>1806.836</ele>
        <time>2022-08-20T10:27:22Z</time>
      </trkpt>
      <trkpt lat="45.76418" lon="6.54211">
        <ele>1814.474</ele>
        <time>2022-08-20T10:27:31Z</time>
      </trkpt>
      <trkpt lat="45.7644" lon="6.54233">
        <ele>1816.173</ele>
        <time>2022-08-20T10:27:41Z</time>
      </trkpt>
      <trkpt lat="45.76461" lon="6.54253">
        <ele>1818.072</ele>
        <time>2022-08-20T10:27:50Z</time>
      </trkpt>
      <trkpt lat="45.76482" lon="6.54273">
        <ele>1820.263</ele>
        <time>2022-08-20T10:27:59Z</time>
      </trkpt>
      <trkpt lat="45.76505" lon="6.54296">
        <ele>1823.197</ele>
        <time>2022-08-20T10:28:09Z</time>
      </trkpt>
      <trkpt lat="45.76525" lon="6.54317">
        <ele>1826.874</ele>
        <time>2022-08-20T10:28:18Z</time>
      </trkpt>
      <trkpt lat="45.76548" lon="6.54338">
        <ele>1830.728</ele>
        <time>2022-08-20T10:28:28Z</time>
      </trkpt>
      <trkpt lat="45.76569" lon="6.54359">
        <ele>1834.161</ele>
        <time>2022-08-20T10:28:37Z</time>
      </trkpt>
      <trkpt lat="45.76589" lon="6.54379">
        <ele>1837.892</ele>
        <time>2022-08-20T10:28:46Z</time>
      </trkpt>
      <trkpt lat="45.76612" lon="6.54402">
        <ele>1843.43</ele>
        <time>2022-08-20T10:28:56Z</time>
      </trkpt>
      <trkpt lat="45.76634" lon="6.54424">
        <ele>1849.369</ele>
        <time>2022-08-20T10:29:06Z</time>
      </trkpt>
      <trkpt lat="45.76657" lon="6.54447">
        <ele>1853.845</ele>
        <time>2022-08-20T10:29:16Z</time>
      </trkpt>
      <trkpt lat="45.76677" lon="6.54467">
        <ele>1857.9</ele>
        <time>2022-08-20T10:29:25Z</time>
      </trkpt>
      <trkpt lat="45.76699" lon="6.5449">
        <ele>1863.594</ele>
        <time>2022-08-20T10:29:35Z</time>
      </trkpt>
      <trkpt lat="45.76719" lon="6.54508">
        <ele>1871.364</ele>
        <time>2022-08-20T10:29:44Z</time>
      </trkpt>
      <trkpt lat="45.76742" lon="6.54531">
        <ele>1873.916</ele>
        <time>2022-08-20T10:29:54Z</time>
      </trkpt>
      <trkpt lat="45.76762" lon="6.54552">
        <ele>1876.527</ele>
        <time>2022-08-20T10:30:03Z</time>
      </trkpt>
      <trkpt lat="45.76783" lon="6.54572">
        <ele>1881.239</ele>
        <time>2022-08-20T10:30:12Z</time>
      </trkpt>
      <trkpt lat="45.76803" lon="6.54592">
        <ele>1887.323</ele>
        <time>2022-08-20T10:30:21Z</time>
      </trkpt>
      <trkpt lat="45.76826" lon="6.54614">
        <ele>1887.317</ele>
        <time>2022-08-20T10:30:31Z</time>
      </trkpt>
      <trkpt lat="45.76849" lon="6.54637">
        <ele>1887.507</ele>
        <time>2022-08-20T10:30:41Z</time>
      </trkpt>
      <trkpt lat="45.76871" lon="6.54659">
        <ele>1888.935</ele>
        <time>2022-08-20T10:30:51Z</time>
      </trkpt>
      <trkpt lat="45.76891" lon="6.5468">
        <ele>1890.792</ele>
        <time>2022-08-20T10:31:00Z</time>
      </trkpt>
      <trkpt lat="45.76905" lon="6.54694">
        <ele>1892.095</ele>
        <time>2022-08-20T10:31:10Z</time>
      </trkpt>
      <trkpt lat="45.76907" lon="6.54702">
        <ele>1894.114</ele>
        <time>2022-08-20T10:31:19Z</time>
      </trkpt>
      <trkpt lat="45.76924" lon="6.54707">
        <ele>1889.696</ele>
        <time>2022-08-20T10:31:29Z</time>
      </trkpt>
      <trkpt lat="45.76925" lon="6.54708">
        <ele>1889.836</ele>
        <time>2022-08-20T10:31:38Z</time>
      </trkpt>
      <trkpt lat="45.76925" lon="6.54708">
        <ele>1889.985</ele>
        <time>2022-08-20T10:31:48Z</time>
      </trkpt>
      <trkpt lat="45.76935" lon="6.54717">
        <ele>1890.298</ele>
        <time>2022-08-20T10:31:57Z</time>
      </trkpt>
      <trkpt lat="45.76941" lon="6.54732">
        <ele>1888.646</ele>
        <time>2022-08-20T10:32:06Z</time>
      </trkpt>
      <trkpt lat="45.7694" lon="6.54733">
        <ele>1890.548</ele>
        <time>2022-08-20T10:32:16Z</time>
      </trkpt>
      <trkpt lat="45.76941" lon="6.54732">
        <ele>1889.933</ele>
        <time>2022-08-20T10:32:25Z</time>
      </trkpt>
      <trkpt lat="45.76941" lon="6.54733">
        <ele>1889.942</ele>
        <time>2022-08-20T10:32:34Z</time>
      </trkpt>
      <trkpt lat="45.76941" lon="6.54733">
        <ele>1889.951</ele>
        <time>2022-08-20T10:32:44Z</time>
      </trkpt>
      <trkpt lat="45.76941" lon="6.54733">
        <ele>1889.965</ele>
        <time>2022-08-20T10:32:54Z</time>
      </trkpt>
      <trkpt lat="45.76941" lon="6.54733">
        <ele>1889.991</ele>
        <time>2022-08-20T10:33:04Z</time>
      </trkpt>
      <trkpt lat="45.76947" lon="6.54727">
        <ele>1890.647</ele>
        <time>2022-08-20T10:33:13Z</time>
      </trkpt>
      <trkpt lat="45.76948" lon="6.54726">
        <ele>1890.059</ele>
        <time>2022-08-20T10:33:23Z</time>
      </trkpt>
      <trkpt lat="45.76948" lon="6.54725">
        <ele>1890.164</ele>
        <time>2022-08-20T10:33:33Z</time>
      </trkpt>
      <trkpt lat="45.76946" lon="6.5472">
        <ele>1889.832</ele>
        <time>2022-08-20T10:33:42Z</time>
      </trkpt>
      <trkpt lat="45.76933" lon="6.54696">
        <ele>1888.223</ele>
        <time>2022-08-20T10:33:51Z</time>
      </trkpt>
      <trkpt lat="45.76898" lon="6.54677">
        <ele>1885.701</ele>
        <time>2022-08-20T10:34:00Z</time>
      </trkpt>
      <trkpt lat="45.76844" lon="6.5463">
        <ele>1876.36</ele>
        <time>2022-08-20T10:34:10Z</time>
      </trkpt>
      <trkpt lat="45.76815" lon="6.54598">
        <ele>1875.132</ele>
        <time>2022-08-20T10:34:20Z</time>
      </trkpt>
      <trkpt lat="45.7678" lon="6.54536">
        <ele>1872.038</ele>
        <time>2022-08-20T10:34:30Z</time>
      </trkpt>
      <trkpt lat="45.76772" lon="6.54463">
        <ele>1865.963</ele>
        <time>2022-08-20T10:34:39Z</time>
      </trkpt>
      <trkpt lat="45.76746" lon="6.54448">
        <ele>1859.21</ele>
        <time>2022-08-20T10:34:49Z</time>
      </trkpt>
      <trkpt lat="45.7673" lon="6.5442">
        <ele>1851.541</ele>
        <time>2022-08-20T10:34:59Z</time>
      </trkpt>
      <trkpt lat="45.76718" lon="6.5436">
        <ele>1844.34</ele>
        <time>2022-08-20T10:35:09Z</time>
      </trkpt>
      <trkpt lat="45.76706" lon="6.54309">
        <ele>1839.826</ele>
        <time>2022-08-20T10:35:19Z</time>
      </trkpt>
      <trkpt lat="45.76697" lon="6.54261">
        <ele>1829.201</ele>
        <time>2022-08-20T10:35:29Z</time>
      </trkpt>
      <trkpt lat="45.76678" lon="6.54224">
        <ele>1824.033</ele>
        <time>2022-08-20T10:35:38Z</time>
      </trkpt>
      <trkpt lat="45.76652" lon="6.54201">
        <ele>1815.611</ele>
        <time>2022-08-20T10:35:47Z</time>
      </trkpt>
      <trkpt lat="45.76644" lon="6.5418">
        <ele>1810.927</ele>
        <time>2022-08-20T10:35:56Z</time>
      </trkpt>
      <trkpt lat="45.76609" lon="6.54176">
        <ele>1806.833</ele>
        <time>2022-08-20T10:36:05Z</time>
      </trkpt>
      <trkpt lat="45.76574" lon="6.54165">
        <ele>1798.56</ele>
        <time>2022-08-20T10:36:15Z</time>
      </trkpt>
      <trkpt lat="45.76551" lon="6.54089">
        <ele>1788.785</ele>
        <time>2022-08-20T10:36:25Z</time>
      </trkpt>
      <trkpt lat="45.7652" lon="6.54008">
        <ele>1783.742</ele>
        <time>2022-08-20T10:36:34Z</time>
      </trkpt>
      <trkpt lat="45.76501" lon="6.53931">
        <ele>1771.787</ele>
        <time>2022-08-20T10:36:44Z</time>
      </trkpt>
      <trkpt lat="45.76448" lon="6.53896">
        <ele>1765.282</ele>
        <time>2022-08-20T10:36:53Z</time>
      </trkpt>
      <trkpt lat="45.76412" lon="6.53882">
        <ele>1756.983</ele>
        <time>2022-08-20T10:37:03Z</time>
      </trkpt>
      <trkpt lat="45.76413" lon="6.53883">
        <ele>1755.777</ele>
        <time>2022-08-20T10:37:13Z</time>
      </trkpt>
      <trkpt lat="45.76413" lon="6.53883">
        <ele>1755.75</ele>
        <time>2022-08-20T10:37:22Z</time>
      </trkpt>
      <trkpt lat="45.76413" lon="6.53883">
        <ele>1755.752</ele>
        <time>2022-08-20T10:37:32Z</time>
      </trkpt>
      <trkpt lat="45.76413" lon="6.53882">
        <ele>1755.745</ele>
        <time>2022-08-20T10:37:42Z</time>
      </trkpt>
      <trkpt lat="45.76413" lon="6.53882">
        <ele>1755.77</ele>
        <time>2022-08-20T10:37:52Z</time>
      </trkpt>
      <trkpt lat="45.76413" lon="6.53882">
        <ele>1755.783</ele>
        <time>2022-08-20T10:38:01Z</time>
      </trkpt>
      <trkpt lat="45.76374" lon="6.53891">
        <ele>1750.837</ele>
        <time>2022-08-20T10:38:11Z</time>
      </trkpt>
      <trkpt lat="45.76347" lon="6.53887">
        <ele>1747.02</ele>
        <time>2022-08-20T10:38:21Z</time>
      </trkpt>
      <trkpt lat="45.76298" lon="6.539">
        <ele>1732.437</ele>
        <time>2022-08-20T10:38:31Z</time>
      </trkpt>
      <trkpt lat="45.76273" lon="6.53884">
        <ele>1719.945</ele>
        <time>2022-08-20T10:38:41Z</time>
      </trkpt>
      <trkpt lat="45.76295" lon="6.53812">
        <ele>1716.756</ele>
        <time>2022-08-20T10:38:51Z</time>
      </trkpt>
      <trkpt lat="45.76283" lon="6.53802">
        <ele>1708.001</ele>
        <time>2022-08-20T10:39:01Z</time>
      </trkpt>
      <trkpt lat="45.76277" lon="6.53763">
        <ele>1700.217</ele>
        <time>2022-08-20T10:39:11Z</time>
      </trkpt>
      <trkpt lat="45.7627" lon="6.53724">
        <ele>1690.625</ele>
        <time>2022-08-20T10:39:21Z</time>
      </trkpt>
      <trkpt lat="45.76275" lon="6.53663">
        <ele>1680.274</ele>
        <time>2022-08-20T10:39:30Z</time>
      </trkpt>
      <trkpt lat="45.76276" lon="6.53659">
        <ele>1678.738</ele>
        <time>2022-08-20T10:39:39Z</time>
      </trkpt>
      <trkpt lat="45.76275" lon="6.53658">
        <ele>1678.11</ele>
        <time>2022-08-20T10:39:48Z</time>
      </trkpt>
      <trkpt lat="45.76275" lon="6.53658">
        <ele>1678.1</ele>
        <time>2022-08-20T10:39:57Z</time>
      </trkpt>
      <trkpt lat="45.76275" lon="6.53658">
        <ele>1678.067</ele>
        <time>2022-08-20T10:40:07Z</time>
      </trkpt>
      <trkpt lat="45.76275" lon="6.53658">
        <ele>1678.054</ele>
        <time>2022-08-20T10:40:16Z</time>
      </trkpt>
      <trkpt lat="45.76275" lon="6.53658">
        <ele>1678.035</ele>
        <time>2022-08-20T10:40:25Z</time>
      </trkpt>
      <trkpt lat="45.76277" lon="6.53656">
        <ele>1677.423</ele>
        <time>2022-08-20T10:40:35Z</time>
      </trkpt>
      <trkpt lat="45.76279" lon="6.53655">
        <ele>1676.473</ele>
        <time>2022-08-20T10:40:45Z</time>
      </trkpt>
      <trkpt lat="45.76279" lon="6.53655">
        <ele>1676.223</ele>
        <time>2022-08-20T10:40:54Z</time>
      </trkpt>
      <trkpt lat="45.76279" lon="6.53655">
        <ele>1676.217</ele>
        <time>2022-08-20T10:41:04Z</time>
      </trkpt>
      <trkpt lat="45.76279" lon="6.53654">
        <ele>1676.629</ele>
        <time>2022-08-20T10:41:13Z</time>
      </trkpt>
      <trkpt lat="45.76283" lon="6.53618">
        <ele>1677.745</ele>
        <time>2022-08-20T10:41:23Z</time>
      </trkpt>
      <trkpt lat="45.76278" lon="6.53576">
        <ele>1680.069</ele>
        <time>2022-08-20T10:41:33Z</time>
      </trkpt>
      <trkpt lat="45.76265" lon="6.53545">
        <ele>1680.159</ele>
        <time>2022-08-20T10:41:43Z</time>
      </trkpt>
      <trkpt lat="45.76245" lon="6.53515">
        <ele>1681.013</ele>
        <time>2022-08-20T10:41:53Z</time>
      </trkpt>
      <trkpt lat="45.76216" lon="6.53507">
        <ele>1678.324</ele>
        <time>2022-08-20T10:42:02Z</time>
      </trkpt>
      <trkpt lat="45.76169" lon="6.53515">
        <ele>1675.02</ele>
        <time>2022-08-20T10:42:11Z</time>
      </trkpt>
      <trkpt lat="45.76122" lon="6.5348">
        <ele>1669.24</ele>
        <time>2022-08-20T10:42:20Z</time>
      </trkpt>
      <trkpt lat="45.76072" lon="6.53476">
        <ele>1666.79</ele>
        <time>2022-08-20T10:42:29Z</time>
      </trkpt>
      <trkpt lat="45.76035" lon="6.535">
        <ele>1665.221</ele>
        <time>2022-08-20T10:42:39Z</time>
      </trkpt>
      <trkpt lat="45.75994" lon="6.53473">
        <ele>1661.867</ele>
        <time>2022-08-20T10:42:48Z</time>
      </trkpt>
      <trkpt lat="45.75998" lon="6.53433">
        <ele>1662.043</ele>
        <time>2022-08-20T10:42:58Z</time>
      </trkpt>
      <trkpt lat="45.76017" lon="6.53414">
        <ele>1661.558</ele>
        <time>2022-08-20T10:43:07Z</time>
      </trkpt>
      <trkpt lat="45.76039" lon="6.53391">
        <ele>1660.715</ele>
        <time>2022-08-20T10:43:17Z</time>
      </trkpt>
      <trkpt lat="45.76033" lon="6.53359">
        <ele>1658.528</ele>
        <time>2022-08-20T10:43:27Z</time>
      </trkpt>
      <trkpt lat="45.76012" lon="6.53365">
        <ele>1656.947</ele>
        <time>2022-08-20T10:43:36Z</time>
      </trkpt>
      <trkpt lat="45.75981" lon="6.53387">
        <ele>1657.186</ele>
        <time>2022-08-20T10:43:46Z</time>
      </trkpt>
      <trkpt lat="45.75955" lon="6.53414">
        <ele>1659.747</ele>
        <time>2022-08-20T10:43:55Z</time>
      </trkpt>
      <trkpt lat="45.75925" lon="6.5346">
        <ele>1657.049</ele>
        <time>2022-08-20T10:44:05Z</time>
      </trkpt>
      <trkpt lat="45.75895" lon="6.5352">
        <ele>1654.614</ele>
        <time>2022-08-20T10:44:15Z</time>
      </trkpt>
      <trkpt lat="45.75857" lon="6.53577">
        <ele>1650.729</ele>
        <time>2022-08-20T10:44:25Z</time>
      </trkpt>
      <trkpt lat="45.75816" lon="6.53655">
        <ele>1647.463</ele>
        <time>2022-08-20T10:44:35Z</time>
      </trkpt>
      <trkpt lat="45.75784" lon="6.53762">
        <ele>1642.967</ele>
        <time>2022-08-20T10:44:44Z</time>
      </trkpt>
      <trkpt lat="45.75741" lon="6.53884">
        <ele>1636.23</ele>
        <time>2022-08-20T10:44:54Z</time>
      </trkpt>
      <trkpt lat="45.75715" lon="6.53935">
        <ele>1632.258</ele>
        <time>2022-08-20T10:45:03Z</time>
      </trkpt>
      <trkpt lat="45.75698" lon="6.53982">
        <ele>1629.404</ele>
        <time>2022-08-20T10:45:12Z</time>
      </trkpt>
      <trkpt lat="45.75661" lon="6.54054">
        <ele>1624.629</ele>
        <time>2022-08-20T10:45:21Z</time>
      </trkpt>
      <trkpt lat="45.75632" lon="6.54116">
        <ele>1620.95</ele>
        <time>2022-08-20T10:45:31Z</time>
      </trkpt>
      <trkpt lat="45.75614" lon="6.54204">
        <ele>1617.76</ele>
        <time>2022-08-20T10:45:40Z</time>
      </trkpt>
      <trkpt lat="45.75579" lon="6.54316">
        <ele>1613.694</ele>
        <time>2022-08-20T10:45:50Z</time>
      </trkpt>
      <trkpt lat="45.75536" lon="6.54438">
        <ele>1606.869</ele>
        <time>2022-08-20T10:45:59Z</time>
      </trkpt>
      <trkpt lat="45.75465" lon="6.54569">
        <ele>1596.008</ele>
        <time>2022-08-20T10:46:09Z</time>
      </trkpt>
      <trkpt lat="45.75363" lon="6.54601">
        <ele>1587.377</ele>
        <time>2022-08-20T10:46:18Z</time>
      </trkpt>
      <trkpt lat="45.75288" lon="6.54651">
        <ele>1581.958</ele>
        <time>2022-08-20T10:46:28Z</time>
      </trkpt>
      <trkpt lat="45.75265" lon="6.54655">
        <ele>1580.753</ele>
        <time>2022-08-20T10:46:37Z</time>
      </trkpt>
      <trkpt lat="45.75254" lon="6.54657">
        <ele>1580.837</ele>
        <time>2022-08-20T10:46:47Z</time>
      </trkpt>
      <trkpt lat="45.75251" lon="6.54666">
        <ele>1580.328</ele>
        <time>2022-08-20T10:46:56Z</time>
      </trkpt>
      <trkpt lat="45.7525" lon="6.54671">
        <ele>1580.713</ele>
        <time>2022-08-20T10:47:06Z</time>
      </trkpt>
      <trkpt lat="45.75249" lon="6.54669">
        <ele>1580.748</ele>
        <time>2022-08-20T10:47:15Z</time>
      </trkpt>
      <trkpt lat="45.75249" lon="6.5467">
        <ele>1580.804</ele>
        <time>2022-08-20T10:47:25Z</time>
      </trkpt>
      <trkpt lat="45.7525" lon="6.54669">
        <ele>1580.239</ele>
        <time>2022-08-20T10:47:34Z</time>
      </trkpt>
      <trkpt lat="45.7525" lon="6.54668">
        <ele>1580.279</ele>
        <time>2022-08-20T10:47:44Z</time>
      </trkpt>
      <trkpt lat="45.7525" lon="6.54669">
        <ele>1580.039</ele>
        <time>2022-08-20T10:47:53Z</time>
      </trkpt>
      <trkpt lat="45.75251" lon="6.54666">
        <ele>1580.175</ele>
        <time>2022-08-20T10:48:02Z</time>
      </trkpt>
      <trkpt lat="45.75253" lon="6.54669">
        <ele>1579.993</ele>
        <time>2022-08-20T10:48:12Z</time>
      </trkpt>
      <trkpt lat="45.7526" lon="6.54662">
        <ele>1580.718</ele>
        <time>2022-08-20T10:48:21Z</time>
      </trkpt>
      <trkpt lat="45.75266" lon="6.54659">
        <ele>1579.942</ele>
        <time>2022-08-20T10:48:30Z</time>
      </trkpt>
      <trkpt lat="45.75261" lon="6.54651">
        <ele>1581.504</ele>
        <time>2022-08-20T10:48:39Z</time>
      </trkpt>
      <trkpt lat="45.7527" lon="6.54658">
        <ele>1578.864</ele>
        <time>2022-08-20T10:48:48Z</time>
      </trkpt>
      <trkpt lat="45.75271" lon="6.54659">
        <ele>1578.855</ele>
        <time>2022-08-20T10:48:58Z</time>
      </trkpt>
      <trkpt lat="45.75272" lon="6.54663">
        <ele>1578.913</ele>
        <time>2022-08-20T10:49:08Z</time>
      </trkpt>
      <trkpt lat="45.75271" lon="6.5466">
        <ele>1578.856</ele>
        <time>2022-08-20T10:49:17Z</time>
      </trkpt>
      <trkpt lat="45.75258" lon="6.54663">
        <ele>1581.351</ele>
        <time>2022-08-20T10:49:27Z</time>
      </trkpt>
      <trkpt lat="45.75246" lon="6.54659">
        <ele>1596.174</ele>
        <time>2022-08-20T12:32:47Z</time>
      </trkpt>
      <trkpt lat="45.75251" lon="6.54658">
        <ele>1584.615</ele>
        <time>2022-08-20T12:32:57Z</time>
      </trkpt>
      <trkpt lat="45.75259" lon="6.54654">
        <ele>1583.325</ele>
        <time>2022-08-20T12:33:06Z</time>
      </trkpt>
      <trkpt lat="45.75268" lon="6.54652">
        <ele>1584.464</ele>
        <time>2022-08-20T12:33:15Z</time>
      </trkpt>
      <trkpt lat="45.75273" lon="6.54661">
        <ele>1585.495</ele>
        <time>2022-08-20T12:33:24Z</time>
      </trkpt>
      <trkpt lat="45.75267" lon="6.54665">
        <ele>1586.525</ele>
        <time>2022-08-20T12:33:34Z</time>
      </trkpt>
      <trkpt lat="45.75266" lon="6.54682">
        <ele>1589.823</ele>
        <time>2022-08-20T12:33:43Z</time>
      </trkpt>
      <trkpt lat="45.75272" lon="6.54701">
        <ele>1586.865</ele>
        <time>2022-08-20T12:33:53Z</time>
      </trkpt>
      <trkpt lat="45.75295" lon="6.54671">
        <ele>1584.059</ele>
        <time>2022-08-20T12:34:03Z</time>
      </trkpt>
      <trkpt lat="45.75261" lon="6.5461">
        <ele>1577.692</ele>
        <time>2022-08-20T12:34:13Z</time>
      </trkpt>
      <trkpt lat="45.75227" lon="6.54533">
        <ele>1572.465</ele>
        <time>2022-08-20T12:34:22Z</time>
      </trkpt>
      <trkpt lat="45.75202" lon="6.54438">
        <ele>1568.979</ele>
        <time>2022-08-20T12:34:32Z</time>
      </trkpt>
      <trkpt lat="45.75205" lon="6.5443">
        <ele>1568.885</ele>
        <time>2022-08-20T12:34:42Z</time>
      </trkpt>
      <trkpt lat="45.75207" lon="6.54436">
        <ele>1566.837</ele>
        <time>2022-08-20T12:34:52Z</time>
      </trkpt>
      <trkpt lat="45.75207" lon="6.54436">
        <ele>1567.552</ele>
        <time>2022-08-20T12:35:01Z</time>
      </trkpt>
      <trkpt lat="45.75207" lon="6.54438">
        <ele>1568.59</ele>
        <time>2022-08-20T12:35:11Z</time>
      </trkpt>
      <trkpt lat="45.75212" lon="6.54448">
        <ele>1568.49</ele>
        <time>2022-08-20T12:35:21Z</time>
      </trkpt>
      <trkpt lat="45.75214" lon="6.54451">
        <ele>1569.72</ele>
        <time>2022-08-20T12:35:31Z</time>
      </trkpt>
      <trkpt lat="45.75218" lon="6.54464">
        <ele>1568.022</ele>
        <time>2022-08-20T12:35:40Z</time>
      </trkpt>
      <trkpt lat="45.75228" lon="6.54507">
        <ele>1574.386</ele>
        <time>2022-08-20T12:35:50Z</time>
      </trkpt>
      <trkpt lat="45.75239" lon="6.54543">
        <ele>1579.113</ele>
        <time>2022-08-20T12:35:59Z</time>
      </trkpt>
      <trkpt lat="45.7525" lon="6.54576">
        <ele>1583.76</ele>
        <time>2022-08-20T12:36:08Z</time>
      </trkpt>
      <trkpt lat="45.75261" lon="6.54606">
        <ele>1590.539</ele>
        <time>2022-08-20T12:36:17Z</time>
      </trkpt>
      <trkpt lat="45.75271" lon="6.54649">
        <ele>1592.943</ele>
        <time>2022-08-20T12:36:27Z</time>
      </trkpt>
      <trkpt lat="45.75281" lon="6.54684">
        <ele>1595.898</ele>
        <time>2022-08-20T12:36:36Z</time>
      </trkpt>
      <trkpt lat="45.75292" lon="6.54721">
        <ele>1601.727</ele>
        <time>2022-08-20T12:36:46Z</time>
      </trkpt>
      <trkpt lat="45.75301" lon="6.54754">
        <ele>1607.668</ele>
        <time>2022-08-20T12:36:55Z</time>
      </trkpt>
      <trkpt lat="45.75312" lon="6.54787">
        <ele>1615.061</ele>
        <time>2022-08-20T12:37:04Z</time>
      </trkpt>
      <trkpt lat="45.75322" lon="6.54821">
        <ele>1628.535</ele>
        <time>2022-08-20T12:37:14Z</time>
      </trkpt>
      <trkpt lat="45.75332" lon="6.54854">
        <ele>1642.435</ele>
        <time>2022-08-20T12:37:24Z</time>
      </trkpt>
      <trkpt lat="45.75341" lon="6.54886">
        <ele>1653.776</ele>
        <time>2022-08-20T12:37:33Z</time>
      </trkpt>
      <trkpt lat="45.7535" lon="6.54917">
        <ele>1665.611</ele>
        <time>2022-08-20T12:37:42Z</time>
      </trkpt>
      <trkpt lat="45.75359" lon="6.54951">
        <ele>1679.676</ele>
        <time>2022-08-20T12:37:52Z</time>
      </trkpt>
      <trkpt lat="45.75369" lon="6.54985">
        <ele>1692.189</ele>
        <time>2022-08-20T12:38:02Z</time>
      </trkpt>
      <trkpt lat="45.75379" lon="6.55022">
        <ele>1704.827</ele>
        <time>2022-08-20T12:38:12Z</time>
      </trkpt>
      <trkpt lat="45.75389" lon="6.55057">
        <ele>1717.688</ele>
        <time>2022-08-20T12:38:22Z</time>
      </trkpt>
      <trkpt lat="45.75399" lon="6.55091">
        <ele>1730.682</ele>
        <time>2022-08-20T12:38:32Z</time>
      </trkpt>
      <trkpt lat="45.75408" lon="6.55122">
        <ele>1743.334</ele>
        <time>2022-08-20T12:38:41Z</time>
      </trkpt>
      <trkpt lat="45.75417" lon="6.55154">
        <ele>1750.737</ele>
        <time>2022-08-20T12:38:50Z</time>
      </trkpt>
      <trkpt lat="45.75427" lon="6.55187">
        <ele>1758.888</ele>
        <time>2022-08-20T12:38:59Z</time>
      </trkpt>
      <trkpt lat="45.75436" lon="6.5522">
        <ele>1767.939</ele>
        <time>2022-08-20T12:39:08Z</time>
      </trkpt>
      <trkpt lat="45.75447" lon="6.55256">
        <ele>1778.779</ele>
        <time>2022-08-20T12:39:18Z</time>
      </trkpt>
      <trkpt lat="45.75457" lon="6.55289">
        <ele>1784.728</ele>
        <time>2022-08-20T12:39:27Z</time>
      </trkpt>
      <trkpt lat="45.75468" lon="6.55326">
        <ele>1792.467</ele>
        <time>2022-08-20T12:39:37Z</time>
      </trkpt>
      <trkpt lat="45.75478" lon="6.55363">
        <ele>1802.108</ele>
        <time>2022-08-20T12:39:47Z</time>
      </trkpt>
      <trkpt lat="45.75487" lon="6.55395">
        <ele>1810.661</ele>
        <time>2022-08-20T12:39:56Z</time>
      </trkpt>
      <trkpt lat="45.75498" lon="6.55431">
        <ele>1817.489</ele>
        <time>2022-08-20T12:40:06Z</time>
      </trkpt>
      <trkpt lat="45.75509" lon="6.55469">
        <ele>1822.372</ele>
        <time>2022-08-20T12:40:16Z</time>
      </trkpt>
      <trkpt lat="45.75519" lon="6.55503">
        <ele>1827.906</ele>
        <time>2022-08-20T12:40:25Z</time>
      </trkpt>
      <trkpt lat="45.75529" lon="6.55537">
        <ele>1833.799</ele>
        <time>2022-08-20T12:40:34Z</time>
      </trkpt>
      <trkpt lat="45.7554" lon="6.55573">
        <ele>1841.739</ele>
        <time>2022-08-20T12:40:44Z</time>
      </trkpt>
      <trkpt lat="45.7555" lon="6.55606">
        <ele>1849.866</ele>
        <time>2022-08-20T12:40:53Z</time>
      </trkpt>
      <trkpt lat="45.7556" lon="6.55642">
        <ele>1855.509</ele>
        <time>2022-08-20T12:41:03Z</time>
      </trkpt>
      <trkpt lat="45.7557" lon="6.55676">
        <ele>1857.319</ele>
        <time>2022-08-20T12:41:12Z</time>
      </trkpt>
      <trkpt lat="45.75581" lon="6.55712">
        <ele>1856.06</ele>
        <time>2022-08-20T12:41:22Z</time>
      </trkpt>
      <trkpt lat="45.75584" lon="6.5572">
        <ele>1853.491</ele>
        <time>2022-08-20T12:41:31Z</time>
      </trkpt>
      <trkpt lat="45.75586" lon="6.55734">
        <ele>1854.071</ele>
        <time>2022-08-20T12:41:41Z</time>
      </trkpt>
      <trkpt lat="45.75596" lon="6.55735">
        <ele>1855.258</ele>
        <time>2022-08-20T12:41:50Z</time>
      </trkpt>
      <trkpt lat="45.75596" lon="6.55735">
        <ele>1855.458</ele>
        <time>2022-08-20T12:42:00Z</time>
      </trkpt>
      <trkpt lat="45.75596" lon="6.55735">
        <ele>1855.471</ele>
        <time>2022-08-20T12:42:09Z</time>
      </trkpt>
      <trkpt lat="45.75596" lon="6.55735">
        <ele>1855.484</ele>
        <time>2022-08-20T12:42:18Z</time>
      </trkpt>
      <trkpt lat="45.75596" lon="6.55735">
        <ele>1855.482</ele>
        <time>2022-08-20T12:42:28Z</time>
      </trkpt>
      <trkpt lat="45.75596" lon="6.55735">
        <ele>1855.48</ele>
        <time>2022-08-20T12:42:37Z</time>
      </trkpt>
      <trkpt lat="45.75596" lon="6.55735">
        <ele>1855.483</ele>
        <time>2022-08-20T12:42:47Z</time>
      </trkpt>
      <trkpt lat="45.75596" lon="6.55735">
        <ele>1855.492</ele>
        <time>2022-08-20T12:42:56Z</time>
      </trkpt>
      <trkpt lat="45.75596" lon="6.55735">
        <ele>1855.493</ele>
        <time>2022-08-20T12:43:05Z</time>
      </trkpt>
      <trkpt lat="45.75596" lon="6.55735">
        <ele>1855.465</ele>
        <time>2022-08-20T12:43:15Z</time>
      </trkpt>
      <trkpt lat="45.75597" lon="6.55733">
        <ele>1856.16</ele>
        <time>2022-08-20T12:43:25Z</time>
      </trkpt>
      <trkpt lat="45.75597" lon="6.55733">
        <ele>1855.829</ele>
        <time>2022-08-20T12:43:35Z</time>
      </trkpt>
      <trkpt lat="45.75597" lon="6.55733">
        <ele>1855.831</ele>
        <time>2022-08-20T12:43:44Z</time>
      </trkpt>
      <trkpt lat="45.75597" lon="6.55733">
        <ele>1855.824</ele>
        <time>2022-08-20T12:43:54Z</time>
      </trkpt>
      <trkpt lat="45.75597" lon="6.55733">
        <ele>1855.819</ele>
        <time>2022-08-20T12:44:04Z</time>
      </trkpt>
      <trkpt lat="45.75597" lon="6.55733">
        <ele>1855.814</ele>
        <time>2022-08-20T12:44:14Z</time>
      </trkpt>
      <trkpt lat="45.756" lon="6.5573">
        <ele>1855.65</ele>
        <time>2022-08-20T12:44:24Z</time>
      </trkpt>
      <trkpt lat="45.75617" lon="6.5569">
        <ele>1849.815</ele>
        <time>2022-08-20T12:44:33Z</time>
      </trkpt>
      <trkpt lat="45.75678" lon="6.55636">
        <ele>1840.824</ele>
        <time>2022-08-20T12:44:43Z</time>
      </trkpt>
      <trkpt lat="45.75723" lon="6.55606">
        <ele>1831.973</ele>
        <time>2022-08-20T12:44:53Z</time>
      </trkpt>
      <trkpt lat="45.75739" lon="6.55549">
        <ele>1826.216</ele>
        <time>2022-08-20T12:45:03Z</time>
      </trkpt>
      <trkpt lat="45.75782" lon="6.55534">
        <ele>1818.184</ele>
        <time>2022-08-20T12:45:12Z</time>
      </trkpt>
      <trkpt lat="45.75784" lon="6.55494">
        <ele>1812.553</ele>
        <time>2022-08-20T12:45:22Z</time>
      </trkpt>
      <trkpt lat="45.75783" lon="6.55429">
        <ele>1808.646</ele>
        <time>2022-08-20T12:45:31Z</time>
      </trkpt>
      <trkpt lat="45.75775" lon="6.55368">
        <ele>1800.149</ele>
        <time>2022-08-20T12:45:41Z</time>
      </trkpt>
      <trkpt lat="45.75805" lon="6.5529">
        <ele>1791.53</ele>
        <time>2022-08-20T12:45:51Z</time>
      </trkpt>
      <trkpt lat="45.75798" lon="6.5529">
        <ele>1787.849</ele>
        <time>2022-08-20T12:46:00Z</time>
      </trkpt>
      <trkpt lat="45.75798" lon="6.55291">
        <ele>1787.294</ele>
        <time>2022-08-20T12:46:09Z</time>
      </trkpt>
      <trkpt lat="45.75798" lon="6.55291">
        <ele>1787.294</ele>
        <time>2022-08-20T12:46:19Z</time>
      </trkpt>
      <trkpt lat="45.75792" lon="6.55295">
        <ele>1787.078</ele>
        <time>2022-08-20T12:46:29Z</time>
      </trkpt>
      <trkpt lat="45.75781" lon="6.55272">
        <ele>1782.896</ele>
        <time>2022-08-20T12:46:39Z</time>
      </trkpt>
      <trkpt lat="45.75765" lon="6.55242">
        <ele>1776.123</ele>
        <time>2022-08-20T12:46:48Z</time>
      </trkpt>
      <trkpt lat="45.7576" lon="6.5523">
        <ele>1774.516</ele>
        <time>2022-08-20T12:46:57Z</time>
      </trkpt>
      <trkpt lat="45.75756" lon="6.55156">
        <ele>1770.212</ele>
        <time>2022-08-20T12:47:07Z</time>
      </trkpt>
      <trkpt lat="45.75743" lon="6.55127">
        <ele>1761.602</ele>
        <time>2022-08-20T12:47:17Z</time>
      </trkpt>
      <trkpt lat="45.75756" lon="6.55052">
        <ele>1757.137</ele>
        <time>2022-08-20T12:47:27Z</time>
      </trkpt>
      <trkpt lat="45.75755" lon="6.55003">
        <ele>1751.596</ele>
        <time>2022-08-20T12:47:36Z</time>
      </trkpt>
      <trkpt lat="45.75729" lon="6.55004">
        <ele>1740.71</ele>
        <time>2022-08-20T12:47:45Z</time>
      </trkpt>
      <trkpt lat="45.75724" lon="6.54962">
        <ele>1735.336</ele>
        <time>2022-08-20T12:47:55Z</time>
      </trkpt>
      <trkpt lat="45.75713" lon="6.54954">
        <ele>1727.431</ele>
        <time>2022-08-20T12:48:04Z</time>
      </trkpt>
      <trkpt lat="45.75713" lon="6.54899">
        <ele>1720.664</ele>
        <time>2022-08-20T12:48:13Z</time>
      </trkpt>
      <trkpt lat="45.75687" lon="6.54872">
        <ele>1710.808</ele>
        <time>2022-08-20T12:48:23Z</time>
      </trkpt>
      <trkpt lat="45.75652" lon="6.54852">
        <ele>1697.624</ele>
        <time>2022-08-20T12:48:33Z</time>
      </trkpt>
      <trkpt lat="45.75657" lon="6.54776">
        <ele>1684.176</ele>
        <time>2022-08-20T12:48:43Z</time>
      </trkpt>
      <trkpt lat="45.75638" lon="6.54747">
        <ele>1675.714</ele>
        <time>2022-08-20T12:48:52Z</time>
      </trkpt>
      <trkpt lat="45.75634" lon="6.54706">
        <ele>1668.306</ele>
        <time>2022-08-20T12:49:01Z</time>
      </trkpt>
      <trkpt lat="45.75608" lon="6.54676">
        <ele>1661.704</ele>
        <time>2022-08-20T12:49:10Z</time>
      </trkpt>
      <trkpt lat="45.7563" lon="6.54593">
        <ele>1649.916</ele>
        <time>2022-08-20T12:49:20Z</time>
      </trkpt>
      <trkpt lat="45.75613" lon="6.54563">
        <ele>1640.064</ele>
        <time>2022-08-20T12:49:29Z</time>
      </trkpt>
      <trkpt lat="45.75562" lon="6.54552">
        <ele>1628.308</ele>
        <time>2022-08-20T12:49:39Z</time>
      </trkpt>
      <trkpt lat="45.75523" lon="6.54602">
        <ele>1619.741</ele>
        <time>2022-08-20T12:49:49Z</time>
      </trkpt>
      <trkpt lat="45.75521" lon="6.5467">
        <ele>1611.612</ele>
        <time>2022-08-20T12:49:58Z</time>
      </trkpt>
      <trkpt lat="45.75498" lon="6.54641">
        <ele>1609.988</ele>
        <time>2022-08-20T12:50:07Z</time>
      </trkpt>
      <trkpt lat="45.75451" lon="6.54648">
        <ele>1607.031</ele>
        <time>2022-08-20T12:50:16Z</time>
      </trkpt>
      <trkpt lat="45.75382" lon="6.54694">
        <ele>1598.444</ele>
        <time>2022-08-20T12:50:26Z</time>
      </trkpt>
      <trkpt lat="45.75369" lon="6.54669">
        <ele>1590.699</ele>
        <time>2022-08-20T12:50:36Z</time>
      </trkpt>
      <trkpt lat="45.75335" lon="6.54643">
        <ele>1580.997</ele>
        <time>2022-08-20T12:50:45Z</time>
      </trkpt>
      <trkpt lat="45.75334" lon="6.54642">
        <ele>1581.862</ele>
        <time>2022-08-20T12:50:55Z</time>
      </trkpt>
      <trkpt lat="45.75334" lon="6.54642">
        <ele>1581.75</ele>
        <time>2022-08-20T12:51:04Z</time>
      </trkpt>
      <trkpt lat="45.75334" lon="6.54642">
        <ele>1581.756</ele>
        <time>2022-08-20T12:51:13Z</time>
      </trkpt>
      <trkpt lat="45.75334" lon="6.54642">
        <ele>1581.743</ele>
        <time>2022-08-20T12:51:23Z</time>
      </trkpt>
      <trkpt lat="45.75334" lon="6.54642">
        <ele>1581.736</ele>
        <time>2022-08-20T12:51:32Z</time>
      </trkpt>
      <trkpt lat="45.75334" lon="6.54642">
        <ele>1581.732</ele>
        <time>2022-08-20T12:51:42Z</time>
      </trkpt>
      <trkpt lat="45.75334" lon="6.54642">
        <ele>1581.932</ele>
        <time>2022-08-20T12:51:51Z</time>
      </trkpt>
      <trkpt lat="45.75334" lon="6.54642">
        <ele>1582.051</ele>
        <time>2022-08-20T12:52:00Z</time>
      </trkpt>
      <trkpt lat="45.75334" lon="6.54642">
        <ele>1582.065</ele>
        <time>2022-08-20T12:52:09Z</time>
      </trkpt>
      <trkpt lat="45.75334" lon="6.54642">
        <ele>1582.075</ele>
        <time>2022-08-20T12:52:18Z</time>
      </trkpt>
      <trkpt lat="45.75334" lon="6.54642">
        <ele>1582.094</ele>
        <time>2022-08-20T12:52:28Z</time>
      </trkpt>
      <trkpt lat="45.75334" lon="6.54642">
        <ele>1582.105</ele>
        <time>2022-08-20T12:52:38Z</time>
      </trkpt>
      <trkpt lat="45.75334" lon="6.54642">
        <ele>1582.115</ele>
        <time>2022-08-20T12:52:48Z</time>
      </trkpt>
      <trkpt lat="45.75334" lon="6.54642">
        <ele>1582.122</ele>
        <time>2022-08-20T12:52:57Z</time>
      </trkpt>
      <trkpt lat="45.75334" lon="6.54642">
        <ele>1582.131</ele>
        <time>2022-08-20T12:53:06Z</time>
      </trkpt>
      <trkpt lat="45.75334" lon="6.54642">
        <ele>1582.146</ele>
        <time>2022-08-20T12:53:16Z</time>
      </trkpt>
      <trkpt lat="45.75334" lon="6.54642">
        <ele>1582.155</ele>
        <time>2022-08-20T12:53:26Z</time>
      </trkpt>
      <trkpt lat="45.75334" lon="6.54642">
        <ele>1582.156</ele>
        <time>2022-08-20T12:53:36Z</time>
      </trkpt>
      <trkpt lat="45.75334" lon="6.54642">
        <ele>1582.163</ele>
        <time>2022-08-20T12:53:45Z</time>
      </trkpt>
      <trkpt lat="45.75334" lon="6.54642">
        <ele>1582.181</ele>
        <time>2022-08-20T12:53:55Z</time>
      </trkpt>
      <trkpt lat="45.75334" lon="6.54642">
        <ele>1582.188</ele>
        <time>2022-08-20T12:54:04Z</time>
      </trkpt>
      <trkpt lat="45.75334" lon="6.54642">
        <ele>1582.197</ele>
        <time>2022-08-20T12:54:14Z</time>
      </trkpt>
      <trkpt lat="45.75322" lon="6.5465">
        <ele>1580.844</ele>
        <time>2022-08-20T12:54:23Z</time>
      </trkpt>
      <trkpt lat="45.75267" lon="6.54627">
        <ele>1575.877</ele>
        <time>2022-08-20T12:54:33Z</time>
      </trkpt>
      <trkpt lat="45.75231" lon="6.54547">
        <ele>1569.884</ele>
        <time>2022-08-20T12:54:42Z</time>
      </trkpt>
      <trkpt lat="45.752" lon="6.54444">
        <ele>1566.972</ele>
        <time>2022-08-20T12:54:52Z</time>
      </trkpt>
      <trkpt lat="45.75204" lon="6.54426">
        <ele>1565.24</ele>
        <time>2022-08-20T12:55:01Z</time>
      </trkpt>
      <trkpt lat="45.75205" lon="6.54433">
        <ele>1564.572</ele>
        <time>2022-08-20T12:55:11Z</time>
      </trkpt>
      <trkpt lat="45.75207" lon="6.54435">
        <ele>1567.086</ele>
        <time>2022-08-20T12:55:20Z</time>
      </trkpt>
      <trkpt lat="45.75211" lon="6.54439">
        <ele>1564.52</ele>
        <time>2022-08-20T12:55:29Z</time>
      </trkpt>
      <trkpt lat="45.75213" lon="6.54444">
        <ele>1562.373</ele>
        <time>2022-08-20T12:55:39Z</time>
      </trkpt>
      <trkpt lat="45.75214" lon="6.54447">
        <ele>1563.046</ele>
        <time>2022-08-20T12:55:48Z</time>
      </trkpt>
      <trkpt lat="45.75215" lon="6.54451">
        <ele>1564.085</ele>
        <time>2022-08-20T12:55:57Z</time>
      </trkpt>
      <trkpt lat="45.75222" lon="6.54475">
        <ele>1563.286</ele>
        <time>2022-08-20T12:56:06Z</time>
      </trkpt>
      <trkpt lat="45.75234" lon="6.54519">
        <ele>1571.471</ele>
        <time>2022-08-20T12:56:16Z</time>
      </trkpt>
      <trkpt lat="45.75244" lon="6.54554">
        <ele>1576.882</ele>
        <time>2022-08-20T12:56:25Z</time>
      </trkpt>
      <trkpt lat="45.75254" lon="6.54588">
        <ele>1581.328</ele>
        <time>2022-08-20T12:56:34Z</time>
      </trkpt>
      <trkpt lat="45.75266" lon="6.54626">
        <ele>1586.429</ele>
        <time>2022-08-20T12:56:44Z</time>
      </trkpt>
      <trkpt lat="45.75277" lon="6.54664">
        <ele>1589.641</ele>
        <time>2022-08-20T12:56:54Z</time>
      </trkpt>
      <trkpt lat="45.75287" lon="6.54701">
        <ele>1594.811</ele>
        <time>2022-08-20T12:57:04Z</time>
      </trkpt>
      <trkpt lat="45.75299" lon="6.54738">
        <ele>1601.608</ele>
        <time>2022-08-20T12:57:14Z</time>
      </trkpt>
      <trkpt lat="45.7531" lon="6.54775">
        <ele>1610.295</ele>
        <time>2022-08-20T12:57:24Z</time>
      </trkpt>
      <trkpt lat="45.75318" lon="6.54805">
        <ele>1619.83</ele>
        <time>2022-08-20T12:57:33Z</time>
      </trkpt>
      <trkpt lat="45.75327" lon="6.54838">
        <ele>1635.908</ele>
        <time>2022-08-20T12:57:43Z</time>
      </trkpt>
      <trkpt lat="45.75337" lon="6.5487">
        <ele>1646.271</ele>
        <time>2022-08-20T12:57:52Z</time>
      </trkpt>
      <trkpt lat="45.75347" lon="6.54901">
        <ele>1658.669</ele>
        <time>2022-08-20T12:58:01Z</time>
      </trkpt>
      <trkpt lat="45.75357" lon="6.54934">
        <ele>1671.931</ele>
        <time>2022-08-20T12:58:11Z</time>
      </trkpt>
      <trkpt lat="45.75368" lon="6.54968">
        <ele>1685.813</ele>
        <time>2022-08-20T12:58:21Z</time>
      </trkpt>
      <trkpt lat="45.75378" lon="6.55005">
        <ele>1697.266</ele>
        <time>2022-08-20T12:58:31Z</time>
      </trkpt>
      <trkpt lat="45.75387" lon="6.55036">
        <ele>1707.173</ele>
        <time>2022-08-20T12:58:40Z</time>
      </trkpt>
      <trkpt lat="45.75396" lon="6.55067">
        <ele>1718.752</ele>
        <time>2022-08-20T12:58:49Z</time>
      </trkpt>
      <trkpt lat="45.75406" lon="6.55102">
        <ele>1732.72</ele>
        <time>2022-08-20T12:58:59Z</time>
      </trkpt>
      <trkpt lat="45.75416" lon="6.55137">
        <ele>1743.716</ele>
        <time>2022-08-20T12:59:09Z</time>
      </trkpt>
      <trkpt lat="45.75426" lon="6.5517">
        <ele>1751.311</ele>
        <time>2022-08-20T12:59:18Z</time>
      </trkpt>
      <trkpt lat="45.75437" lon="6.55206">
        <ele>1760.642</ele>
        <time>2022-08-20T12:59:28Z</time>
      </trkpt>
      <trkpt lat="45.75446" lon="6.55238">
        <ele>1770.042</ele>
        <time>2022-08-20T12:59:37Z</time>
      </trkpt>
      <trkpt lat="45.75455" lon="6.55271">
        <ele>1778.771</ele>
        <time>2022-08-20T12:59:46Z</time>
      </trkpt>
      <trkpt lat="45.75465" lon="6.55304">
        <ele>1786.166</ele>
        <time>2022-08-20T12:59:55Z</time>
      </trkpt>
      <trkpt lat="45.75476" lon="6.5534">
        <ele>1794.275</ele>
        <time>2022-08-20T13:00:05Z</time>
      </trkpt>
      <trkpt lat="45.75485" lon="6.55373">
        <ele>1802.872</ele>
        <time>2022-08-20T13:00:14Z</time>
      </trkpt>
      <trkpt lat="45.75495" lon="6.55406">
        <ele>1811.796</ele>
        <time>2022-08-20T13:00:23Z</time>
      </trkpt>
      <trkpt lat="45.75506" lon="6.55443">
        <ele>1816.679</ele>
        <time>2022-08-20T13:00:33Z</time>
      </trkpt>
      <trkpt lat="45.75517" lon="6.55481">
        <ele>1820.919</ele>
        <time>2022-08-20T13:00:43Z</time>
      </trkpt>
      <trkpt lat="45.75529" lon="6.55518">
        <ele>1826.676</ele>
        <time>2022-08-20T13:00:53Z</time>
      </trkpt>
      <trkpt lat="45.75538" lon="6.55551">
        <ele>1833.632</ele>
        <time>2022-08-20T13:01:02Z</time>
      </trkpt>
      <trkpt lat="45.75549" lon="6.55588">
        <ele>1841.769</ele>
        <time>2022-08-20T13:01:12Z</time>
      </trkpt>
      <trkpt lat="45.75559" lon="6.55621">
        <ele>1849.322</ele>
        <time>2022-08-20T13:01:21Z</time>
      </trkpt>
      <trkpt lat="45.75569" lon="6.55658">
        <ele>1851.909</ele>
        <time>2022-08-20T13:01:31Z</time>
      </trkpt>
      <trkpt lat="45.7558" lon="6.55696">
        <ele>1853.811</ele>
        <time>2022-08-20T13:01:41Z</time>
      </trkpt>
      <trkpt lat="45.75587" lon="6.55718">
        <ele>1853.588</ele>
        <time>2022-08-20T13:01:50Z</time>
      </trkpt>
      <trkpt lat="45.75587" lon="6.55738">
        <ele>1853.864</ele>
        <time>2022-08-20T13:02:00Z</time>
      </trkpt>
      <trkpt lat="45.75605" lon="6.55735">
        <ele>1851.618</ele>
        <time>2022-08-20T13:02:09Z</time>
      </trkpt>
      <trkpt lat="45.75605" lon="6.55734">
        <ele>1853.603</ele>
        <time>2022-08-20T13:02:19Z</time>
      </trkpt>
      <trkpt lat="45.75605" lon="6.55734">
        <ele>1853.583</ele>
        <time>2022-08-20T13:02:28Z</time>
      </trkpt>
      <trkpt lat="45.75605" lon="6.55734">
        <ele>1853.598</ele>
        <time>2022-08-20T13:02:37Z</time>
      </trkpt>
      <trkpt lat="45.75605" lon="6.55734">
        <ele>1853.61</ele>
        <time>2022-08-20T13:02:47Z</time>
      </trkpt>
      <trkpt lat="45.75605" lon="6.55734">
        <ele>1853.608</ele>
        <time>2022-08-20T13:02:56Z</time>
      </trkpt>
      <trkpt lat="45.75605" lon="6.55734">
        <ele>1853.606</ele>
        <time>2022-08-20T13:03:06Z</time>
      </trkpt>
      <trkpt lat="45.75605" lon="6.55734">
        <ele>1853.602</ele>
        <time>2022-08-20T13:03:16Z</time>
      </trkpt>
      <trkpt lat="45.75605" lon="6.55734">
        <ele>1853.59</ele>
        <time>2022-08-20T13:03:25Z</time>
      </trkpt>
      <trkpt lat="45.75605" lon="6.55734">
        <ele>1853.584</ele>
        <time>2022-08-20T13:03:35Z</time>
      </trkpt>
      <trkpt lat="45.75605" lon="6.55734">
        <ele>1853.584</ele>
        <time>2022-08-20T13:03:44Z</time>
      </trkpt>
      <trkpt lat="45.75605" lon="6.55734">
        <ele>1853.587</ele>
        <time>2022-08-20T13:03:53Z</time>
      </trkpt>
      <trkpt lat="45.75605" lon="6.55734">
        <ele>1853.585</ele>
        <time>2022-08-20T13:04:03Z</time>
      </trkpt>
      <trkpt lat="45.75602" lon="6.55702">
        <ele>1854.879</ele>
        <time>2022-08-20T13:04:13Z</time>
      </trkpt>
      <trkpt lat="45.75579" lon="6.55649">
        <ele>1853.386</ele>
        <time>2022-08-20T13:04:22Z</time>
      </trkpt>
      <trkpt lat="45.75576" lon="6.556">
        <ele>1850.106</ele>
        <time>2022-08-20T13:04:31Z</time>
      </trkpt>
      <trkpt lat="45.75564" lon="6.5558">
        <ele>1843.841</ele>
        <time>2022-08-20T13:04:40Z</time>
      </trkpt>
      <trkpt lat="45.75541" lon="6.55575">
        <ele>1841.766</ele>
        <time>2022-08-20T13:04:49Z</time>
      </trkpt>
      <trkpt lat="45.75545" lon="6.55534">
        <ele>1830.854</ele>
        <time>2022-08-20T13:04:59Z</time>
      </trkpt>
      <trkpt lat="45.75508" lon="6.55503">
        <ele>1819.716</ele>
        <time>2022-08-20T13:05:09Z</time>
      </trkpt>
      <trkpt lat="45.75501" lon="6.55445">
        <ele>1815.229</ele>
        <time>2022-08-20T13:05:18Z</time>
      </trkpt>
      <trkpt lat="45.75463" lon="6.55388">
        <ele>1803.312</ele>
        <time>2022-08-20T13:05:28Z</time>
      </trkpt>
      <trkpt lat="45.75507" lon="6.55345">
        <ele>1793.95</ele>
        <time>2022-08-20T13:05:38Z</time>
      </trkpt>
      <trkpt lat="45.75509" lon="6.55327">
        <ele>1794.675</ele>
        <time>2022-08-20T13:05:47Z</time>
      </trkpt>
      <trkpt lat="45.75508" lon="6.55328">
        <ele>1794.551</ele>
        <time>2022-08-20T13:05:57Z</time>
      </trkpt>
      <trkpt lat="45.75508" lon="6.55328">
        <ele>1794.64</ele>
        <time>2022-08-20T13:06:07Z</time>
      </trkpt>
      <trkpt lat="45.75508" lon="6.55328">
        <ele>1794.782</ele>
        <time>2022-08-20T13:06:16Z</time>
      </trkpt>
      <trkpt lat="45.75516" lon="6.55291">
        <ele>1788.189</ele>
        <time>2022-08-20T13:06:26Z</time>
      </trkpt>
      <trkpt lat="45.75472" lon="6.55241">
        <ele>1779.877</ele>
        <time>2022-08-20T13:06:36Z</time>
      </trkpt>
      <trkpt lat="45.75482" lon="6.55209">
        <ele>1768.974</ele>
        <time>2022-08-20T13:06:46Z</time>
      </trkpt>
      <trkpt lat="45.75483" lon="6.55171">
        <ele>1759.711</ele>
        <time>2022-08-20T13:06:55Z</time>
      </trkpt>
      <trkpt lat="45.75471" lon="6.55127">
        <ele>1749.318</ele>
        <time>2022-08-20T13:07:05Z</time>
      </trkpt>
      <trkpt lat="45.75457" lon="6.55098">
        <ele>1739.622</ele>
        <time>2022-08-20T13:07:14Z</time>
      </trkpt>
      <trkpt lat="45.75452" lon="6.55052">
        <ele>1725.9</ele>
        <time>2022-08-20T13:07:24Z</time>
      </trkpt>
      <trkpt lat="45.75456" lon="6.55014">
        <ele>1723.199</ele>
        <time>2022-08-20T13:07:33Z</time>
      </trkpt>
      <trkpt lat="45.75483" lon="6.54957">
        <ele>1713.455</ele>
        <time>2022-08-20T13:07:42Z</time>
      </trkpt>
      <trkpt lat="45.75532" lon="6.54914">
        <ele>1702.523</ele>
        <time>2022-08-20T13:07:52Z</time>
      </trkpt>
      <trkpt lat="45.75597" lon="6.54937">
        <ele>1696.529</ele>
        <time>2022-08-20T13:08:02Z</time>
      </trkpt>
      <trkpt lat="45.75625" lon="6.54939">
        <ele>1690.043</ele>
        <time>2022-08-20T13:08:11Z</time>
      </trkpt>
      <trkpt lat="45.75625" lon="6.54938">
        <ele>1688.783</ele>
        <time>2022-08-20T13:08:21Z</time>
      </trkpt>
      <trkpt lat="45.75624" lon="6.54938">
        <ele>1688.687</ele>
        <time>2022-08-20T13:08:30Z</time>
      </trkpt>
      <trkpt lat="45.75625" lon="6.54937">
        <ele>1690.966</ele>
        <time>2022-08-20T13:08:40Z</time>
      </trkpt>
      <trkpt lat="45.75625" lon="6.54937">
        <ele>1690.257</ele>
        <time>2022-08-20T13:08:50Z</time>
      </trkpt>
      <trkpt lat="45.75625" lon="6.54937">
        <ele>1690.22</ele>
        <time>2022-08-20T13:08:59Z</time>
      </trkpt>
      <trkpt lat="45.75625" lon="6.54937">
        <ele>1690.282</ele>
        <time>2022-08-20T13:09:09Z</time>
      </trkpt>
      <trkpt lat="45.75628" lon="6.54895">
        <ele>1689.357</ele>
        <time>2022-08-20T13:09:18Z</time>
      </trkpt>
      <trkpt lat="45.75632" lon="6.54835">
        <ele>1689.332</ele>
        <time>2022-08-20T13:09:28Z</time>
      </trkpt>
      <trkpt lat="45.75633" lon="6.54758">
        <ele>1684.019</ele>
        <time>2022-08-20T13:09:37Z</time>
      </trkpt>
      <trkpt lat="45.75629" lon="6.54731">
        <ele>1676.828</ele>
        <time>2022-08-20T13:09:47Z</time>
      </trkpt>
      <trkpt lat="45.75626" lon="6.54731">
        <ele>1676.66</ele>
        <time>2022-08-20T13:09:56Z</time>
      </trkpt>
      <trkpt lat="45.75601" lon="6.54731">
        <ele>1669.206</ele>
        <time>2022-08-20T13:10:06Z</time>
      </trkpt>
      <trkpt lat="45.75589" lon="6.54681">
        <ele>1660.85</ele>
        <time>2022-08-20T13:10:15Z</time>
      </trkpt>
      <trkpt lat="45.75567" lon="6.54651">
        <ele>1652.742</ele>
        <time>2022-08-20T13:10:24Z</time>
      </trkpt>
      <trkpt lat="45.75548" lon="6.54641">
        <ele>1636.704</ele>
        <time>2022-08-20T13:10:34Z</time>
      </trkpt>
      <trkpt lat="45.75533" lon="6.54641">
        <ele>1628.732</ele>
        <time>2022-08-20T13:10:43Z</time>
      </trkpt>
      <trkpt lat="45.75519" lon="6.54663">
        <ele>1617.21</ele>
        <time>2022-08-20T13:10:53Z</time>
      </trkpt>
      <trkpt lat="45.755" lon="6.54649">
        <ele>1612.395</ele>
        <time>2022-08-20T13:11:02Z</time>
      </trkpt>
      <trkpt lat="45.75453" lon="6.54644">
        <ele>1612.017</ele>
        <time>2022-08-20T13:11:12Z</time>
      </trkpt>
      <trkpt lat="45.75386" lon="6.54689">
        <ele>1606.706</ele>
        <time>2022-08-20T13:11:22Z</time>
      </trkpt>
      <trkpt lat="45.75367" lon="6.54665">
        <ele>1597.312</ele>
        <time>2022-08-20T13:11:32Z</time>
      </trkpt>
      <trkpt lat="45.75296" lon="6.54665">
        <ele>1584.567</ele>
        <time>2022-08-20T13:11:42Z</time>
      </trkpt>
      <trkpt lat="45.75258" lon="6.54593">
        <ele>1574.966</ele>
        <time>2022-08-20T13:11:51Z</time>
      </trkpt>
      <trkpt lat="45.75212" lon="6.54505">
        <ele>1569.083</ele>
        <time>2022-08-20T13:12:01Z</time>
      </trkpt>
      <trkpt lat="45.75202" lon="6.54427">
        <ele>1567.151</ele>
        <time>2022-08-20T13:12:11Z</time>
      </trkpt>
      <trkpt lat="45.75208" lon="6.54428">
        <ele>1567.913</ele>
        <time>2022-08-20T13:12:21Z</time>
      </trkpt>
      <trkpt lat="45.75207" lon="6.54431">
        <ele>1568.116</ele>
        <time>2022-08-20T13:12:31Z</time>
      </trkpt>
      <trkpt lat="45.75207" lon="6.5443">
        <ele>1569.505</ele>
        <time>2022-08-20T13:12:40Z</time>
      </trkpt>
      <trkpt lat="45.7521" lon="6.54439">
        <ele>1569.284</ele>
        <time>2022-08-20T13:12:49Z</time>
      </trkpt>
      <trkpt lat="45.75211" lon="6.54444">
        <ele>1567.725</ele>
        <time>2022-08-20T13:12:59Z</time>
      </trkpt>
      <trkpt lat="45.75212" lon="6.54446">
        <ele>1564.899</ele>
        <time>2022-08-20T13:13:08Z</time>
      </trkpt>
      <trkpt lat="45.75214" lon="6.54457">
        <ele>1559.981</ele>
        <time>2022-08-20T13:13:18Z</time>
      </trkpt>
      <trkpt lat="45.75225" lon="6.54488">
        <ele>1564.51</ele>
        <time>2022-08-20T13:13:27Z</time>
      </trkpt>
      <trkpt lat="45.75235" lon="6.54525">
        <ele>1573.456</ele>
        <time>2022-08-20T13:13:36Z</time>
      </trkpt>
      <trkpt lat="45.75246" lon="6.54563">
        <ele>1579.236</ele>
        <time>2022-08-20T13:13:46Z</time>
      </trkpt>
      <trkpt lat="45.75256" lon="6.54601">
        <ele>1583.474</ele>
        <time>2022-08-20T13:13:56Z</time>
      </trkpt>
      <trkpt lat="45.75266" lon="6.54635">
        <ele>1587.09</ele>
        <time>2022-08-20T13:14:05Z</time>
      </trkpt>
      <trkpt lat="45.75278" lon="6.54672">
        <ele>1591.992</ele>
        <time>2022-08-20T13:14:15Z</time>
      </trkpt>
      <trkpt lat="45.7529" lon="6.54709">
        <ele>1596.591</ele>
        <time>2022-08-20T13:14:25Z</time>
      </trkpt>
      <trkpt lat="45.753" lon="6.54743">
        <ele>1602.205</ele>
        <time>2022-08-20T13:14:34Z</time>
      </trkpt>
      <trkpt lat="45.7531" lon="6.5478">
        <ele>1610.723</ele>
        <time>2022-08-20T13:14:44Z</time>
      </trkpt>
      <trkpt lat="45.75319" lon="6.54811">
        <ele>1621.185</ele>
        <time>2022-08-20T13:14:53Z</time>
      </trkpt>
      <trkpt lat="45.75328" lon="6.54844">
        <ele>1637.236</ele>
        <time>2022-08-20T13:15:03Z</time>
      </trkpt>
      <trkpt lat="45.75338" lon="6.5488">
        <ele>1647.372</ele>
        <time>2022-08-20T13:15:13Z</time>
      </trkpt>
      <trkpt lat="45.75348" lon="6.54915">
        <ele>1659.91</ele>
        <time>2022-08-20T13:15:23Z</time>
      </trkpt>
      <trkpt lat="45.75357" lon="6.54946">
        <ele>1672.04</ele>
        <time>2022-08-20T13:15:32Z</time>
      </trkpt>
      <trkpt lat="45.75366" lon="6.54977">
        <ele>1682.816</ele>
        <time>2022-08-20T13:15:41Z</time>
      </trkpt>
      <trkpt lat="45.75376" lon="6.55008">
        <ele>1696.474</ele>
        <time>2022-08-20T13:15:50Z</time>
      </trkpt>
      <trkpt lat="45.75386" lon="6.55043">
        <ele>1707.886</ele>
        <time>2022-08-20T13:16:00Z</time>
      </trkpt>
      <trkpt lat="45.75396" lon="6.55078">
        <ele>1720.337</ele>
        <time>2022-08-20T13:16:10Z</time>
      </trkpt>
      <trkpt lat="45.75405" lon="6.55108">
        <ele>1731.613</ele>
        <time>2022-08-20T13:16:19Z</time>
      </trkpt>
      <trkpt lat="45.75416" lon="6.55143">
        <ele>1742.256</ele>
        <time>2022-08-20T13:16:29Z</time>
      </trkpt>
      <trkpt lat="45.75426" lon="6.55176">
        <ele>1751.134</ele>
        <time>2022-08-20T13:16:38Z</time>
      </trkpt>
      <trkpt lat="45.75436" lon="6.55213">
        <ele>1761.121</ele>
        <time>2022-08-20T13:16:48Z</time>
      </trkpt>
      <trkpt lat="45.75446" lon="6.55246">
        <ele>1770.518</ele>
        <time>2022-08-20T13:16:57Z</time>
      </trkpt>
      <trkpt lat="45.75456" lon="6.55279">
        <ele>1780.018</ele>
        <time>2022-08-20T13:17:07Z</time>
      </trkpt>
      <trkpt lat="45.75466" lon="6.55315">
        <ele>1788.511</ele>
        <time>2022-08-20T13:17:16Z</time>
      </trkpt>
      <trkpt lat="45.75475" lon="6.55348">
        <ele>1797.243</ele>
        <time>2022-08-20T13:17:25Z</time>
      </trkpt>
      <trkpt lat="45.75486" lon="6.55385">
        <ele>1806.631</ele>
        <time>2022-08-20T13:17:35Z</time>
      </trkpt>
      <trkpt lat="45.75496" lon="6.55421">
        <ele>1813.106</ele>
        <time>2022-08-20T13:17:45Z</time>
      </trkpt>
      <trkpt lat="45.75507" lon="6.55459">
        <ele>1818.568</ele>
        <time>2022-08-20T13:17:55Z</time>
      </trkpt>
      <trkpt lat="45.75518" lon="6.55496">
        <ele>1826.17</ele>
        <time>2022-08-20T13:18:05Z</time>
      </trkpt>
      <trkpt lat="45.7553" lon="6.55533">
        <ele>1831.911</ele>
        <time>2022-08-20T13:18:15Z</time>
      </trkpt>
      <trkpt lat="45.75541" lon="6.55568">
        <ele>1841.083</ele>
        <time>2022-08-20T13:18:25Z</time>
      </trkpt>
      <trkpt lat="45.75552" lon="6.55605">
        <ele>1850.428</ele>
        <time>2022-08-20T13:18:35Z</time>
      </trkpt>
      <trkpt lat="45.75562" lon="6.55639">
        <ele>1854.928</ele>
        <time>2022-08-20T13:18:44Z</time>
      </trkpt>
      <trkpt lat="45.75571" lon="6.55673">
        <ele>1857.103</ele>
        <time>2022-08-20T13:18:53Z</time>
      </trkpt>
      <trkpt lat="45.75582" lon="6.5571">
        <ele>1858.017</ele>
        <time>2022-08-20T13:19:03Z</time>
      </trkpt>
      <trkpt lat="45.75586" lon="6.55725">
        <ele>1857.732</ele>
        <time>2022-08-20T13:19:13Z</time>
      </trkpt>
      <trkpt lat="45.75589" lon="6.55741">
        <ele>1858.838</ele>
        <time>2022-08-20T13:19:23Z</time>
      </trkpt>
      <trkpt lat="45.75601" lon="6.55735">
        <ele>1857.055</ele>
        <time>2022-08-20T13:19:33Z</time>
      </trkpt>
      <trkpt lat="45.75601" lon="6.55733">
        <ele>1857.822</ele>
        <time>2022-08-20T13:19:43Z</time>
      </trkpt>
      <trkpt lat="45.75601" lon="6.55733">
        <ele>1858.649</ele>
        <time>2022-08-20T13:19:53Z</time>
      </trkpt>
      <trkpt lat="45.75601" lon="6.55733">
        <ele>1859.806</ele>
        <time>2022-08-20T13:20:02Z</time>
      </trkpt>
      <trkpt lat="45.75601" lon="6.55733">
        <ele>1859.823</ele>
        <time>2022-08-20T13:20:11Z</time>
      </trkpt>
      <trkpt lat="45.75601" lon="6.55733">
        <ele>1859.808</ele>
        <time>2022-08-20T13:20:20Z</time>
      </trkpt>
      <trkpt lat="45.75601" lon="6.55733">
        <ele>1859.797</ele>
        <time>2022-08-20T13:20:29Z</time>
      </trkpt>
      <trkpt lat="45.75601" lon="6.55733">
        <ele>1859.808</ele>
        <time>2022-08-20T13:20:39Z</time>
      </trkpt>
      <trkpt lat="45.75601" lon="6.55733">
        <ele>1859.809</ele>
        <time>2022-08-20T13:20:48Z</time>
      </trkpt>
      <trkpt lat="45.75601" lon="6.55733">
        <ele>1859.817</ele>
        <time>2022-08-20T13:20:57Z</time>
      </trkpt>
      <trkpt lat="45.75601" lon="6.55733">
        <ele>1859.825</ele>
        <time>2022-08-20T13:21:07Z</time>
      </trkpt>
      <trkpt lat="45.75601" lon="6.55733">
        <ele>1859.835</ele>
        <time>2022-08-20T13:21:16Z</time>
      </trkpt>
      <trkpt lat="45.75601" lon="6.55733">
        <ele>1859.825</ele>
        <time>2022-08-20T13:21:26Z</time>
      </trkpt>
      <trkpt lat="45.75601" lon="6.55733">
        <ele>1859.842</ele>
        <time>2022-08-20T13:21:35Z</time>
      </trkpt>
      <trkpt lat="45.75601" lon="6.55733">
        <ele>1859.84</ele>
        <time>2022-08-20T13:21:45Z</time>
      </trkpt>
      <trkpt lat="45.75601" lon="6.55733">
        <ele>1860.822</ele>
        <time>2022-08-20T13:21:55Z</time>
      </trkpt>
      <trkpt lat="45.75601" lon="6.55734">
        <ele>1860.538</ele>
        <time>2022-08-20T13:22:04Z</time>
      </trkpt>
      <trkpt lat="45.75601" lon="6.55734">
        <ele>1860.476</ele>
        <time>2022-08-20T13:22:14Z</time>
      </trkpt>
      <trkpt lat="45.75601" lon="6.55734">
        <ele>1860.412</ele>
        <time>2022-08-20T13:22:24Z</time>
      </trkpt>
      <trkpt lat="45.75601" lon="6.55734">
        <ele>1860.415</ele>
        <time>2022-08-20T13:22:33Z</time>
      </trkpt>
      <trkpt lat="45.75601" lon="6.55734">
        <ele>1860.391</ele>
        <time>2022-08-20T13:22:43Z</time>
      </trkpt>
      <trkpt lat="45.75601" lon="6.55734">
        <ele>1860.379</ele>
        <time>2022-08-20T13:22:52Z</time>
      </trkpt>
      <trkpt lat="45.75601" lon="6.55734">
        <ele>1860.376</ele>
        <time>2022-08-20T13:23:01Z</time>
      </trkpt>
      <trkpt lat="45.75601" lon="6.55734">
        <ele>1860.371</ele>
        <time>2022-08-20T13:23:11Z</time>
      </trkpt>
      <trkpt lat="45.75601" lon="6.55734">
        <ele>1860.352</ele>
        <time>2022-08-20T13:23:20Z</time>
      </trkpt>
      <trkpt lat="45.75601" lon="6.55734">
        <ele>1860.333</ele>
        <time>2022-08-20T13:23:30Z</time>
      </trkpt>
      <trkpt lat="45.75601" lon="6.55734">
        <ele>1860.346</ele>
        <time>2022-08-20T13:23:39Z</time>
      </trkpt>
      <trkpt lat="45.756" lon="6.55733">
        <ele>1860.47</ele>
        <time>2022-08-20T13:23:48Z</time>
      </trkpt>
      <trkpt lat="45.75601" lon="6.55733">
        <ele>1860.079</ele>
        <time>2022-08-20T13:23:58Z</time>
      </trkpt>
      <trkpt lat="45.75601" lon="6.55733">
        <ele>1860.081</ele>
        <time>2022-08-20T13:24:07Z</time>
      </trkpt>
      <trkpt lat="45.75601" lon="6.55733">
        <ele>1860.072</ele>
        <time>2022-08-20T13:24:16Z</time>
      </trkpt>
      <trkpt lat="45.75601" lon="6.55733">
        <ele>1860.061</ele>
        <time>2022-08-20T13:24:26Z</time>
      </trkpt>
      <trkpt lat="45.75601" lon="6.55733">
        <ele>1860.055</ele>
        <time>2022-08-20T13:24:36Z</time>
      </trkpt>
      <trkpt lat="45.75603" lon="6.55731">
        <ele>1859.037</ele>
        <time>2022-08-20T13:24:45Z</time>
      </trkpt>
      <trkpt lat="45.75621" lon="6.55686">
        <ele>1852.917</ele>
        <time>2022-08-20T13:24:54Z</time>
      </trkpt>
      <trkpt lat="45.75672" lon="6.55639">
        <ele>1849.522</ele>
        <time>2022-08-20T13:25:03Z</time>
      </trkpt>
      <trkpt lat="45.75718" lon="6.55603">
        <ele>1839.73</ele>
        <time>2022-08-20T13:25:13Z</time>
      </trkpt>
      <trkpt lat="45.75731" lon="6.55569">
        <ele>1833.125</ele>
        <time>2022-08-20T13:25:22Z</time>
      </trkpt>
      <trkpt lat="45.75783" lon="6.5554">
        <ele>1821.437</ele>
        <time>2022-08-20T13:25:32Z</time>
      </trkpt>
      <trkpt lat="45.7578" lon="6.55496">
        <ele>1814.557</ele>
        <time>2022-08-20T13:25:42Z</time>
      </trkpt>
      <trkpt lat="45.75776" lon="6.55444">
        <ele>1809.867</ele>
        <time>2022-08-20T13:25:51Z</time>
      </trkpt>
      <trkpt lat="45.75802" lon="6.55408">
        <ele>1804.697</ele>
        <time>2022-08-20T13:26:01Z</time>
      </trkpt>
      <trkpt lat="45.75809" lon="6.55351">
        <ele>1800.066</ele>
        <time>2022-08-20T13:26:10Z</time>
      </trkpt>
      <trkpt lat="45.75837" lon="6.55266">
        <ele>1794.005</ele>
        <time>2022-08-20T13:26:20Z</time>
      </trkpt>
      <trkpt lat="45.75872" lon="6.5517">
        <ele>1786.284</ele>
        <time>2022-08-20T13:26:30Z</time>
      </trkpt>
      <trkpt lat="45.75907" lon="6.55098">
        <ele>1781.66</ele>
        <time>2022-08-20T13:26:39Z</time>
      </trkpt>
      <trkpt lat="45.75925" lon="6.55049">
        <ele>1775.421</ele>
        <time>2022-08-20T13:26:48Z</time>
      </trkpt>
      <trkpt lat="45.75985" lon="6.55036">
        <ele>1773.004</ele>
        <time>2022-08-20T13:26:57Z</time>
      </trkpt>
      <trkpt lat="45.75992" lon="6.55018">
        <ele>1771.794</ele>
        <time>2022-08-20T13:27:06Z</time>
      </trkpt>
      <trkpt lat="45.75992" lon="6.55019">
        <ele>1771.388</ele>
        <time>2022-08-20T13:27:15Z</time>
      </trkpt>
      <trkpt lat="45.75992" lon="6.55019">
        <ele>1771.368</ele>
        <time>2022-08-20T13:27:25Z</time>
      </trkpt>
      <trkpt lat="45.75992" lon="6.55019">
        <ele>1772.061</ele>
        <time>2022-08-20T13:27:35Z</time>
      </trkpt>
      <trkpt lat="45.75992" lon="6.5502">
        <ele>1774.462</ele>
        <time>2022-08-20T13:27:44Z</time>
      </trkpt>
      <trkpt lat="45.75992" lon="6.5502">
        <ele>1774.471</ele>
        <time>2022-08-20T13:27:53Z</time>
      </trkpt>
      <trkpt lat="45.75982" lon="6.54994">
        <ele>1770.848</ele>
        <time>2022-08-20T13:28:02Z</time>
      </trkpt>
      <trkpt lat="45.75976" lon="6.54906">
        <ele>1760.218</ele>
        <time>2022-08-20T13:28:11Z</time>
      </trkpt>
      <trkpt lat="45.75947" lon="6.54801">
        <ele>1754.806</ele>
        <time>2022-08-20T13:28:21Z</time>
      </trkpt>
      <trkpt lat="45.75917" lon="6.54722">
        <ele>1753.678</ele>
        <time>2022-08-20T13:28:30Z</time>
      </trkpt>
      <trkpt lat="45.75939" lon="6.54637">
        <ele>1747.269</ele>
        <time>2022-08-20T13:28:40Z</time>
      </trkpt>
      <trkpt lat="45.75963" lon="6.54593">
        <ele>1745.1</ele>
        <time>2022-08-20T13:28:49Z</time>
      </trkpt>
      <trkpt lat="45.75974" lon="6.54561">
        <ele>1744.422</ele>
        <time>2022-08-20T13:28:58Z</time>
      </trkpt>
      <trkpt lat="45.75968" lon="6.54462">
        <ele>1739.019</ele>
        <time>2022-08-20T13:29:08Z</time>
      </trkpt>
      <trkpt lat="45.75961" lon="6.54349">
        <ele>1726.22</ele>
        <time>2022-08-20T13:29:18Z</time>
      </trkpt>
      <trkpt lat="45.75959" lon="6.54256">
        <ele>1722.384</ele>
        <time>2022-08-20T13:29:28Z</time>
      </trkpt>
      <trkpt lat="45.75956" lon="6.54181">
        <ele>1718.111</ele>
        <time>2022-08-20T13:29:37Z</time>
      </trkpt>
      <trkpt lat="45.75966" lon="6.54127">
        <ele>1712.718</ele>
        <time>2022-08-20T13:29:47Z</time>
      </trkpt>
      <trkpt lat="45.7595" lon="6.5406">
        <ele>1710.294</ele>
        <time>2022-08-20T13:29:56Z</time>
      </trkpt>
      <trkpt lat="45.75959" lon="6.53989">
        <ele>1707.156</ele>
        <time>2022-08-20T13:30:06Z</time>
      </trkpt>
      <trkpt lat="45.75972" lon="6.53944">
        <ele>1705.582</ele>
        <time>2022-08-20T13:30:15Z</time>
      </trkpt>
      <trkpt lat="45.75988" lon="6.53905">
        <ele>1702.869</ele>
        <time>2022-08-20T13:30:24Z</time>
      </trkpt>
      <trkpt lat="45.75995" lon="6.5389">
        <ele>1705.292</ele>
        <time>2022-08-20T13:30:33Z</time>
      </trkpt>
      <trkpt lat="45.75995" lon="6.5389">
        <ele>1708.891</ele>
        <time>2022-08-20T13:30:43Z</time>
      </trkpt>
      <trkpt lat="45.75995" lon="6.5389">
        <ele>1708.952</ele>
        <time>2022-08-20T13:30:52Z</time>
      </trkpt>
      <trkpt lat="45.75995" lon="6.5389">
        <ele>1708.954</ele>
        <time>2022-08-20T13:31:01Z</time>
      </trkpt>
      <trkpt lat="45.75995" lon="6.5389">
        <ele>1708.94</ele>
        <time>2022-08-20T13:31:10Z</time>
      </trkpt>
      <trkpt lat="45.75995" lon="6.5389">
        <ele>1708.924</ele>
        <time>2022-08-20T13:31:20Z</time>
      </trkpt>
      <trkpt lat="45.75995" lon="6.5389">
        <ele>1708.938</ele>
        <time>2022-08-20T13:31:30Z</time>
      </trkpt>
      <trkpt lat="45.75995" lon="6.5389">
        <ele>1708.939</ele>
        <time>2022-08-20T13:31:39Z</time>
      </trkpt>
      <trkpt lat="45.75995" lon="6.5389">
        <ele>1708.97</ele>
        <time>2022-08-20T13:31:49Z</time>
      </trkpt>
      <trkpt lat="45.75995" lon="6.5389">
        <ele>1709.003</ele>
        <time>2022-08-20T13:31:59Z</time>
      </trkpt>
      <trkpt lat="45.75995" lon="6.5389">
        <ele>1709.027</ele>
        <time>2022-08-20T13:32:09Z</time>
      </trkpt>
      <trkpt lat="45.75995" lon="6.5389">
        <ele>1709.042</ele>
        <time>2022-08-20T13:32:18Z</time>
      </trkpt>
      <trkpt lat="45.76005" lon="6.53861">
        <ele>1704.891</ele>
        <time>2022-08-20T13:32:27Z</time>
      </trkpt>
      <trkpt lat="45.76054" lon="6.53804">
        <ele>1696.749</ele>
        <time>2022-08-20T13:32:37Z</time>
      </trkpt>
      <trkpt lat="45.76045" lon="6.53711">
        <ele>1694.312</ele>
        <time>2022-08-20T13:32:47Z</time>
      </trkpt>
      <trkpt lat="45.76057" lon="6.53618">
        <ele>1682.279</ele>
        <time>2022-08-20T13:32:57Z</time>
      </trkpt>
      <trkpt lat="45.76021" lon="6.53581">
        <ele>1674.786</ele>
        <time>2022-08-20T13:33:06Z</time>
      </trkpt>
      <trkpt lat="45.75982" lon="6.53567">
        <ele>1666.338</ele>
        <time>2022-08-20T13:33:16Z</time>
      </trkpt>
      <trkpt lat="45.75958" lon="6.53553">
        <ele>1663.331</ele>
        <time>2022-08-20T13:33:25Z</time>
      </trkpt>
      <trkpt lat="45.75945" lon="6.53528">
        <ele>1662.306</ele>
        <time>2022-08-20T13:33:35Z</time>
      </trkpt>
      <trkpt lat="45.75929" lon="6.5349">
        <ele>1662.076</ele>
        <time>2022-08-20T13:33:44Z</time>
      </trkpt>
      <trkpt lat="45.75891" lon="6.53462">
        <ele>1657.124</ele>
        <time>2022-08-20T13:33:53Z</time>
      </trkpt>
      <trkpt lat="45.75879" lon="6.53432">
        <ele>1653.877</ele>
        <time>2022-08-20T13:34:03Z</time>
      </trkpt>
      <trkpt lat="45.75852" lon="6.53409">
        <ele>1650.391</ele>
        <time>2022-08-20T13:34:12Z</time>
      </trkpt>
      <trkpt lat="45.75818" lon="6.53385">
        <ele>1647.925</ele>
        <time>2022-08-20T13:34:22Z</time>
      </trkpt>
      <trkpt lat="45.75761" lon="6.53419">
        <ele>1642.284</ele>
        <time>2022-08-20T13:34:31Z</time>
      </trkpt>
      <trkpt lat="45.75678" lon="6.53482">
        <ele>1629.897</ele>
        <time>2022-08-20T13:34:41Z</time>
      </trkpt>
      <trkpt lat="45.75634" lon="6.53517">
        <ele>1626.439</ele>
        <time>2022-08-20T13:34:50Z</time>
      </trkpt>
      <trkpt lat="45.75631" lon="6.53563">
        <ele>1626.963</ele>
        <time>2022-08-20T13:34:59Z</time>
      </trkpt>
      <trkpt lat="45.75584" lon="6.53602">
        <ele>1621.255</ele>
        <time>2022-08-20T13:35:09Z</time>
      </trkpt>
      <trkpt lat="45.75536" lon="6.5353">
        <ele>1616.578</ele>
        <time>2022-08-20T13:35:19Z</time>
      </trkpt>
      <trkpt lat="45.75504" lon="6.53489">
        <ele>1616.717</ele>
        <time>2022-08-20T13:35:29Z</time>
      </trkpt>
      <trkpt lat="45.75466" lon="6.53463">
        <ele>1611.407</ele>
        <time>2022-08-20T13:35:38Z</time>
      </trkpt>
      <trkpt lat="45.75463" lon="6.53392">
        <ele>1611.025</ele>
        <time>2022-08-20T13:35:48Z</time>
      </trkpt>
      <trkpt lat="45.7547" lon="6.53352">
        <ele>1610.417</ele>
        <time>2022-08-20T13:35:57Z</time>
      </trkpt>
      <trkpt lat="45.75496" lon="6.53348">
        <ele>1612.44</ele>
        <time>2022-08-20T13:36:06Z</time>
      </trkpt>
      <trkpt lat="45.75518" lon="6.53361">
        <ele>1614.687</ele>
        <time>2022-08-20T13:36:16Z</time>
      </trkpt>
      <trkpt lat="45.75534" lon="6.53377">
        <ele>1617.268</ele>
        <time>2022-08-20T13:36:25Z</time>
      </trkpt>
      <trkpt lat="45.75546" lon="6.5337">
        <ele>1616.945</ele>
        <time>2022-08-20T13:36:34Z</time>
      </trkpt>
      <trkpt lat="45.75541" lon="6.53367">
        <ele>1616.456</ele>
        <time>2022-08-20T13:36:44Z</time>
      </trkpt>
      <trkpt lat="45.75543" lon="6.53361">
        <ele>1616.453</ele>
        <time>2022-08-20T13:36:53Z</time>
      </trkpt>
      <trkpt lat="45.75549" lon="6.53347">
        <ele>1615.956</ele>
        <time>2022-08-20T13:37:03Z</time>
      </trkpt>
      <trkpt lat="45.75542" lon="6.53337">
        <ele>1616.762</ele>
        <time>2022-08-20T13:37:13Z</time>
      </trkpt>
      <trkpt lat="45.75543" lon="6.5334">
        <ele>1615.643</ele>
        <time>2022-08-20T13:37:23Z</time>
      </trkpt>
      <trkpt lat="45.75541" lon="6.53344">
        <ele>1616.03</ele>
        <time>2022-08-20T13:37:32Z</time>
      </trkpt>
      <trkpt lat="45.7554" lon="6.53343">
        <ele>1614.559</ele>
        <time>2022-08-20T13:37:41Z</time>
      </trkpt>
      <trkpt lat="45.7555" lon="6.5335">
        <ele>1608.87</ele>
        <time>2022-08-20T13:37:51Z</time>
      </trkpt>
      <trkpt lat="45.75578" lon="6.53373">
        <ele>1614.223</ele>
        <time>2022-08-20T13:38:01Z</time>
      </trkpt>
      <trkpt lat="45.756" lon="6.53396">
        <ele>1621.577</ele>
        <time>2022-08-20T13:38:11Z</time>
      </trkpt>
      <trkpt lat="45.75622" lon="6.53419">
        <ele>1624.857</ele>
        <time>2022-08-20T13:38:21Z</time>
      </trkpt>
      <trkpt lat="45.75646" lon="6.53442">
        <ele>1629.833</ele>
        <time>2022-08-20T13:38:31Z</time>
      </trkpt>
      <trkpt lat="45.75667" lon="6.53462">
        <ele>1633.339</ele>
        <time>2022-08-20T13:38:40Z</time>
      </trkpt>
      <trkpt lat="45.7569" lon="6.53486">
        <ele>1636.616</ele>
        <time>2022-08-20T13:38:50Z</time>
      </trkpt>
      <trkpt lat="45.75712" lon="6.53508">
        <ele>1640.537</ele>
        <time>2022-08-20T13:39:00Z</time>
      </trkpt>
      <trkpt lat="45.75733" lon="6.53528">
        <ele>1644.668</ele>
        <time>2022-08-20T13:39:09Z</time>
      </trkpt>
      <trkpt lat="45.75754" lon="6.53548">
        <ele>1649.019</ele>
        <time>2022-08-20T13:39:18Z</time>
      </trkpt>
      <trkpt lat="45.75776" lon="6.5357">
        <ele>1652.37</ele>
        <time>2022-08-20T13:39:28Z</time>
      </trkpt>
      <trkpt lat="45.75799" lon="6.53593">
        <ele>1655.261</ele>
        <time>2022-08-20T13:39:38Z</time>
      </trkpt>
      <trkpt lat="45.75819" lon="6.53613">
        <ele>1660.535</ele>
        <time>2022-08-20T13:39:47Z</time>
      </trkpt>
      <trkpt lat="45.75841" lon="6.53636">
        <ele>1664.437</ele>
        <time>2022-08-20T13:39:57Z</time>
      </trkpt>
      <trkpt lat="45.75865" lon="6.53658">
        <ele>1668.861</ele>
        <time>2022-08-20T13:40:07Z</time>
      </trkpt>
      <trkpt lat="45.75885" lon="6.53679">
        <ele>1672.334</ele>
        <time>2022-08-20T13:40:16Z</time>
      </trkpt>
      <trkpt lat="45.75907" lon="6.53702">
        <ele>1675.822</ele>
        <time>2022-08-20T13:40:26Z</time>
      </trkpt>
      <trkpt lat="45.75928" lon="6.53722">
        <ele>1680.867</ele>
        <time>2022-08-20T13:40:35Z</time>
      </trkpt>
      <trkpt lat="45.7595" lon="6.53743">
        <ele>1687.128</ele>
        <time>2022-08-20T13:40:45Z</time>
      </trkpt>
      <trkpt lat="45.75973" lon="6.53766">
        <ele>1692.236</ele>
        <time>2022-08-20T13:40:55Z</time>
      </trkpt>
      <trkpt lat="45.75993" lon="6.53787">
        <ele>1696.007</ele>
        <time>2022-08-20T13:41:04Z</time>
      </trkpt>
      <trkpt lat="45.76012" lon="6.53807">
        <ele>1703.344</ele>
        <time>2022-08-20T13:41:13Z</time>
      </trkpt>
      <trkpt lat="45.76035" lon="6.53829">
        <ele>1709.174</ele>
        <time>2022-08-20T13:41:23Z</time>
      </trkpt>
      <trkpt lat="45.76057" lon="6.53851">
        <ele>1715.738</ele>
        <time>2022-08-20T13:41:33Z</time>
      </trkpt>
      <trkpt lat="45.76079" lon="6.53873">
        <ele>1720.403</ele>
        <time>2022-08-20T13:41:43Z</time>
      </trkpt>
      <trkpt lat="45.76099" lon="6.53894">
        <ele>1725.575</ele>
        <time>2022-08-20T13:41:52Z</time>
      </trkpt>
      <trkpt lat="45.7612" lon="6.53914">
        <ele>1732.204</ele>
        <time>2022-08-20T13:42:01Z</time>
      </trkpt>
      <trkpt lat="45.7614" lon="6.53933">
        <ele>1734.341</ele>
        <time>2022-08-20T13:42:10Z</time>
      </trkpt>
      <trkpt lat="45.76164" lon="6.53955">
        <ele>1737.721</ele>
        <time>2022-08-20T13:42:20Z</time>
      </trkpt>
      <trkpt lat="45.76186" lon="6.53977">
        <ele>1737.688</ele>
        <time>2022-08-20T13:42:30Z</time>
      </trkpt>
      <trkpt lat="45.76209" lon="6.54">
        <ele>1738.532</ele>
        <time>2022-08-20T13:42:40Z</time>
      </trkpt>
      <trkpt lat="45.76232" lon="6.54023">
        <ele>1742.436</ele>
        <time>2022-08-20T13:42:50Z</time>
      </trkpt>
      <trkpt lat="45.76254" lon="6.54046">
        <ele>1750.532</ele>
        <time>2022-08-20T13:43:00Z</time>
      </trkpt>
      <trkpt lat="45.76274" lon="6.54065">
        <ele>1760.137</ele>
        <time>2022-08-20T13:43:09Z</time>
      </trkpt>
      <trkpt lat="45.76295" lon="6.54086">
        <ele>1770.09</ele>
        <time>2022-08-20T13:43:19Z</time>
      </trkpt>
      <trkpt lat="45.76315" lon="6.54105">
        <ele>1779.199</ele>
        <time>2022-08-20T13:43:28Z</time>
      </trkpt>
      <trkpt lat="45.76337" lon="6.54127">
        <ele>1788.274</ele>
        <time>2022-08-20T13:43:38Z</time>
      </trkpt>
      <trkpt lat="45.76358" lon="6.54148">
        <ele>1795.942</ele>
        <time>2022-08-20T13:43:48Z</time>
      </trkpt>
      <trkpt lat="45.76379" lon="6.54168">
        <ele>1801.544</ele>
        <time>2022-08-20T13:43:57Z</time>
      </trkpt>
      <trkpt lat="45.76401" lon="6.54188">
        <ele>1808.018</ele>
        <time>2022-08-20T13:44:06Z</time>
      </trkpt>
      <trkpt lat="45.76419" lon="6.54207">
        <ele>1813.807</ele>
        <time>2022-08-20T13:44:15Z</time>
      </trkpt>
      <trkpt lat="45.76442" lon="6.54229">
        <ele>1815.011</ele>
        <time>2022-08-20T13:44:25Z</time>
      </trkpt>
      <trkpt lat="45.76464" lon="6.54251">
        <ele>1817.863</ele>
        <time>2022-08-20T13:44:35Z</time>
      </trkpt>
      <trkpt lat="45.76484" lon="6.54272">
        <ele>1819.977</ele>
        <time>2022-08-20T13:44:44Z</time>
      </trkpt>
      <trkpt lat="45.76507" lon="6.54297">
        <ele>1822.929</ele>
        <time>2022-08-20T13:44:54Z</time>
      </trkpt>
      <trkpt lat="45.76528" lon="6.54317">
        <ele>1826.509</ele>
        <time>2022-08-20T13:45:03Z</time>
      </trkpt>
      <trkpt lat="45.7655" lon="6.54339">
        <ele>1829.872</ele>
        <time>2022-08-20T13:45:13Z</time>
      </trkpt>
      <trkpt lat="45.7657" lon="6.54361">
        <ele>1832.236</ele>
        <time>2022-08-20T13:45:22Z</time>
      </trkpt>
      <trkpt lat="45.76593" lon="6.54383">
        <ele>1837.262</ele>
        <time>2022-08-20T13:45:32Z</time>
      </trkpt>
      <trkpt lat="45.76613" lon="6.54404">
        <ele>1842.479</ele>
        <time>2022-08-20T13:45:41Z</time>
      </trkpt>
      <trkpt lat="45.76636" lon="6.54424">
        <ele>1849.103</ele>
        <time>2022-08-20T13:45:51Z</time>
      </trkpt>
      <trkpt lat="45.76657" lon="6.54444">
        <ele>1854.383</ele>
        <time>2022-08-20T13:46:00Z</time>
      </trkpt>
      <trkpt lat="45.76677" lon="6.54465">
        <ele>1859.403</ele>
        <time>2022-08-20T13:46:09Z</time>
      </trkpt>
      <trkpt lat="45.76697" lon="6.54486">
        <ele>1864.566</ele>
        <time>2022-08-20T13:46:18Z</time>
      </trkpt>
      <trkpt lat="45.76717" lon="6.54506">
        <ele>1870.056</ele>
        <time>2022-08-20T13:46:27Z</time>
      </trkpt>
      <trkpt lat="45.76739" lon="6.54529">
        <ele>1873.74</ele>
        <time>2022-08-20T13:46:37Z</time>
      </trkpt>
      <trkpt lat="45.76762" lon="6.54551">
        <ele>1878.376</ele>
        <time>2022-08-20T13:46:47Z</time>
      </trkpt>
      <trkpt lat="45.76783" lon="6.54571">
        <ele>1883.963</ele>
        <time>2022-08-20T13:46:56Z</time>
      </trkpt>
      <trkpt lat="45.76803" lon="6.54591">
        <ele>1889.755</ele>
        <time>2022-08-20T13:47:05Z</time>
      </trkpt>
      <trkpt lat="45.76826" lon="6.54614">
        <ele>1890.19</ele>
        <time>2022-08-20T13:47:15Z</time>
      </trkpt>
      <trkpt lat="45.76848" lon="6.54636">
        <ele>1890.082</ele>
        <time>2022-08-20T13:47:25Z</time>
      </trkpt>
      <trkpt lat="45.76869" lon="6.54657">
        <ele>1890.229</ele>
        <time>2022-08-20T13:47:34Z</time>
      </trkpt>
      <trkpt lat="45.76891" lon="6.54679">
        <ele>1891.964</ele>
        <time>2022-08-20T13:47:44Z</time>
      </trkpt>
      <trkpt lat="45.76906" lon="6.54694">
        <ele>1890.629</ele>
        <time>2022-08-20T13:47:53Z</time>
      </trkpt>
      <trkpt lat="45.76912" lon="6.54694">
        <ele>1890.048</ele>
        <time>2022-08-20T13:48:02Z</time>
      </trkpt>
      <trkpt lat="45.76922" lon="6.54712">
        <ele>1891.285</ele>
        <time>2022-08-20T13:48:12Z</time>
      </trkpt>
      <trkpt lat="45.76927" lon="6.54716">
        <ele>1890.166</ele>
        <time>2022-08-20T13:48:22Z</time>
      </trkpt>
      <trkpt lat="45.76928" lon="6.54716">
        <ele>1890.034</ele>
        <time>2022-08-20T13:48:31Z</time>
      </trkpt>
      <trkpt lat="45.76928" lon="6.54716">
        <ele>1890.048</ele>
        <time>2022-08-20T13:48:41Z</time>
      </trkpt>
      <trkpt lat="45.76928" lon="6.54716">
        <ele>1890.063</ele>
        <time>2022-08-20T13:48:51Z</time>
      </trkpt>
      <trkpt lat="45.76928" lon="6.54716">
        <ele>1890.074</ele>
        <time>2022-08-20T13:49:00Z</time>
      </trkpt>
      <trkpt lat="45.76928" lon="6.54716">
        <ele>1890.107</ele>
        <time>2022-08-20T13:49:10Z</time>
      </trkpt>
      <trkpt lat="45.76928" lon="6.54716">
        <ele>1890.145</ele>
        <time>2022-08-20T13:49:19Z</time>
      </trkpt>
      <trkpt lat="45.76928" lon="6.54716">
        <ele>1890.166</ele>
        <time>2022-08-20T13:49:29Z</time>
      </trkpt>
      <trkpt lat="45.76928" lon="6.54716">
        <ele>1890.18</ele>
        <time>2022-08-20T13:49:38Z</time>
      </trkpt>
      <trkpt lat="45.76928" lon="6.54716">
        <ele>1890.198</ele>
        <time>2022-08-20T13:49:47Z</time>
      </trkpt>
      <trkpt lat="45.76928" lon="6.54716">
        <ele>1890.219</ele>
        <time>2022-08-20T13:49:57Z</time>
      </trkpt>
      <trkpt lat="45.76928" lon="6.54716">
        <ele>1890.238</ele>
        <time>2022-08-20T13:50:07Z</time>
      </trkpt>
      <trkpt lat="45.76928" lon="6.54716">
        <ele>1890.48</ele>
        <time>2022-08-20T13:50:16Z</time>
      </trkpt>
      <trkpt lat="45.76921" lon="6.54685">
        <ele>1889.485</ele>
        <time>2022-08-20T13:50:26Z</time>
      </trkpt>
      <trkpt lat="45.76863" lon="6.54652">
        <ele>1882.134</ele>
        <time>2022-08-20T13:50:36Z</time>
      </trkpt>
      <trkpt lat="45.76798" lon="6.54579">
        <ele>1877.68</ele>
        <time>2022-08-20T13:50:45Z</time>
      </trkpt>
      <trkpt lat="45.76763" lon="6.54493">
        <ele>1870.522</ele>
        <time>2022-08-20T13:50:54Z</time>
      </trkpt>
      <trkpt lat="45.76754" lon="6.54455">
        <ele>1864.944</ele>
        <time>2022-08-20T13:51:04Z</time>
      </trkpt>
      <trkpt lat="45.76725" lon="6.54424">
        <ele>1859.191</ele>
        <time>2022-08-20T13:51:14Z</time>
      </trkpt>
      <trkpt lat="45.76718" lon="6.54377">
        <ele>1852.562</ele>
        <time>2022-08-20T13:51:24Z</time>
      </trkpt>
      <trkpt lat="45.76702" lon="6.54319">
        <ele>1845.591</ele>
        <time>2022-08-20T13:51:34Z</time>
      </trkpt>
      <trkpt lat="45.76689" lon="6.54281">
        <ele>1835.7</ele>
        <time>2022-08-20T13:51:43Z</time>
      </trkpt>
      <trkpt lat="45.76673" lon="6.54253">
        <ele>1830.901</ele>
        <time>2022-08-20T13:51:52Z</time>
      </trkpt>
      <trkpt lat="45.7666" lon="6.54198">
        <ele>1818.317</ele>
        <time>2022-08-20T13:52:02Z</time>
      </trkpt>
      <trkpt lat="45.76642" lon="6.54183">
        <ele>1816.529</ele>
        <time>2022-08-20T13:52:11Z</time>
      </trkpt>
      <trkpt lat="45.76604" lon="6.54185">
        <ele>1812</ele>
        <time>2022-08-20T13:52:20Z</time>
      </trkpt>
      <trkpt lat="45.76582" lon="6.5417">
        <ele>1803.322</ele>
        <time>2022-08-20T13:52:30Z</time>
      </trkpt>
      <trkpt lat="45.76567" lon="6.54134">
        <ele>1796.552</ele>
        <time>2022-08-20T13:52:39Z</time>
      </trkpt>
      <trkpt lat="45.76531" lon="6.54054">
        <ele>1787.775</ele>
        <time>2022-08-20T13:52:49Z</time>
      </trkpt>
      <trkpt lat="45.76502" lon="6.53961">
        <ele>1778.104</ele>
        <time>2022-08-20T13:52:59Z</time>
      </trkpt>
      <trkpt lat="45.76478" lon="6.53909">
        <ele>1770.284</ele>
        <time>2022-08-20T13:53:09Z</time>
      </trkpt>
      <trkpt lat="45.76418" lon="6.53888">
        <ele>1764.426</ele>
        <time>2022-08-20T13:53:18Z</time>
      </trkpt>
      <trkpt lat="45.7638" lon="6.53881">
        <ele>1758.35</ele>
        <time>2022-08-20T13:53:28Z</time>
      </trkpt>
      <trkpt lat="45.76353" lon="6.53879">
        <ele>1750.552</ele>
        <time>2022-08-20T13:53:38Z</time>
      </trkpt>
      <trkpt lat="45.76349" lon="6.53885">
        <ele>1749.346</ele>
        <time>2022-08-20T13:53:47Z</time>
      </trkpt>
      <trkpt lat="45.76348" lon="6.53885">
        <ele>1749.311</ele>
        <time>2022-08-20T13:53:56Z</time>
      </trkpt>
      <trkpt lat="45.76349" lon="6.53885">
        <ele>1748.943</ele>
        <time>2022-08-20T13:54:06Z</time>
      </trkpt>
      <trkpt lat="45.76349" lon="6.53885">
        <ele>1748.932</ele>
        <time>2022-08-20T13:54:16Z</time>
      </trkpt>
      <trkpt lat="45.76349" lon="6.53885">
        <ele>1748.938</ele>
        <time>2022-08-20T13:54:26Z</time>
      </trkpt>
      <trkpt lat="45.76349" lon="6.53885">
        <ele>1748.948</ele>
        <time>2022-08-20T13:54:36Z</time>
      </trkpt>
      <trkpt lat="45.76346" lon="6.53886">
        <ele>1748.934</ele>
        <time>2022-08-20T13:54:45Z</time>
      </trkpt>
      <trkpt lat="45.76307" lon="6.53905">
        <ele>1741.298</ele>
        <time>2022-08-20T13:54:55Z</time>
      </trkpt>
      <trkpt lat="45.76281" lon="6.53876">
        <ele>1730.165</ele>
        <time>2022-08-20T13:55:05Z</time>
      </trkpt>
      <trkpt lat="45.76288" lon="6.53837">
        <ele>1720.629</ele>
        <time>2022-08-20T13:55:15Z</time>
      </trkpt>
      <trkpt lat="45.76288" lon="6.53801">
        <ele>1713.401</ele>
        <time>2022-08-20T13:55:24Z</time>
      </trkpt>
      <trkpt lat="45.76272" lon="6.53797">
        <ele>1709.143</ele>
        <time>2022-08-20T13:55:34Z</time>
      </trkpt>
      <trkpt lat="45.76275" lon="6.53752">
        <ele>1701.805</ele>
        <time>2022-08-20T13:55:43Z</time>
      </trkpt>
      <trkpt lat="45.7627" lon="6.53714">
        <ele>1693.53</ele>
        <time>2022-08-20T13:55:52Z</time>
      </trkpt>
      <trkpt lat="45.76275" lon="6.53658">
        <ele>1683.806</ele>
        <time>2022-08-20T13:56:02Z</time>
      </trkpt>
      <trkpt lat="45.76278" lon="6.53649">
        <ele>1684.646</ele>
        <time>2022-08-20T13:56:12Z</time>
      </trkpt>
      <trkpt lat="45.76278" lon="6.5365">
        <ele>1685.637</ele>
        <time>2022-08-20T13:56:22Z</time>
      </trkpt>
      <trkpt lat="45.76278" lon="6.5365">
        <ele>1685.63</ele>
        <time>2022-08-20T13:56:31Z</time>
      </trkpt>
      <trkpt lat="45.76278" lon="6.53649">
        <ele>1685.618</ele>
        <time>2022-08-20T13:56:40Z</time>
      </trkpt>
      <trkpt lat="45.76278" lon="6.53649">
        <ele>1685.63</ele>
        <time>2022-08-20T13:56:49Z</time>
      </trkpt>
      <trkpt lat="45.76278" lon="6.53649">
        <ele>1685.634</ele>
        <time>2022-08-20T13:56:59Z</time>
      </trkpt>
      <trkpt lat="45.76278" lon="6.53649">
        <ele>1685.614</ele>
        <time>2022-08-20T13:57:09Z</time>
      </trkpt>
      <trkpt lat="45.76278" lon="6.53649">
        <ele>1685.602</ele>
        <time>2022-08-20T13:57:18Z</time>
      </trkpt>
      <trkpt lat="45.76278" lon="6.53649">
        <ele>1685.583</ele>
        <time>2022-08-20T13:57:27Z</time>
      </trkpt>
      <trkpt lat="45.76278" lon="6.53649">
        <ele>1685.573</ele>
        <time>2022-08-20T13:57:37Z</time>
      </trkpt>
      <trkpt lat="45.76278" lon="6.53649">
        <ele>1685.571</ele>
        <time>2022-08-20T13:57:46Z</time>
      </trkpt>
      <trkpt lat="45.76278" lon="6.53649">
        <ele>1685.572</ele>
        <time>2022-08-20T13:57:55Z</time>
      </trkpt>
      <trkpt lat="45.76278" lon="6.53649">
        <ele>1685.571</ele>
        <time>2022-08-20T13:58:04Z</time>
      </trkpt>
      <trkpt lat="45.76278" lon="6.53649">
        <ele>1685.572</ele>
        <time>2022-08-20T13:58:14Z</time>
      </trkpt>
      <trkpt lat="45.76278" lon="6.53649">
        <ele>1685.542</ele>
        <time>2022-08-20T13:58:23Z</time>
      </trkpt>
      <trkpt lat="45.76278" lon="6.53649">
        <ele>1685.525</ele>
        <time>2022-08-20T13:58:33Z</time>
      </trkpt>
      <trkpt lat="45.76278" lon="6.53649">
        <ele>1685.514</ele>
        <time>2022-08-20T13:58:42Z</time>
      </trkpt>
      <trkpt lat="45.76278" lon="6.53649">
        <ele>1685.503</ele>
        <time>2022-08-20T13:58:51Z</time>
      </trkpt>
      <trkpt lat="45.76278" lon="6.53649">
        <ele>1685.49</ele>
        <time>2022-08-20T13:59:00Z</time>
      </trkpt>
      <trkpt lat="45.76278" lon="6.53649">
        <ele>1685.469</ele>
        <time>2022-08-20T13:59:10Z</time>
      </trkpt>
      <trkpt lat="45.76278" lon="6.53649">
        <ele>1685.452</ele>
        <time>2022-08-20T13:59:19Z</time>
      </trkpt>
      <trkpt lat="45.76278" lon="6.53649">
        <ele>1685.447</ele>
        <time>2022-08-20T13:59:29Z</time>
      </trkpt>
      <trkpt lat="45.76281" lon="6.53637">
        <ele>1683.458</ele>
        <time>2022-08-20T13:59:39Z</time>
      </trkpt>
      <trkpt lat="45.7628" lon="6.53602">
        <ele>1682.476</ele>
        <time>2022-08-20T13:59:49Z</time>
      </trkpt>
      <trkpt lat="45.7627" lon="6.53558">
        <ele>1683.648</ele>
        <time>2022-08-20T13:59:59Z</time>
      </trkpt>
      <trkpt lat="45.76251" lon="6.5352">
        <ele>1682.37</ele>
        <time>2022-08-20T14:00:09Z</time>
      </trkpt>
      <trkpt lat="45.76215" lon="6.53503">
        <ele>1680.771</ele>
        <time>2022-08-20T14:00:18Z</time>
      </trkpt>
      <trkpt lat="45.7615" lon="6.53511">
        <ele>1675.591</ele>
        <time>2022-08-20T14:00:28Z</time>
      </trkpt>
      <trkpt lat="45.76105" lon="6.53487">
        <ele>1673.361</ele>
        <time>2022-08-20T14:00:38Z</time>
      </trkpt>
      <trkpt lat="45.76042" lon="6.53494">
        <ele>1669.402</ele>
        <time>2022-08-20T14:00:47Z</time>
      </trkpt>
      <trkpt lat="45.75992" lon="6.53469">
        <ele>1664.924</ele>
        <time>2022-08-20T14:00:57Z</time>
      </trkpt>
      <trkpt lat="45.76015" lon="6.53415">
        <ele>1661.404</ele>
        <time>2022-08-20T14:01:07Z</time>
      </trkpt>
      <trkpt lat="45.76041" lon="6.53374">
        <ele>1660.103</ele>
        <time>2022-08-20T14:01:16Z</time>
      </trkpt>
      <trkpt lat="45.76034" lon="6.53351">
        <ele>1661.014</ele>
        <time>2022-08-20T14:01:26Z</time>
      </trkpt>
      <trkpt lat="45.76011" lon="6.53339">
        <ele>1660.427</ele>
        <time>2022-08-20T14:01:36Z</time>
      </trkpt>
      <trkpt lat="45.75979" lon="6.53358">
        <ele>1660.229</ele>
        <time>2022-08-20T14:01:46Z</time>
      </trkpt>
      <trkpt lat="45.75952" lon="6.5338">
        <ele>1659.214</ele>
        <time>2022-08-20T14:01:55Z</time>
      </trkpt>
      <trkpt lat="45.75925" lon="6.5341">
        <ele>1658.459</ele>
        <time>2022-08-20T14:02:05Z</time>
      </trkpt>
      <trkpt lat="45.75872" lon="6.53395">
        <ele>1655.783</ele>
        <time>2022-08-20T14:02:14Z</time>
      </trkpt>
      <trkpt lat="45.75809" lon="6.5336">
        <ele>1652.691</ele>
        <time>2022-08-20T14:02:24Z</time>
      </trkpt>
      <trkpt lat="45.75786" lon="6.5337">
        <ele>1648.015</ele>
        <time>2022-08-20T14:02:33Z</time>
      </trkpt>
      <trkpt lat="45.75784" lon="6.53395">
        <ele>1646.09</ele>
        <time>2022-08-20T14:02:43Z</time>
      </trkpt>
      <trkpt lat="45.75741" lon="6.53438">
        <ele>1637.102</ele>
        <time>2022-08-20T14:02:53Z</time>
      </trkpt>
      <trkpt lat="45.75668" lon="6.53498">
        <ele>1626.508</ele>
        <time>2022-08-20T14:03:03Z</time>
      </trkpt>
      <trkpt lat="45.75627" lon="6.53527">
        <ele>1623.624</ele>
        <time>2022-08-20T14:03:13Z</time>
      </trkpt>
      <trkpt lat="45.75634" lon="6.5356">
        <ele>1622.915</ele>
        <time>2022-08-20T14:03:22Z</time>
      </trkpt>
      <trkpt lat="45.75599" lon="6.53611">
        <ele>1622.258</ele>
        <time>2022-08-20T14:03:32Z</time>
      </trkpt>
      <trkpt lat="45.75556" lon="6.53559">
        <ele>1620.738</ele>
        <time>2022-08-20T14:03:41Z</time>
      </trkpt>
      <trkpt lat="45.75527" lon="6.53509">
        <ele>1620.942</ele>
        <time>2022-08-20T14:03:50Z</time>
      </trkpt>
      <trkpt lat="45.75501" lon="6.53487">
        <ele>1620.54</ele>
        <time>2022-08-20T14:04:00Z</time>
      </trkpt>
      <trkpt lat="45.75464" lon="6.53433">
        <ele>1613.857</ele>
        <time>2022-08-20T14:04:09Z</time>
      </trkpt>
      <trkpt lat="45.75465" lon="6.53358">
        <ele>1613.879</ele>
        <time>2022-08-20T14:04:19Z</time>
      </trkpt>
      <trkpt lat="45.75491" lon="6.53347">
        <ele>1613.917</ele>
        <time>2022-08-20T14:04:28Z</time>
      </trkpt>
      <trkpt lat="45.75513" lon="6.53356">
        <ele>1613.471</ele>
        <time>2022-08-20T14:04:37Z</time>
      </trkpt>
      <trkpt lat="45.75532" lon="6.53375">
        <ele>1613.751</ele>
        <time>2022-08-20T14:04:47Z</time>
      </trkpt>
      <trkpt lat="45.7554" lon="6.5337">
        <ele>1614.298</ele>
        <time>2022-08-20T14:04:57Z</time>
      </trkpt>
      <trkpt lat="45.75542" lon="6.53363">
        <ele>1613.696</ele>
        <time>2022-08-20T14:05:06Z</time>
      </trkpt>
      <trkpt lat="45.75542" lon="6.53363">
        <ele>1613.452</ele>
        <time>2022-08-20T14:05:16Z</time>
      </trkpt>
      <trkpt lat="45.75543" lon="6.5336">
        <ele>1614.364</ele>
        <time>2022-08-20T14:05:25Z</time>
      </trkpt>
      <trkpt lat="45.75543" lon="6.53361">
        <ele>1614.486</ele>
        <time>2022-08-20T14:05:35Z</time>
      </trkpt>
      <trkpt lat="45.75546" lon="6.53357">
        <ele>1614.137</ele>
        <time>2022-08-20T14:05:45Z</time>
      </trkpt>
      <trkpt lat="45.75547" lon="6.53355">
        <ele>1614.818</ele>
        <time>2022-08-20T14:05:55Z</time>
      </trkpt>
      <trkpt lat="45.75548" lon="6.53352">
        <ele>1614.321</ele>
        <time>2022-08-20T14:06:05Z</time>
      </trkpt>
      <trkpt lat="45.7555" lon="6.53353">
        <ele>1614.921</ele>
        <time>2022-08-20T14:06:14Z</time>
      </trkpt>
      <trkpt lat="45.75549" lon="6.5335">
        <ele>1614.217</ele>
        <time>2022-08-20T14:06:23Z</time>
      </trkpt>
      <trkpt lat="45.7555" lon="6.5335">
        <ele>1615.036</ele>
        <time>2022-08-20T14:06:33Z</time>
      </trkpt>
      <trkpt lat="45.75553" lon="6.53351">
        <ele>1615.753</ele>
        <time>2022-08-20T14:06:42Z</time>
      </trkpt>
      <trkpt lat="45.75562" lon="6.53359">
        <ele>1613.727</ele>
        <time>2022-08-20T14:06:52Z</time>
      </trkpt>
      <trkpt lat="45.75571" lon="6.53369">
        <ele>1615.026</ele>
        <time>2022-08-20T14:07:01Z</time>
      </trkpt>
      <trkpt lat="45.75585" lon="6.53383">
        <ele>1619.634</ele>
        <time>2022-08-20T14:07:11Z</time>
      </trkpt>
      <trkpt lat="45.75598" lon="6.53395">
        <ele>1624.082</ele>
        <time>2022-08-20T14:07:20Z</time>
      </trkpt>
      <trkpt lat="45.75615" lon="6.53413">
        <ele>1625.906</ele>
        <time>2022-08-20T14:07:29Z</time>
      </trkpt>
      <trkpt lat="45.75637" lon="6.53434">
        <ele>1629.74</ele>
        <time>2022-08-20T14:07:38Z</time>
      </trkpt>
      <trkpt lat="45.75659" lon="6.53456">
        <ele>1634.262</ele>
        <time>2022-08-20T14:07:48Z</time>
      </trkpt>
      <trkpt lat="45.75682" lon="6.53479">
        <ele>1636.904</ele>
        <time>2022-08-20T14:07:58Z</time>
      </trkpt>
      <trkpt lat="45.75703" lon="6.535">
        <ele>1642.279</ele>
        <time>2022-08-20T14:08:08Z</time>
      </trkpt>
      <trkpt lat="45.75724" lon="6.53522">
        <ele>1644.703</ele>
        <time>2022-08-20T14:08:17Z</time>
      </trkpt>
      <trkpt lat="45.75748" lon="6.53545">
        <ele>1649.264</ele>
        <time>2022-08-20T14:08:27Z</time>
      </trkpt>
      <trkpt lat="45.7577" lon="6.53567">
        <ele>1652.973</ele>
        <time>2022-08-20T14:08:37Z</time>
      </trkpt>
      <trkpt lat="45.75793" lon="6.53589">
        <ele>1655.548</ele>
        <time>2022-08-20T14:08:47Z</time>
      </trkpt>
      <trkpt lat="45.75814" lon="6.53609">
        <ele>1659.327</ele>
        <time>2022-08-20T14:08:56Z</time>
      </trkpt>
      <trkpt lat="45.75835" lon="6.5363">
        <ele>1662.564</ele>
        <time>2022-08-20T14:09:05Z</time>
      </trkpt>
      <trkpt lat="45.75856" lon="6.5365">
        <ele>1666.627</ele>
        <time>2022-08-20T14:09:14Z</time>
      </trkpt>
      <trkpt lat="45.75878" lon="6.53673">
        <ele>1670.89</ele>
        <time>2022-08-20T14:09:24Z</time>
      </trkpt>
      <trkpt lat="45.759" lon="6.53695">
        <ele>1674.371</ele>
        <time>2022-08-20T14:09:34Z</time>
      </trkpt>
      <trkpt lat="45.7592" lon="6.53715">
        <ele>1677.759</ele>
        <time>2022-08-20T14:09:43Z</time>
      </trkpt>
      <trkpt lat="45.75941" lon="6.53735">
        <ele>1683.445</ele>
        <time>2022-08-20T14:09:52Z</time>
      </trkpt>
      <trkpt lat="45.75961" lon="6.53755">
        <ele>1687.203</ele>
        <time>2022-08-20T14:10:01Z</time>
      </trkpt>
      <trkpt lat="45.75982" lon="6.53775">
        <ele>1692.267</ele>
        <time>2022-08-20T14:10:10Z</time>
      </trkpt>
      <trkpt lat="45.76004" lon="6.53797">
        <ele>1698.554</ele>
        <time>2022-08-20T14:10:20Z</time>
      </trkpt>
      <trkpt lat="45.76023" lon="6.53817">
        <ele>1704.75</ele>
        <time>2022-08-20T14:10:29Z</time>
      </trkpt>
      <trkpt lat="45.76046" lon="6.53839">
        <ele>1710.858</ele>
        <time>2022-08-20T14:10:39Z</time>
      </trkpt>
      <trkpt lat="45.76066" lon="6.53859">
        <ele>1717.285</ele>
        <time>2022-08-20T14:10:48Z</time>
      </trkpt>
      <trkpt lat="45.76088" lon="6.53882">
        <ele>1721.858</ele>
        <time>2022-08-20T14:10:58Z</time>
      </trkpt>
      <trkpt lat="45.76111" lon="6.53906">
        <ele>1727.167</ele>
        <time>2022-08-20T14:11:08Z</time>
      </trkpt>
      <trkpt lat="45.76133" lon="6.53928">
        <ele>1731.859</ele>
        <time>2022-08-20T14:11:18Z</time>
      </trkpt>
      <trkpt lat="45.76156" lon="6.5395">
        <ele>1735.779</ele>
        <time>2022-08-20T14:11:28Z</time>
      </trkpt>
      <trkpt lat="45.76176" lon="6.5397">
        <ele>1736.639</ele>
        <time>2022-08-20T14:11:37Z</time>
      </trkpt>
      <trkpt lat="45.76199" lon="6.53992">
        <ele>1737.863</ele>
        <time>2022-08-20T14:11:47Z</time>
      </trkpt>
      <trkpt lat="45.76222" lon="6.54015">
        <ele>1740.328</ele>
        <time>2022-08-20T14:11:57Z</time>
      </trkpt>
      <trkpt lat="45.76245" lon="6.54038">
        <ele>1746.576</ele>
        <time>2022-08-20T14:12:07Z</time>
      </trkpt>
      <trkpt lat="45.76264" lon="6.54056">
        <ele>1754.927</ele>
        <time>2022-08-20T14:12:16Z</time>
      </trkpt>
      <trkpt lat="45.76286" lon="6.54077">
        <ele>1765.46</ele>
        <time>2022-08-20T14:12:26Z</time>
      </trkpt>
      <trkpt lat="45.76306" lon="6.54096">
        <ele>1772.753</ele>
        <time>2022-08-20T14:12:35Z</time>
      </trkpt>
      <trkpt lat="45.76328" lon="6.54118">
        <ele>1783.396</ele>
        <time>2022-08-20T14:12:45Z</time>
      </trkpt>
      <trkpt lat="45.76347" lon="6.54136">
        <ele>1792.538</ele>
        <time>2022-08-20T14:12:54Z</time>
      </trkpt>
      <trkpt lat="45.76369" lon="6.54159">
        <ele>1798.973</ele>
        <time>2022-08-20T14:13:04Z</time>
      </trkpt>
      <trkpt lat="45.76391" lon="6.54182">
        <ele>1805.749</ele>
        <time>2022-08-20T14:13:14Z</time>
      </trkpt>
      <trkpt lat="45.76411" lon="6.54201">
        <ele>1812.162</ele>
        <time>2022-08-20T14:13:23Z</time>
      </trkpt>
      <trkpt lat="45.76432" lon="6.54222">
        <ele>1816.164</ele>
        <time>2022-08-20T14:13:32Z</time>
      </trkpt>
      <trkpt lat="45.76455" lon="6.54245">
        <ele>1819.376</ele>
        <time>2022-08-20T14:13:42Z</time>
      </trkpt>
      <trkpt lat="45.76478" lon="6.54267">
        <ele>1821.731</ele>
        <time>2022-08-20T14:13:52Z</time>
      </trkpt>
      <trkpt lat="45.76501" lon="6.5429">
        <ele>1824.44</ele>
        <time>2022-08-20T14:14:02Z</time>
      </trkpt>
      <trkpt lat="45.76523" lon="6.54312">
        <ele>1829.077</ele>
        <time>2022-08-20T14:14:12Z</time>
      </trkpt>
      <trkpt lat="45.76546" lon="6.54335">
        <ele>1833.741</ele>
        <time>2022-08-20T14:14:22Z</time>
      </trkpt>
      <trkpt lat="45.76566" lon="6.54356">
        <ele>1836.685</ele>
        <time>2022-08-20T14:14:31Z</time>
      </trkpt>
      <trkpt lat="45.76589" lon="6.54377">
        <ele>1841.249</ele>
        <time>2022-08-20T14:14:41Z</time>
      </trkpt>
      <trkpt lat="45.76609" lon="6.54399">
        <ele>1845.559</ele>
        <time>2022-08-20T14:14:50Z</time>
      </trkpt>
      <trkpt lat="45.76629" lon="6.54419">
        <ele>1849.543</ele>
        <time>2022-08-20T14:14:59Z</time>
      </trkpt>
      <trkpt lat="45.76652" lon="6.54441">
        <ele>1853.214</ele>
        <time>2022-08-20T14:15:09Z</time>
      </trkpt>
      <trkpt lat="45.76673" lon="6.54461">
        <ele>1858.394</ele>
        <time>2022-08-20T14:15:18Z</time>
      </trkpt>
      <trkpt lat="45.76696" lon="6.54484">
        <ele>1863.614</ele>
        <time>2022-08-20T14:15:28Z</time>
      </trkpt>
      <trkpt lat="45.76715" lon="6.54504">
        <ele>1869.48</ele>
        <time>2022-08-20T14:15:37Z</time>
      </trkpt>
      <trkpt lat="45.76735" lon="6.54523">
        <ele>1873.328</ele>
        <time>2022-08-20T14:15:46Z</time>
      </trkpt>
      <trkpt lat="45.76756" lon="6.54542">
        <ele>1876.306</ele>
        <time>2022-08-20T14:15:55Z</time>
      </trkpt>
      <trkpt lat="45.76778" lon="6.54566">
        <ele>1881.072</ele>
        <time>2022-08-20T14:16:05Z</time>
      </trkpt>
      <trkpt lat="45.76801" lon="6.54588">
        <ele>1887.43</ele>
        <time>2022-08-20T14:16:15Z</time>
      </trkpt>
      <trkpt lat="45.76823" lon="6.5461">
        <ele>1888.847</ele>
        <time>2022-08-20T14:16:25Z</time>
      </trkpt>
      <trkpt lat="45.76846" lon="6.54633">
        <ele>1889.332</ele>
        <time>2022-08-20T14:16:35Z</time>
      </trkpt>
      <trkpt lat="45.76867" lon="6.54653">
        <ele>1890.396</ele>
        <time>2022-08-20T14:16:44Z</time>
      </trkpt>
      <trkpt lat="45.7689" lon="6.54675">
        <ele>1893.453</ele>
        <time>2022-08-20T14:16:54Z</time>
      </trkpt>
      <trkpt lat="45.76906" lon="6.54693">
        <ele>1892.646</ele>
        <time>2022-08-20T14:17:03Z</time>
      </trkpt>
      <trkpt lat="45.76911" lon="6.54696">
        <ele>1892.472</ele>
        <time>2022-08-20T14:17:12Z</time>
      </trkpt>
      <trkpt lat="45.76912" lon="6.5471">
        <ele>1896.289</ele>
        <time>2022-08-20T14:17:22Z</time>
      </trkpt>
      <trkpt lat="45.7693" lon="6.54711">
        <ele>1894.038</ele>
        <time>2022-08-20T14:17:31Z</time>
      </trkpt>
      <trkpt lat="45.7693" lon="6.54711">
        <ele>1894.899</ele>
        <time>2022-08-20T14:17:41Z</time>
      </trkpt>
      <trkpt lat="45.76929" lon="6.54711">
        <ele>1894.25</ele>
        <time>2022-08-20T14:17:50Z</time>
      </trkpt>
      <trkpt lat="45.76929" lon="6.54711">
        <ele>1894.208</ele>
        <time>2022-08-20T14:18:00Z</time>
      </trkpt>
      <trkpt lat="45.76929" lon="6.54711">
        <ele>1894.19</ele>
        <time>2022-08-20T14:18:09Z</time>
      </trkpt>
      <trkpt lat="45.7693" lon="6.54711">
        <ele>1894.029</ele>
        <time>2022-08-20T14:18:19Z</time>
      </trkpt>
      <trkpt lat="45.7693" lon="6.54711">
        <ele>1895.448</ele>
        <time>2022-08-20T14:18:28Z</time>
      </trkpt>
      <trkpt lat="45.7693" lon="6.5471">
        <ele>1895.204</ele>
        <time>2022-08-20T14:18:38Z</time>
      </trkpt>
      <trkpt lat="45.7693" lon="6.5471">
        <ele>1895.518</ele>
        <time>2022-08-20T14:18:47Z</time>
      </trkpt>
      <trkpt lat="45.7693" lon="6.5471">
        <ele>1895.509</ele>
        <time>2022-08-20T14:18:57Z</time>
      </trkpt>
      <trkpt lat="45.7693" lon="6.5471">
        <ele>1895.522</ele>
        <time>2022-08-20T14:19:06Z</time>
      </trkpt>
      <trkpt lat="45.7693" lon="6.5471">
        <ele>1895.527</ele>
        <time>2022-08-20T14:19:16Z</time>
      </trkpt>
      <trkpt lat="45.76931" lon="6.54711">
        <ele>1894.276</ele>
        <time>2022-08-20T14:19:25Z</time>
      </trkpt>
      <trkpt lat="45.76931" lon="6.54711">
        <ele>1893.932</ele>
        <time>2022-08-20T14:19:34Z</time>
      </trkpt>
      <trkpt lat="45.76931" lon="6.54711">
        <ele>1893.918</ele>
        <time>2022-08-20T14:19:43Z</time>
      </trkpt>
      <trkpt lat="45.76931" lon="6.54711">
        <ele>1893.902</ele>
        <time>2022-08-20T14:19:53Z</time>
      </trkpt>
      <trkpt lat="45.76931" lon="6.54711">
        <ele>1893.885</ele>
        <time>2022-08-20T14:20:03Z</time>
      </trkpt>
      <trkpt lat="45.76932" lon="6.54712">
        <ele>1892.065</ele>
        <time>2022-08-20T14:20:12Z</time>
      </trkpt>
      <trkpt lat="45.76933" lon="6.54712">
        <ele>1891.477</ele>
        <time>2022-08-20T14:20:22Z</time>
      </trkpt>
      <trkpt lat="45.76933" lon="6.54712">
        <ele>1891.477</ele>
        <time>2022-08-20T14:20:31Z</time>
      </trkpt>
      <trkpt lat="45.76933" lon="6.54712">
        <ele>1891.472</ele>
        <time>2022-08-20T14:20:40Z</time>
      </trkpt>
      <trkpt lat="45.76933" lon="6.54712">
        <ele>1891.699</ele>
        <time>2022-08-20T14:20:49Z</time>
      </trkpt>
      <trkpt lat="45.76921" lon="6.54683">
        <ele>1889.098</ele>
        <time>2022-08-20T14:20:59Z</time>
      </trkpt>
      <trkpt lat="45.76874" lon="6.54659">
        <ele>1884.714</ele>
        <time>2022-08-20T14:21:08Z</time>
      </trkpt>
      <trkpt lat="45.76816" lon="6.54597">
        <ele>1878.424</ele>
        <time>2022-08-20T14:21:17Z</time>
      </trkpt>
      <trkpt lat="45.76784" lon="6.54541">
        <ele>1875.388</ele>
        <time>2022-08-20T14:21:27Z</time>
      </trkpt>
      <trkpt lat="45.76773" lon="6.54461">
        <ele>1867.744</ele>
        <time>2022-08-20T14:21:37Z</time>
      </trkpt>
      <trkpt lat="45.76757" lon="6.54415">
        <ele>1859.359</ele>
        <time>2022-08-20T14:21:46Z</time>
      </trkpt>
      <trkpt lat="45.76762" lon="6.54369">
        <ele>1854.234</ele>
        <time>2022-08-20T14:21:56Z</time>
      </trkpt>
      <trkpt lat="45.76758" lon="6.54357">
        <ele>1849.441</ele>
        <time>2022-08-20T14:22:05Z</time>
      </trkpt>
      <trkpt lat="45.76757" lon="6.54368">
        <ele>1849.267</ele>
        <time>2022-08-20T14:22:14Z</time>
      </trkpt>
      <trkpt lat="45.76751" lon="6.54379">
        <ele>1850.545</ele>
        <time>2022-08-20T14:22:24Z</time>
      </trkpt>
      <trkpt lat="45.76759" lon="6.54344">
        <ele>1847.808</ele>
        <time>2022-08-20T14:22:34Z</time>
      </trkpt>
      <trkpt lat="45.76749" lon="6.54303">
        <ele>1838.795</ele>
        <time>2022-08-20T14:22:44Z</time>
      </trkpt>
      <trkpt lat="45.76751" lon="6.54295">
        <ele>1835.332</ele>
        <time>2022-08-20T14:22:53Z</time>
      </trkpt>
      <trkpt lat="45.76751" lon="6.54295">
        <ele>1835.379</ele>
        <time>2022-08-20T14:23:03Z</time>
      </trkpt>
      <trkpt lat="45.76738" lon="6.54277">
        <ele>1829.477</ele>
        <time>2022-08-20T14:23:13Z</time>
      </trkpt>
      <trkpt lat="45.76704" lon="6.54272">
        <ele>1818.459</ele>
        <time>2022-08-20T14:23:23Z</time>
      </trkpt>
      <trkpt lat="45.76703" lon="6.54269">
        <ele>1818.767</ele>
        <time>2022-08-20T14:23:33Z</time>
      </trkpt>
      <trkpt lat="45.76702" lon="6.54267">
        <ele>1819.482</ele>
        <time>2022-08-20T14:23:43Z</time>
      </trkpt>
      <trkpt lat="45.76698" lon="6.54251">
        <ele>1825.234</ele>
        <time>2022-08-20T14:23:53Z</time>
      </trkpt>
      <trkpt lat="45.7668" lon="6.54224">
        <ele>1821.747</ele>
        <time>2022-08-20T14:24:02Z</time>
      </trkpt>
      <trkpt lat="45.76641" lon="6.54198">
        <ele>1817.015</ele>
        <time>2022-08-20T14:24:12Z</time>
      </trkpt>
      <trkpt lat="45.76632" lon="6.54193">
        <ele>1808.422</ele>
        <time>2022-08-20T14:24:21Z</time>
      </trkpt>
      <trkpt lat="45.766" lon="6.54161">
        <ele>1803.149</ele>
        <time>2022-08-20T14:24:31Z</time>
      </trkpt>
      <trkpt lat="45.76568" lon="6.54134">
        <ele>1797.011</ele>
        <time>2022-08-20T14:24:40Z</time>
      </trkpt>
      <trkpt lat="45.76533" lon="6.54055">
        <ele>1789.118</ele>
        <time>2022-08-20T14:24:49Z</time>
      </trkpt>
      <trkpt lat="45.76502" lon="6.53965">
        <ele>1778.546</ele>
        <time>2022-08-20T14:24:59Z</time>
      </trkpt>
      <trkpt lat="45.76474" lon="6.53905">
        <ele>1768.695</ele>
        <time>2022-08-20T14:25:09Z</time>
      </trkpt>
      <trkpt lat="45.76409" lon="6.53892">
        <ele>1760.357</ele>
        <time>2022-08-20T14:25:19Z</time>
      </trkpt>
      <trkpt lat="45.76373" lon="6.53886">
        <ele>1757.181</ele>
        <time>2022-08-20T14:25:28Z</time>
      </trkpt>
      <trkpt lat="45.76343" lon="6.5389">
        <ele>1748.911</ele>
        <time>2022-08-20T14:25:38Z</time>
      </trkpt>
      <trkpt lat="45.76293" lon="6.539">
        <ele>1736.846</ele>
        <time>2022-08-20T14:25:48Z</time>
      </trkpt>
      <trkpt lat="45.76269" lon="6.53866">
        <ele>1724.66</ele>
        <time>2022-08-20T14:25:58Z</time>
      </trkpt>
      <trkpt lat="45.76297" lon="6.538">
        <ele>1718.097</ele>
        <time>2022-08-20T14:26:07Z</time>
      </trkpt>
      <trkpt lat="45.76276" lon="6.53792">
        <ele>1709.48</ele>
        <time>2022-08-20T14:26:16Z</time>
      </trkpt>
      <trkpt lat="45.76279" lon="6.53749">
        <ele>1698.058</ele>
        <time>2022-08-20T14:26:26Z</time>
      </trkpt>
      <trkpt lat="45.76273" lon="6.53709">
        <ele>1686.199</ele>
        <time>2022-08-20T14:26:35Z</time>
      </trkpt>
      <trkpt lat="45.76278" lon="6.53655">
        <ele>1684.384</ele>
        <time>2022-08-20T14:26:45Z</time>
      </trkpt>
      <trkpt lat="45.76277" lon="6.53651">
        <ele>1682.374</ele>
        <time>2022-08-20T14:26:54Z</time>
      </trkpt>
      <trkpt lat="45.76276" lon="6.53652">
        <ele>1681.058</ele>
        <time>2022-08-20T14:27:04Z</time>
      </trkpt>
      <trkpt lat="45.76276" lon="6.53653">
        <ele>1682.328</ele>
        <time>2022-08-20T14:27:13Z</time>
      </trkpt>
      <trkpt lat="45.76276" lon="6.53653">
        <ele>1681.984</ele>
        <time>2022-08-20T14:27:23Z</time>
      </trkpt>
      <trkpt lat="45.76277" lon="6.53654">
        <ele>1684.007</ele>
        <time>2022-08-20T14:27:32Z</time>
      </trkpt>
      <trkpt lat="45.76277" lon="6.53654">
        <ele>1685.53</ele>
        <time>2022-08-20T14:27:42Z</time>
      </trkpt>
      <trkpt lat="45.76279" lon="6.53652">
        <ele>1681.888</ele>
        <time>2022-08-20T14:27:51Z</time>
      </trkpt>
      <trkpt lat="45.76279" lon="6.53651">
        <ele>1679.397</ele>
        <time>2022-08-20T14:28:00Z</time>
      </trkpt>
      <trkpt lat="45.76279" lon="6.53649">
        <ele>1677.336</ele>
        <time>2022-08-20T14:28:10Z</time>
      </trkpt>
      <trkpt lat="45.76278" lon="6.53649">
        <ele>1677.455</ele>
        <time>2022-08-20T14:28:20Z</time>
      </trkpt>
      <trkpt lat="45.76278" lon="6.53649">
        <ele>1677.492</ele>
        <time>2022-08-20T14:28:29Z</time>
      </trkpt>
      <trkpt lat="45.76278" lon="6.53649">
        <ele>1677.541</ele>
        <time>2022-08-20T14:28:38Z</time>
      </trkpt>
      <trkpt lat="45.7628" lon="6.53642">
        <ele>1680.809</ele>
        <time>2022-08-20T14:28:48Z</time>
      </trkpt>
      <trkpt lat="45.76282" lon="6.53614">
        <ele>1683.31</ele>
        <time>2022-08-20T14:28:57Z</time>
      </trkpt>
      <trkpt lat="45.76276" lon="6.53575">
        <ele>1683.335</ele>
        <time>2022-08-20T14:29:07Z</time>
      </trkpt>
      <trkpt lat="45.7626" lon="6.53541">
        <ele>1681.131</ele>
        <time>2022-08-20T14:29:17Z</time>
      </trkpt>
      <trkpt lat="45.76237" lon="6.53513">
        <ele>1678.209</ele>
        <time>2022-08-20T14:29:26Z</time>
      </trkpt>
      <trkpt lat="45.76191" lon="6.53517">
        <ele>1677.248</ele>
        <time>2022-08-20T14:29:35Z</time>
      </trkpt>
      <trkpt lat="45.7613" lon="6.53513">
        <ele>1675.402</ele>
        <time>2022-08-20T14:29:44Z</time>
      </trkpt>
      <trkpt lat="45.76088" lon="6.5354">
        <ele>1678.687</ele>
        <time>2022-08-20T14:29:54Z</time>
      </trkpt>
      <trkpt lat="45.76063" lon="6.53604">
        <ele>1682.267</ele>
        <time>2022-08-20T14:30:04Z</time>
      </trkpt>
      <trkpt lat="45.76024" lon="6.53607">
        <ele>1675.963</ele>
        <time>2022-08-20T14:30:13Z</time>
      </trkpt>
      <trkpt lat="45.76001" lon="6.53561">
        <ele>1668.843</ele>
        <time>2022-08-20T14:30:23Z</time>
      </trkpt>
      <trkpt lat="45.75964" lon="6.53557">
        <ele>1666.401</ele>
        <time>2022-08-20T14:30:32Z</time>
      </trkpt>
      <trkpt lat="45.75941" lon="6.53521">
        <ele>1663.116</ele>
        <time>2022-08-20T14:30:42Z</time>
      </trkpt>
      <trkpt lat="45.75912" lon="6.53483">
        <ele>1662.254</ele>
        <time>2022-08-20T14:30:51Z</time>
      </trkpt>
      <trkpt lat="45.75875" lon="6.53425">
        <ele>1655.217</ele>
        <time>2022-08-20T14:31:00Z</time>
      </trkpt>
      <trkpt lat="45.75834" lon="6.53399">
        <ele>1652.999</ele>
        <time>2022-08-20T14:31:09Z</time>
      </trkpt>
      <trkpt lat="45.75781" lon="6.53402">
        <ele>1645.924</ele>
        <time>2022-08-20T14:31:19Z</time>
      </trkpt>
      <trkpt lat="45.75701" lon="6.53469">
        <ele>1632.59</ele>
        <time>2022-08-20T14:31:29Z</time>
      </trkpt>
      <trkpt lat="45.7565" lon="6.53525">
        <ele>1627.069</ele>
        <time>2022-08-20T14:31:39Z</time>
      </trkpt>
      <trkpt lat="45.75629" lon="6.53549">
        <ele>1625.411</ele>
        <time>2022-08-20T14:31:48Z</time>
      </trkpt>
      <trkpt lat="45.75602" lon="6.53612">
        <ele>1621.575</ele>
        <time>2022-08-20T14:31:58Z</time>
      </trkpt>
      <trkpt lat="45.75552" lon="6.53557">
        <ele>1618.751</ele>
        <time>2022-08-20T14:32:08Z</time>
      </trkpt>
      <trkpt lat="45.75518" lon="6.53503">
        <ele>1619.153</ele>
        <time>2022-08-20T14:32:17Z</time>
      </trkpt>
      <trkpt lat="45.75467" lon="6.53466">
        <ele>1612.374</ele>
        <time>2022-08-20T14:32:26Z</time>
      </trkpt>
      <trkpt lat="45.75465" lon="6.53377">
        <ele>1613.734</ele>
        <time>2022-08-20T14:32:35Z</time>
      </trkpt>
      <trkpt lat="45.75493" lon="6.53347">
        <ele>1615.105</ele>
        <time>2022-08-20T14:32:45Z</time>
      </trkpt>
      <trkpt lat="45.75521" lon="6.53362">
        <ele>1617.379</ele>
        <time>2022-08-20T14:32:55Z</time>
      </trkpt>
      <trkpt lat="45.75539" lon="6.5337">
        <ele>1617.133</ele>
        <time>2022-08-20T14:33:04Z</time>
      </trkpt>
      <trkpt lat="45.75541" lon="6.53366">
        <ele>1617.848</ele>
        <time>2022-08-20T14:33:14Z</time>
      </trkpt>
      <trkpt lat="45.75541" lon="6.53366">
        <ele>1617.961</ele>
        <time>2022-08-20T14:33:24Z</time>
      </trkpt>
      <trkpt lat="45.75541" lon="6.53366">
        <ele>1617.973</ele>
        <time>2022-08-20T14:33:33Z</time>
      </trkpt>
      <trkpt lat="45.75542" lon="6.53366">
        <ele>1618.253</ele>
        <time>2022-08-20T14:33:43Z</time>
      </trkpt>
      <trkpt lat="45.75542" lon="6.53366">
        <ele>1618.262</ele>
        <time>2022-08-20T14:33:53Z</time>
      </trkpt>
      <trkpt lat="45.75542" lon="6.53366">
        <ele>1618.276</ele>
        <time>2022-08-20T14:34:02Z</time>
      </trkpt>
      <trkpt lat="45.75542" lon="6.53366">
        <ele>1618.268</ele>
        <time>2022-08-20T14:34:12Z</time>
      </trkpt>
      <trkpt lat="45.75542" lon="6.53366">
        <ele>1618.235</ele>
        <time>2022-08-20T14:34:22Z</time>
      </trkpt>
      <trkpt lat="45.75543" lon="6.53363">
        <ele>1618.106</ele>
        <time>2022-08-20T14:34:31Z</time>
      </trkpt>
      <trkpt lat="45.75543" lon="6.53362">
        <ele>1618.133</ele>
        <time>2022-08-20T14:34:40Z</time>
      </trkpt>
      <trkpt lat="45.75543" lon="6.5336">
        <ele>1618.057</ele>
        <time>2022-08-20T14:34:50Z</time>
      </trkpt>
      <trkpt lat="45.75543" lon="6.5336">
        <ele>1618.064</ele>
        <time>2022-08-20T14:34:59Z</time>
      </trkpt>
      <trkpt lat="45.75544" lon="6.53359">
        <ele>1618.134</ele>
        <time>2022-08-20T14:35:09Z</time>
      </trkpt>
      <trkpt lat="45.75544" lon="6.53359">
        <ele>1618.165</ele>
        <time>2022-08-20T14:35:19Z</time>
      </trkpt>
      <trkpt lat="45.75546" lon="6.53359">
        <ele>1618.234</ele>
        <time>2022-08-20T14:35:29Z</time>
      </trkpt>
      <trkpt lat="45.75545" lon="6.53353">
        <ele>1618.122</ele>
        <time>2022-08-20T14:35:39Z</time>
      </trkpt>
      <trkpt lat="45.75549" lon="6.53352">
        <ele>1616.581</ele>
        <time>2022-08-20T14:35:49Z</time>
      </trkpt>
      <trkpt lat="45.75549" lon="6.53349">
        <ele>1615.548</ele>
        <time>2022-08-20T14:35:59Z</time>
      </trkpt>
      <trkpt lat="45.75552" lon="6.53348">
        <ele>1613.964</ele>
        <time>2022-08-20T14:36:09Z</time>
      </trkpt>
      <trkpt lat="45.75567" lon="6.53368">
        <ele>1612.72</ele>
        <time>2022-08-20T14:36:19Z</time>
      </trkpt>
      <trkpt lat="45.75595" lon="6.53395">
        <ele>1625.47</ele>
        <time>2022-08-20T14:36:29Z</time>
      </trkpt>
      <trkpt lat="45.75616" lon="6.53416">
        <ele>1627.972</ele>
        <time>2022-08-20T14:36:38Z</time>
      </trkpt>
      <trkpt lat="45.75634" lon="6.53438">
        <ele>1630.404</ele>
        <time>2022-08-20T14:36:48Z</time>
      </trkpt>
      <trkpt lat="45.75658" lon="6.5346">
        <ele>1632.685</ele>
        <time>2022-08-20T14:36:58Z</time>
      </trkpt>
      <trkpt lat="45.7568" lon="6.5348">
        <ele>1635.545</ele>
        <time>2022-08-20T14:37:07Z</time>
      </trkpt>
      <trkpt lat="45.75703" lon="6.53502">
        <ele>1642.6</ele>
        <time>2022-08-20T14:37:17Z</time>
      </trkpt>
      <trkpt lat="45.75724" lon="6.53523">
        <ele>1644.733</ele>
        <time>2022-08-20T14:37:26Z</time>
      </trkpt>
      <trkpt lat="45.75747" lon="6.53546">
        <ele>1650.673</ele>
        <time>2022-08-20T14:37:36Z</time>
      </trkpt>
      <trkpt lat="45.75771" lon="6.53569">
        <ele>1654.657</ele>
        <time>2022-08-20T14:37:46Z</time>
      </trkpt>
      <trkpt lat="45.75791" lon="6.53588">
        <ele>1657.994</ele>
        <time>2022-08-20T14:37:55Z</time>
      </trkpt>
      <trkpt lat="45.75812" lon="6.5361">
        <ele>1660.863</ele>
        <time>2022-08-20T14:38:05Z</time>
      </trkpt>
      <trkpt lat="45.75834" lon="6.53633">
        <ele>1664.341</ele>
        <time>2022-08-20T14:38:15Z</time>
      </trkpt>
      <trkpt lat="45.75856" lon="6.53653">
        <ele>1670.156</ele>
        <time>2022-08-20T14:38:24Z</time>
      </trkpt>
      <trkpt lat="45.7588" lon="6.53676">
        <ele>1674.918</ele>
        <time>2022-08-20T14:38:34Z</time>
      </trkpt>
      <trkpt lat="45.75902" lon="6.53699">
        <ele>1677.078</ele>
        <time>2022-08-20T14:38:44Z</time>
      </trkpt>
      <trkpt lat="45.75924" lon="6.53721">
        <ele>1681.403</ele>
        <time>2022-08-20T14:38:54Z</time>
      </trkpt>
      <trkpt lat="45.75943" lon="6.5374">
        <ele>1683.988</ele>
        <time>2022-08-20T14:39:03Z</time>
      </trkpt>
      <trkpt lat="45.75966" lon="6.53764">
        <ele>1690.147</ele>
        <time>2022-08-20T14:39:13Z</time>
      </trkpt>
      <trkpt lat="45.75987" lon="6.53785">
        <ele>1692.953</ele>
        <time>2022-08-20T14:39:22Z</time>
      </trkpt>
      <trkpt lat="45.76008" lon="6.53806">
        <ele>1699.341</ele>
        <time>2022-08-20T14:39:32Z</time>
      </trkpt>
      <trkpt lat="45.76028" lon="6.53826">
        <ele>1706.048</ele>
        <time>2022-08-20T14:39:41Z</time>
      </trkpt>
      <trkpt lat="45.76047" lon="6.53846">
        <ele>1709.07</ele>
        <time>2022-08-20T14:39:50Z</time>
      </trkpt>
      <trkpt lat="45.7607" lon="6.53868">
        <ele>1715.683</ele>
        <time>2022-08-20T14:40:00Z</time>
      </trkpt>
      <trkpt lat="45.76092" lon="6.5389">
        <ele>1721.413</ele>
        <time>2022-08-20T14:40:09Z</time>
      </trkpt>
      <trkpt lat="45.76116" lon="6.53911">
        <ele>1729.734</ele>
        <time>2022-08-20T14:40:19Z</time>
      </trkpt>
      <trkpt lat="45.76137" lon="6.53931">
        <ele>1735.871</ele>
        <time>2022-08-20T14:40:29Z</time>
      </trkpt>
      <trkpt lat="45.76154" lon="6.53947">
        <ele>1738.39</ele>
        <time>2022-08-20T14:40:38Z</time>
      </trkpt>
      <trkpt lat="45.76164" lon="6.53957">
        <ele>1739.399</ele>
        <time>2022-08-20T14:40:47Z</time>
      </trkpt>
      <trkpt lat="45.76181" lon="6.53975">
        <ele>1740.627</ele>
        <time>2022-08-20T14:40:56Z</time>
      </trkpt>
      <trkpt lat="45.76203" lon="6.53996">
        <ele>1739.535</ele>
        <time>2022-08-20T14:41:06Z</time>
      </trkpt>
      <trkpt lat="45.76224" lon="6.54019">
        <ele>1742.47</ele>
        <time>2022-08-20T14:41:16Z</time>
      </trkpt>
      <trkpt lat="45.76244" lon="6.5404">
        <ele>1745.293</ele>
        <time>2022-08-20T14:41:25Z</time>
      </trkpt>
      <trkpt lat="45.76264" lon="6.54058">
        <ele>1754.936</ele>
        <time>2022-08-20T14:41:34Z</time>
      </trkpt>
      <trkpt lat="45.76284" lon="6.54079">
        <ele>1765.33</ele>
        <time>2022-08-20T14:41:44Z</time>
      </trkpt>
      <trkpt lat="45.76307" lon="6.54101">
        <ele>1776.584</ele>
        <time>2022-08-20T14:41:53Z</time>
      </trkpt>
      <trkpt lat="45.76325" lon="6.5412">
        <ele>1785.37</ele>
        <time>2022-08-20T14:42:02Z</time>
      </trkpt>
      <trkpt lat="45.76348" lon="6.54141">
        <ele>1794.857</ele>
        <time>2022-08-20T14:42:12Z</time>
      </trkpt>
      <trkpt lat="45.76368" lon="6.54162">
        <ele>1798.714</ele>
        <time>2022-08-20T14:42:22Z</time>
      </trkpt>
      <trkpt lat="45.76389" lon="6.54183">
        <ele>1805.365</ele>
        <time>2022-08-20T14:42:31Z</time>
      </trkpt>
      <trkpt lat="45.76413" lon="6.54205">
        <ele>1813.379</ele>
        <time>2022-08-20T14:42:41Z</time>
      </trkpt>
      <trkpt lat="45.76436" lon="6.54227">
        <ele>1818.3</ele>
        <time>2022-08-20T14:42:51Z</time>
      </trkpt>
      <trkpt lat="45.76458" lon="6.54248">
        <ele>1822.05</ele>
        <time>2022-08-20T14:43:00Z</time>
      </trkpt>
      <trkpt lat="45.7648" lon="6.5427">
        <ele>1823.686</ele>
        <time>2022-08-20T14:43:10Z</time>
      </trkpt>
      <trkpt lat="45.76501" lon="6.54292">
        <ele>1827.325</ele>
        <time>2022-08-20T14:43:20Z</time>
      </trkpt>
      <trkpt lat="45.76522" lon="6.54314">
        <ele>1830.706</ele>
        <time>2022-08-20T14:43:30Z</time>
      </trkpt>
      <trkpt lat="45.76543" lon="6.54335">
        <ele>1834.531</ele>
        <time>2022-08-20T14:43:39Z</time>
      </trkpt>
      <trkpt lat="45.76564" lon="6.54357">
        <ele>1837.833</ele>
        <time>2022-08-20T14:43:49Z</time>
      </trkpt>
      <trkpt lat="45.76587" lon="6.54381">
        <ele>1841.608</ele>
        <time>2022-08-20T14:43:59Z</time>
      </trkpt>
      <trkpt lat="45.76612" lon="6.54404">
        <ele>1848.405</ele>
        <time>2022-08-20T14:44:09Z</time>
      </trkpt>
      <trkpt lat="45.76634" lon="6.54427">
        <ele>1851.959</ele>
        <time>2022-08-20T14:44:19Z</time>
      </trkpt>
      <trkpt lat="45.76652" lon="6.54443">
        <ele>1856.963</ele>
        <time>2022-08-20T14:44:29Z</time>
      </trkpt>
      <trkpt lat="45.76662" lon="6.54454">
        <ele>1859.072</ele>
        <time>2022-08-20T14:44:38Z</time>
      </trkpt>
      <trkpt lat="45.76673" lon="6.54465">
        <ele>1862.623</ele>
        <time>2022-08-20T14:44:48Z</time>
      </trkpt>
      <trkpt lat="45.76685" lon="6.54476">
        <ele>1865.347</ele>
        <time>2022-08-20T14:44:57Z</time>
      </trkpt>
      <trkpt lat="45.76705" lon="6.54495">
        <ele>1869.167</ele>
        <time>2022-08-20T14:45:07Z</time>
      </trkpt>
      <trkpt lat="45.76726" lon="6.54518">
        <ele>1874.827</ele>
        <time>2022-08-20T14:45:17Z</time>
      </trkpt>
      <trkpt lat="45.7675" lon="6.5454">
        <ele>1882.267</ele>
        <time>2022-08-20T14:45:27Z</time>
      </trkpt>
      <trkpt lat="45.76772" lon="6.54563">
        <ele>1884.984</ele>
        <time>2022-08-20T14:45:37Z</time>
      </trkpt>
      <trkpt lat="45.76793" lon="6.54583">
        <ele>1890.435</ele>
        <time>2022-08-20T14:45:46Z</time>
      </trkpt>
      <trkpt lat="45.76812" lon="6.54601">
        <ele>1893.546</ele>
        <time>2022-08-20T14:45:55Z</time>
      </trkpt>
      <trkpt lat="45.76834" lon="6.54625">
        <ele>1894.27</ele>
        <time>2022-08-20T14:46:05Z</time>
      </trkpt>
      <trkpt lat="45.76856" lon="6.54645">
        <ele>1894.359</ele>
        <time>2022-08-20T14:46:14Z</time>
      </trkpt>
      <trkpt lat="45.76876" lon="6.54664">
        <ele>1894.583</ele>
        <time>2022-08-20T14:46:23Z</time>
      </trkpt>
      <trkpt lat="45.76897" lon="6.54688">
        <ele>1895.573</ele>
        <time>2022-08-20T14:46:33Z</time>
      </trkpt>
      <trkpt lat="45.76909" lon="6.54695">
        <ele>1894.278</ele>
        <time>2022-08-20T14:46:43Z</time>
      </trkpt>
      <trkpt lat="45.76907" lon="6.54703">
        <ele>1899.752</ele>
        <time>2022-08-20T14:46:53Z</time>
      </trkpt>
      <trkpt lat="45.76928" lon="6.54716">
        <ele>1893.831</ele>
        <time>2022-08-20T14:47:02Z</time>
      </trkpt>
      <trkpt lat="45.76933" lon="6.54715">
        <ele>1895.271</ele>
        <time>2022-08-20T14:47:12Z</time>
      </trkpt>
      <trkpt lat="45.76934" lon="6.54714">
        <ele>1895.242</ele>
        <time>2022-08-20T14:47:21Z</time>
      </trkpt>
      <trkpt lat="45.76934" lon="6.54714">
        <ele>1895.203</ele>
        <time>2022-08-20T14:47:30Z</time>
      </trkpt>
      <trkpt lat="45.76934" lon="6.54714">
        <ele>1895.197</ele>
        <time>2022-08-20T14:47:39Z</time>
      </trkpt>
      <trkpt lat="45.76934" lon="6.54714">
        <ele>1895.186</ele>
        <time>2022-08-20T14:47:49Z</time>
      </trkpt>
      <trkpt lat="45.76934" lon="6.54714">
        <ele>1895.165</ele>
        <time>2022-08-20T14:47:58Z</time>
      </trkpt>
      <trkpt lat="45.76934" lon="6.54713">
        <ele>1895.153</ele>
        <time>2022-08-20T14:48:07Z</time>
      </trkpt>
      <trkpt lat="45.76934" lon="6.54713">
        <ele>1895.153</ele>
        <time>2022-08-20T14:48:17Z</time>
      </trkpt>
      <trkpt lat="45.76934" lon="6.54713">
        <ele>1895.147</ele>
        <time>2022-08-20T14:48:27Z</time>
      </trkpt>
      <trkpt lat="45.76934" lon="6.54713">
        <ele>1895.144</ele>
        <time>2022-08-20T14:48:36Z</time>
      </trkpt>
      <trkpt lat="45.76934" lon="6.54713">
        <ele>1895.127</ele>
        <time>2022-08-20T14:48:45Z</time>
      </trkpt>
      <trkpt lat="45.76934" lon="6.54713">
        <ele>1895.119</ele>
        <time>2022-08-20T14:48:54Z</time>
      </trkpt>
      <trkpt lat="45.76934" lon="6.54713">
        <ele>1895.124</ele>
        <time>2022-08-20T14:49:04Z</time>
      </trkpt>
      <trkpt lat="45.76934" lon="6.54713">
        <ele>1895.111</ele>
        <time>2022-08-20T14:49:14Z</time>
      </trkpt>
      <trkpt lat="45.76934" lon="6.54713">
        <ele>1895.111</ele>
        <time>2022-08-20T14:49:23Z</time>
      </trkpt>
      <trkpt lat="45.76934" lon="6.54713">
        <ele>1895.116</ele>
        <time>2022-08-20T14:49:32Z</time>
      </trkpt>
      <trkpt lat="45.76934" lon="6.54713">
        <ele>1895.127</ele>
        <time>2022-08-20T14:49:42Z</time>
      </trkpt>
      <trkpt lat="45.76933" lon="6.54705">
        <ele>1893.367</ele>
        <time>2022-08-20T14:49:51Z</time>
      </trkpt>
      <trkpt lat="45.76925" lon="6.54684">
        <ele>1891.044</ele>
        <time>2022-08-20T14:50:00Z</time>
      </trkpt>
      <trkpt lat="45.76878" lon="6.54662">
        <ele>1885.561</ele>
        <time>2022-08-20T14:50:10Z</time>
      </trkpt>
      <trkpt lat="45.76806" lon="6.54582">
        <ele>1877.691</ele>
        <time>2022-08-20T14:50:20Z</time>
      </trkpt>
      <trkpt lat="45.76766" lon="6.54494">
        <ele>1870.669</ele>
        <time>2022-08-20T14:50:30Z</time>
      </trkpt>
      <trkpt lat="45.76767" lon="6.54444">
        <ele>1862.138</ele>
        <time>2022-08-20T14:50:39Z</time>
      </trkpt>
      <trkpt lat="45.76767" lon="6.54423">
        <ele>1860.533</ele>
        <time>2022-08-20T14:50:49Z</time>
      </trkpt>
      <trkpt lat="45.76767" lon="6.54424">
        <ele>1860.954</ele>
        <time>2022-08-20T14:50:58Z</time>
      </trkpt>
      <trkpt lat="45.76767" lon="6.54424">
        <ele>1860.935</ele>
        <time>2022-08-20T14:51:07Z</time>
      </trkpt>
      <trkpt lat="45.76767" lon="6.54424">
        <ele>1860.946</ele>
        <time>2022-08-20T14:51:16Z</time>
      </trkpt>
      <trkpt lat="45.76765" lon="6.54423">
        <ele>1860.458</ele>
        <time>2022-08-20T14:51:26Z</time>
      </trkpt>
      <trkpt lat="45.76765" lon="6.54422">
        <ele>1860.042</ele>
        <time>2022-08-20T14:51:36Z</time>
      </trkpt>
      <trkpt lat="45.76765" lon="6.54422">
        <ele>1860.027</ele>
        <time>2022-08-20T14:51:45Z</time>
      </trkpt>
      <trkpt lat="45.76765" lon="6.54423">
        <ele>1860.706</ele>
        <time>2022-08-20T14:51:54Z</time>
      </trkpt>
      <trkpt lat="45.76765" lon="6.54421">
        <ele>1861.11</ele>
        <time>2022-08-20T14:52:03Z</time>
      </trkpt>
      <trkpt lat="45.76745" lon="6.54409">
        <ele>1858.715</ele>
        <time>2022-08-20T14:52:13Z</time>
      </trkpt>
      <trkpt lat="45.76753" lon="6.54373">
        <ele>1853.517</ele>
        <time>2022-08-20T14:52:23Z</time>
      </trkpt>
      <trkpt lat="45.76748" lon="6.54377">
        <ele>1851.183</ele>
        <time>2022-08-20T14:52:32Z</time>
      </trkpt>
      <trkpt lat="45.76744" lon="6.54386">
        <ele>1852.595</ele>
        <time>2022-08-20T14:52:41Z</time>
      </trkpt>
      <trkpt lat="45.76743" lon="6.54394">
        <ele>1851.903</ele>
        <time>2022-08-20T14:52:51Z</time>
      </trkpt>
      <trkpt lat="45.76744" lon="6.54394">
        <ele>1851.884</ele>
        <time>2022-08-20T14:53:00Z</time>
      </trkpt>
      <trkpt lat="45.76744" lon="6.54394">
        <ele>1851.927</ele>
        <time>2022-08-20T14:53:10Z</time>
      </trkpt>
      <trkpt lat="45.76744" lon="6.54394">
        <ele>1851.996</ele>
        <time>2022-08-20T14:53:19Z</time>
      </trkpt>
      <trkpt lat="45.76744" lon="6.54394">
        <ele>1852.072</ele>
        <time>2022-08-20T14:53:29Z</time>
      </trkpt>
      <trkpt lat="45.76742" lon="6.54395">
        <ele>1851.91</ele>
        <time>2022-08-20T14:53:38Z</time>
      </trkpt>
      <trkpt lat="45.76744" lon="6.54397">
        <ele>1852.241</ele>
        <time>2022-08-20T14:53:47Z</time>
      </trkpt>
      <trkpt lat="45.76757" lon="6.54364">
        <ele>1852.748</ele>
        <time>2022-08-20T14:53:57Z</time>
      </trkpt>
      <trkpt lat="45.76752" lon="6.54335">
        <ele>1849.35</ele>
        <time>2022-08-20T14:54:06Z</time>
      </trkpt>
      <trkpt lat="45.76752" lon="6.54336">
        <ele>1847.391</ele>
        <time>2022-08-20T14:54:16Z</time>
      </trkpt>
      <trkpt lat="45.76754" lon="6.5434">
        <ele>1845.891</ele>
        <time>2022-08-20T14:54:25Z</time>
      </trkpt>
      <trkpt lat="45.76758" lon="6.54345">
        <ele>1846.164</ele>
        <time>2022-08-20T14:54:35Z</time>
      </trkpt>
      <trkpt lat="45.76757" lon="6.54348">
        <ele>1846.395</ele>
        <time>2022-08-20T14:54:45Z</time>
      </trkpt>
      <trkpt lat="45.76758" lon="6.5436">
        <ele>1848.151</ele>
        <time>2022-08-20T14:54:55Z</time>
      </trkpt>
      <trkpt lat="45.76753" lon="6.54354">
        <ele>1848.36</ele>
        <time>2022-08-20T14:55:04Z</time>
      </trkpt>
      <trkpt lat="45.76748" lon="6.54325">
        <ele>1845.88</ele>
        <time>2022-08-20T14:55:14Z</time>
      </trkpt>
      <trkpt lat="45.7675" lon="6.54319">
        <ele>1844.091</ele>
        <time>2022-08-20T14:55:23Z</time>
      </trkpt>
      <trkpt lat="45.76747" lon="6.54294">
        <ele>1838.362</ele>
        <time>2022-08-20T14:55:33Z</time>
      </trkpt>
      <trkpt lat="45.76735" lon="6.54268">
        <ele>1830.594</ele>
        <time>2022-08-20T14:55:43Z</time>
      </trkpt>
      <trkpt lat="45.76708" lon="6.54265">
        <ele>1818.397</ele>
        <time>2022-08-20T14:55:53Z</time>
      </trkpt>
      <trkpt lat="45.7671" lon="6.54257">
        <ele>1819.599</ele>
        <time>2022-08-20T14:56:03Z</time>
      </trkpt>
      <trkpt lat="45.7671" lon="6.54257">
        <ele>1820.149</ele>
        <time>2022-08-20T14:56:12Z</time>
      </trkpt>
      <trkpt lat="45.7671" lon="6.54257">
        <ele>1820.366</ele>
        <time>2022-08-20T14:56:21Z</time>
      </trkpt>
      <trkpt lat="45.7671" lon="6.54257">
        <ele>1820.534</ele>
        <time>2022-08-20T14:56:31Z</time>
      </trkpt>
      <trkpt lat="45.7671" lon="6.54257">
        <ele>1820.787</ele>
        <time>2022-08-20T14:56:40Z</time>
      </trkpt>
      <trkpt lat="45.7671" lon="6.54257">
        <ele>1821.035</ele>
        <time>2022-08-20T14:56:50Z</time>
      </trkpt>
      <trkpt lat="45.7671" lon="6.54256">
        <ele>1821.23</ele>
        <time>2022-08-20T14:57:00Z</time>
      </trkpt>
      <trkpt lat="45.76682" lon="6.54243">
        <ele>1832.117</ele>
        <time>2022-08-20T14:57:09Z</time>
      </trkpt>
      <trkpt lat="45.76662" lon="6.5422">
        <ele>1818.777</ele>
        <time>2022-08-20T14:57:18Z</time>
      </trkpt>
      <trkpt lat="45.76639" lon="6.5421">
        <ele>1812.139</ele>
        <time>2022-08-20T14:57:27Z</time>
      </trkpt>
      <trkpt lat="45.76612" lon="6.54194">
        <ele>1809.078</ele>
        <time>2022-08-20T14:57:37Z</time>
      </trkpt>
      <trkpt lat="45.76591" lon="6.54166">
        <ele>1800.388</ele>
        <time>2022-08-20T14:57:46Z</time>
      </trkpt>
      <trkpt lat="45.76563" lon="6.54124">
        <ele>1790.358</ele>
        <time>2022-08-20T14:57:55Z</time>
      </trkpt>
      <trkpt lat="45.76526" lon="6.54039">
        <ele>1780.969</ele>
        <time>2022-08-20T14:58:05Z</time>
      </trkpt>
      <trkpt lat="45.76499" lon="6.53954">
        <ele>1770.977</ele>
        <time>2022-08-20T14:58:15Z</time>
      </trkpt>
      <trkpt lat="45.7647" lon="6.53893">
        <ele>1766.681</ele>
        <time>2022-08-20T14:58:24Z</time>
      </trkpt>
      <trkpt lat="45.7641" lon="6.5389">
        <ele>1757.553</ele>
        <time>2022-08-20T14:58:33Z</time>
      </trkpt>
      <trkpt lat="45.76373" lon="6.53888">
        <ele>1754.639</ele>
        <time>2022-08-20T14:58:43Z</time>
      </trkpt>
      <trkpt lat="45.76376" lon="6.53875">
        <ele>1751.948</ele>
        <time>2022-08-20T14:58:52Z</time>
      </trkpt>
      <trkpt lat="45.76337" lon="6.53899">
        <ele>1741.349</ele>
        <time>2022-08-20T14:59:01Z</time>
      </trkpt>
      <trkpt lat="45.76288" lon="6.53893">
        <ele>1729.64</ele>
        <time>2022-08-20T14:59:11Z</time>
      </trkpt>
      <trkpt lat="45.76269" lon="6.53872">
        <ele>1721.646</ele>
        <time>2022-08-20T14:59:21Z</time>
      </trkpt>
      <trkpt lat="45.76289" lon="6.53828">
        <ele>1718.968</ele>
        <time>2022-08-20T14:59:30Z</time>
      </trkpt>
      <trkpt lat="45.76289" lon="6.53797">
        <ele>1712.36</ele>
        <time>2022-08-20T14:59:39Z</time>
      </trkpt>
      <trkpt lat="45.76278" lon="6.53795">
        <ele>1705.75</ele>
        <time>2022-08-20T14:59:48Z</time>
      </trkpt>
      <trkpt lat="45.76278" lon="6.53768">
        <ele>1697.438</ele>
        <time>2022-08-20T14:59:58Z</time>
      </trkpt>
      <trkpt lat="45.76267" lon="6.53753">
        <ele>1687.156</ele>
        <time>2022-08-20T15:00:07Z</time>
      </trkpt>
      <trkpt lat="45.76276" lon="6.53706">
        <ele>1680.374</ele>
        <time>2022-08-20T15:00:16Z</time>
      </trkpt>
      <trkpt lat="45.76275" lon="6.53659">
        <ele>1678.457</ele>
        <time>2022-08-20T15:00:26Z</time>
      </trkpt>
      <trkpt lat="45.76279" lon="6.53653">
        <ele>1681.36</ele>
        <time>2022-08-20T15:00:36Z</time>
      </trkpt>
      <trkpt lat="45.76278" lon="6.53652">
        <ele>1680.725</ele>
        <time>2022-08-20T15:00:46Z</time>
      </trkpt>
      <trkpt lat="45.76278" lon="6.53652">
        <ele>1680.725</ele>
        <time>2022-08-20T15:00:55Z</time>
      </trkpt>
      <trkpt lat="45.76278" lon="6.53652">
        <ele>1680.728</ele>
        <time>2022-08-20T15:01:04Z</time>
      </trkpt>
      <trkpt lat="45.7628" lon="6.53635">
        <ele>1682.293</ele>
        <time>2022-08-20T15:01:14Z</time>
      </trkpt>
      <trkpt lat="45.76281" lon="6.53603">
        <ele>1682.852</ele>
        <time>2022-08-20T15:01:24Z</time>
      </trkpt>
      <trkpt lat="45.76273" lon="6.53568">
        <ele>1682.228</ele>
        <time>2022-08-20T15:01:34Z</time>
      </trkpt>
      <trkpt lat="45.7626" lon="6.53537">
        <ele>1681.537</ele>
        <time>2022-08-20T15:01:43Z</time>
      </trkpt>
      <trkpt lat="45.76241" lon="6.53508">
        <ele>1680.939</ele>
        <time>2022-08-20T15:01:53Z</time>
      </trkpt>
      <trkpt lat="45.76212" lon="6.53503">
        <ele>1679.884</ele>
        <time>2022-08-20T15:02:02Z</time>
      </trkpt>
      <trkpt lat="45.76172" lon="6.53508">
        <ele>1677.185</ele>
        <time>2022-08-20T15:02:12Z</time>
      </trkpt>
      <trkpt lat="45.7611" lon="6.53518">
        <ele>1676.191</ele>
        <time>2022-08-20T15:02:21Z</time>
      </trkpt>
      <trkpt lat="45.76076" lon="6.53574">
        <ele>1677.695</ele>
        <time>2022-08-20T15:02:31Z</time>
      </trkpt>
      <trkpt lat="45.76055" lon="6.53634">
        <ele>1682.707</ele>
        <time>2022-08-20T15:02:41Z</time>
      </trkpt>
      <trkpt lat="45.7605" lon="6.53693">
        <ele>1686.53</ele>
        <time>2022-08-20T15:02:50Z</time>
      </trkpt>
      <trkpt lat="45.76059" lon="6.53743">
        <ele>1690.168</ele>
        <time>2022-08-20T15:03:00Z</time>
      </trkpt>
      <trkpt lat="45.76062" lon="6.53777">
        <ele>1691.93</ele>
        <time>2022-08-20T15:03:09Z</time>
      </trkpt>
      <trkpt lat="45.76055" lon="6.53806">
        <ele>1693.284</ele>
        <time>2022-08-20T15:03:18Z</time>
      </trkpt>
      <trkpt lat="45.76048" lon="6.53813">
        <ele>1694.667</ele>
        <time>2022-08-20T15:03:28Z</time>
      </trkpt>
      <trkpt lat="45.76048" lon="6.53813">
        <ele>1694.69</ele>
        <time>2022-08-20T15:03:37Z</time>
      </trkpt>
      <trkpt lat="45.76048" lon="6.53813">
        <ele>1694.727</ele>
        <time>2022-08-20T15:03:47Z</time>
      </trkpt>
      <trkpt lat="45.76056" lon="6.53797">
        <ele>1694.549</ele>
        <time>2022-08-20T15:03:57Z</time>
      </trkpt>
      <trkpt lat="45.76044" lon="6.53707">
        <ele>1688.254</ele>
        <time>2022-08-20T15:04:07Z</time>
      </trkpt>
      <trkpt lat="45.76056" lon="6.53609">
        <ele>1682.817</ele>
        <time>2022-08-20T15:04:17Z</time>
      </trkpt>
      <trkpt lat="45.76023" lon="6.53568">
        <ele>1671.858</ele>
        <time>2022-08-20T15:04:26Z</time>
      </trkpt>
      <trkpt lat="45.75975" lon="6.53569">
        <ele>1664.098</ele>
        <time>2022-08-20T15:04:36Z</time>
      </trkpt>
      <trkpt lat="45.75954" lon="6.53542">
        <ele>1662.316</ele>
        <time>2022-08-20T15:04:46Z</time>
      </trkpt>
      <trkpt lat="45.75936" lon="6.53505">
        <ele>1662.615</ele>
        <time>2022-08-20T15:04:55Z</time>
      </trkpt>
      <trkpt lat="45.75933" lon="6.53494">
        <ele>1663.933</ele>
        <time>2022-08-20T15:05:05Z</time>
      </trkpt>
      <trkpt lat="45.75925" lon="6.53513">
        <ele>1661.246</ele>
        <time>2022-08-20T15:05:15Z</time>
      </trkpt>
      <trkpt lat="45.75914" lon="6.5354">
        <ele>1660.435</ele>
        <time>2022-08-20T15:05:25Z</time>
      </trkpt>
      <trkpt lat="45.75914" lon="6.53539">
        <ele>1660.171</ele>
        <time>2022-08-20T15:05:34Z</time>
      </trkpt>
      <trkpt lat="45.75914" lon="6.53554">
        <ele>1660.368</ele>
        <time>2022-08-20T15:05:43Z</time>
      </trkpt>
      <trkpt lat="45.75896" lon="6.53561">
        <ele>1655.855</ele>
        <time>2022-08-20T15:05:53Z</time>
      </trkpt>
      <trkpt lat="45.75907" lon="6.53518">
        <ele>1657.327</ele>
        <time>2022-08-20T15:06:03Z</time>
      </trkpt>
      <trkpt lat="45.75922" lon="6.53481">
        <ele>1659.525</ele>
        <time>2022-08-20T15:06:12Z</time>
      </trkpt>
      <trkpt lat="45.7594" lon="6.53448">
        <ele>1659.386</ele>
        <time>2022-08-20T15:06:21Z</time>
      </trkpt>
      <trkpt lat="45.7595" lon="6.53415">
        <ele>1660.756</ele>
        <time>2022-08-20T15:06:31Z</time>
      </trkpt>
      <trkpt lat="45.75966" lon="6.5338">
        <ele>1660.465</ele>
        <time>2022-08-20T15:06:40Z</time>
      </trkpt>
      <trkpt lat="45.75993" lon="6.53353">
        <ele>1660.963</ele>
        <time>2022-08-20T15:06:49Z</time>
      </trkpt>
      <trkpt lat="45.76025" lon="6.53337">
        <ele>1659.68</ele>
        <time>2022-08-20T15:06:59Z</time>
      </trkpt>
      <trkpt lat="45.76051" lon="6.53326">
        <ele>1661.287</ele>
        <time>2022-08-20T15:07:09Z</time>
      </trkpt>
      <trkpt lat="45.76061" lon="6.53317">
        <ele>1660.904</ele>
        <time>2022-08-20T15:07:18Z</time>
      </trkpt>
      <trkpt lat="45.76061" lon="6.53316">
        <ele>1660.87</ele>
        <time>2022-08-20T15:07:27Z</time>
      </trkpt>
      <trkpt lat="45.76061" lon="6.53316">
        <ele>1660.867</ele>
        <time>2022-08-20T15:07:37Z</time>
      </trkpt>
      <trkpt lat="45.76061" lon="6.53317">
        <ele>1660.918</ele>
        <time>2022-08-20T15:07:47Z</time>
      </trkpt>
      <trkpt lat="45.76061" lon="6.53316">
        <ele>1660.696</ele>
        <time>2022-08-20T15:07:56Z</time>
      </trkpt>
      <trkpt lat="45.76061" lon="6.53316">
        <ele>1659.745</ele>
        <time>2022-08-20T15:08:05Z</time>
      </trkpt>
      <trkpt lat="45.76061" lon="6.53317">
        <ele>1658.697</ele>
        <time>2022-08-20T15:08:15Z</time>
      </trkpt>
      <trkpt lat="45.76061" lon="6.53317">
        <ele>1658.696</ele>
        <time>2022-08-20T15:08:24Z</time>
      </trkpt>
      <trkpt lat="45.76061" lon="6.53317">
        <ele>1658.699</ele>
        <time>2022-08-20T15:08:33Z</time>
      </trkpt>
      <trkpt lat="45.76061" lon="6.53318">
        <ele>1659.188</ele>
        <time>2022-08-20T15:08:42Z</time>
      </trkpt>
      <trkpt lat="45.76061" lon="6.53318">
        <ele>1659.832</ele>
        <time>2022-08-20T15:08:52Z</time>
      </trkpt>
      <trkpt lat="45.76061" lon="6.53315">
        <ele>1659.153</ele>
        <time>2022-08-20T15:09:01Z</time>
      </trkpt>
      <trkpt lat="45.76061" lon="6.53317">
        <ele>1659.111</ele>
        <time>2022-08-20T15:09:11Z</time>
      </trkpt>
      <trkpt lat="45.76061" lon="6.53317">
        <ele>1659.455</ele>
        <time>2022-08-20T15:09:21Z</time>
      </trkpt>
      <trkpt lat="45.7606" lon="6.53317">
        <ele>1659.56</ele>
        <time>2022-08-20T15:09:31Z</time>
      </trkpt>
      <trkpt lat="45.7606" lon="6.53318">
        <ele>1660.509</ele>
        <time>2022-08-20T15:09:40Z</time>
      </trkpt>
      <trkpt lat="45.7606" lon="6.53318">
        <ele>1660.887</ele>
        <time>2022-08-20T15:09:50Z</time>
      </trkpt>
      <trkpt lat="45.7606" lon="6.53319">
        <ele>1661.023</ele>
        <time>2022-08-20T15:09:59Z</time>
      </trkpt>
      <trkpt lat="45.7606" lon="6.53319">
        <ele>1661.02</ele>
        <time>2022-08-20T15:10:09Z</time>
      </trkpt>
      <trkpt lat="45.76061" lon="6.53315">
        <ele>1659.505</ele>
        <time>2022-08-20T15:10:19Z</time>
      </trkpt>
      <trkpt lat="45.76064" lon="6.53314">
        <ele>1659.246</ele>
        <time>2022-08-20T15:10:28Z</time>
      </trkpt>
      <trkpt lat="45.76063" lon="6.53315">
        <ele>1659.781</ele>
        <time>2022-08-20T15:10:37Z</time>
      </trkpt>
      <trkpt lat="45.76063" lon="6.53315">
        <ele>1659.775</ele>
        <time>2022-08-20T15:10:46Z</time>
      </trkpt>
      <trkpt lat="45.76063" lon="6.53315">
        <ele>1659.769</ele>
        <time>2022-08-20T15:10:56Z</time>
      </trkpt>
      <trkpt lat="45.76063" lon="6.53315">
        <ele>1660.18</ele>
        <time>2022-08-20T15:11:05Z</time>
      </trkpt>
      <trkpt lat="45.76062" lon="6.53315">
        <ele>1660.22</ele>
        <time>2022-08-20T15:11:15Z</time>
      </trkpt>
      <trkpt lat="45.76061" lon="6.53317">
        <ele>1661.275</ele>
        <time>2022-08-20T15:11:25Z</time>
      </trkpt>
      <trkpt lat="45.76061" lon="6.53318">
        <ele>1661.261</ele>
        <time>2022-08-20T15:11:35Z</time>
      </trkpt>
      <trkpt lat="45.76061" lon="6.53318">
        <ele>1661.502</ele>
        <time>2022-08-20T15:11:44Z</time>
      </trkpt>
      <trkpt lat="45.76061" lon="6.53318">
        <ele>1661.51</ele>
        <time>2022-08-20T15:11:54Z</time>
      </trkpt>
      <trkpt lat="45.76061" lon="6.53318">
        <ele>1661.489</ele>
        <time>2022-08-20T15:12:04Z</time>
      </trkpt>
      <trkpt lat="45.76061" lon="6.53318">
        <ele>1661.468</ele>
        <time>2022-08-20T15:12:13Z</time>
      </trkpt>
      <trkpt lat="45.76061" lon="6.53318">
        <ele>1661.012</ele>
        <time>2022-08-20T15:12:22Z</time>
      </trkpt>
      <trkpt lat="45.76061" lon="6.53318">
        <ele>1660.981</ele>
        <time>2022-08-20T15:12:32Z</time>
      </trkpt>
      <trkpt lat="45.76061" lon="6.53318">
        <ele>1660.952</ele>
        <time>2022-08-20T15:12:41Z</time>
      </trkpt>
      <trkpt lat="45.76061" lon="6.53317">
        <ele>1660.927</ele>
        <time>2022-08-20T15:12:51Z</time>
      </trkpt>
      <trkpt lat="45.76061" lon="6.53317">
        <ele>1660.919</ele>
        <time>2022-08-20T15:13:00Z</time>
      </trkpt>
      <trkpt lat="45.76061" lon="6.53317">
        <ele>1660.914</ele>
        <time>2022-08-20T15:13:09Z</time>
      </trkpt>
      <trkpt lat="45.76061" lon="6.53317">
        <ele>1660.888</ele>
        <time>2022-08-20T15:13:19Z</time>
      </trkpt>
      <trkpt lat="45.76061" lon="6.53317">
        <ele>1660.85</ele>
        <time>2022-08-20T15:13:29Z</time>
      </trkpt>
      <trkpt lat="45.76061" lon="6.53317">
        <ele>1660.805</ele>
        <time>2022-08-20T15:13:38Z</time>
      </trkpt>
      <trkpt lat="45.76061" lon="6.53317">
        <ele>1660.74</ele>
        <time>2022-08-20T15:13:48Z</time>
      </trkpt>
      <trkpt lat="45.76063" lon="6.53317">
        <ele>1659.988</ele>
        <time>2022-08-20T15:13:57Z</time>
      </trkpt>
      <trkpt lat="45.76063" lon="6.53317">
        <ele>1659.411</ele>
        <time>2022-08-20T15:14:06Z</time>
      </trkpt>
      <trkpt lat="45.7606" lon="6.53315">
        <ele>1659.511</ele>
        <time>2022-08-20T15:14:16Z</time>
      </trkpt>
      <trkpt lat="45.7606" lon="6.53316">
        <ele>1659.614</ele>
        <time>2022-08-20T15:14:25Z</time>
      </trkpt>
      <trkpt lat="45.7606" lon="6.53316">
        <ele>1659.503</ele>
        <time>2022-08-20T15:14:35Z</time>
      </trkpt>
      <trkpt lat="45.76059" lon="6.53316">
        <ele>1660.381</ele>
        <time>2022-08-20T15:14:44Z</time>
      </trkpt>
      <trkpt lat="45.76059" lon="6.53316">
        <ele>1660.371</ele>
        <time>2022-08-20T15:14:54Z</time>
      </trkpt>
      <trkpt lat="45.76059" lon="6.53316">
        <ele>1661.036</ele>
        <time>2022-08-20T15:15:04Z</time>
      </trkpt>
      <trkpt lat="45.7606" lon="6.53318">
        <ele>1661.781</ele>
        <time>2022-08-20T15:15:13Z</time>
      </trkpt>
      <trkpt lat="45.7606" lon="6.53317">
        <ele>1661.608</ele>
        <time>2022-08-20T15:15:22Z</time>
      </trkpt>
      <trkpt lat="45.76057" lon="6.53319">
        <ele>1661.761</ele>
        <time>2022-08-20T15:15:32Z</time>
      </trkpt>
      <trkpt lat="45.7606" lon="6.53315">
        <ele>1659.844</ele>
        <time>2022-08-20T15:15:42Z</time>
      </trkpt>
      <trkpt lat="45.76061" lon="6.53316">
        <ele>1659.845</ele>
        <time>2022-08-20T15:15:51Z</time>
      </trkpt>
      <trkpt lat="45.76061" lon="6.53316">
        <ele>1660.068</ele>
        <time>2022-08-20T15:16:01Z</time>
      </trkpt>
      <trkpt lat="45.7606" lon="6.53319">
        <ele>1660.904</ele>
        <time>2022-08-20T15:16:11Z</time>
      </trkpt>
      <trkpt lat="45.7606" lon="6.53319">
        <ele>1661.118</ele>
        <time>2022-08-20T15:16:21Z</time>
      </trkpt>
      <trkpt lat="45.76062" lon="6.53321">
        <ele>1661.456</ele>
        <time>2022-08-20T15:16:30Z</time>
      </trkpt>
      <trkpt lat="45.76063" lon="6.53318">
        <ele>1660.085</ele>
        <time>2022-08-20T15:16:39Z</time>
      </trkpt>
      <trkpt lat="45.76063" lon="6.53318">
        <ele>1660.097</ele>
        <time>2022-08-20T15:16:49Z</time>
      </trkpt>
      <trkpt lat="45.76063" lon="6.53318">
        <ele>1660.035</ele>
        <time>2022-08-20T15:16:58Z</time>
      </trkpt>
      <trkpt lat="45.76062" lon="6.53318">
        <ele>1660.406</ele>
        <time>2022-08-20T15:17:08Z</time>
      </trkpt>
      <trkpt lat="45.76062" lon="6.53318">
        <ele>1660.494</ele>
        <time>2022-08-20T15:17:18Z</time>
      </trkpt>
      <trkpt lat="45.76061" lon="6.53318">
        <ele>1661.391</ele>
        <time>2022-08-20T15:17:28Z</time>
      </trkpt>
      <trkpt lat="45.76063" lon="6.53312">
        <ele>1659.396</ele>
        <time>2022-08-20T15:17:37Z</time>
      </trkpt>
      <trkpt lat="45.76063" lon="6.53314">
        <ele>1659.128</ele>
        <time>2022-08-20T15:17:47Z</time>
      </trkpt>
      <trkpt lat="45.76064" lon="6.53313">
        <ele>1657.682</ele>
        <time>2022-08-20T15:17:56Z</time>
      </trkpt>
      <trkpt lat="45.76062" lon="6.53318">
        <ele>1660.282</ele>
        <time>2022-08-20T15:18:06Z</time>
      </trkpt>
      <trkpt lat="45.76062" lon="6.53318">
        <ele>1660.167</ele>
        <time>2022-08-20T15:18:16Z</time>
      </trkpt>
      <trkpt lat="45.76061" lon="6.53317">
        <ele>1660.011</ele>
        <time>2022-08-20T15:18:25Z</time>
      </trkpt>
      <trkpt lat="45.7606" lon="6.53318">
        <ele>1659.886</ele>
        <time>2022-08-20T15:18:35Z</time>
      </trkpt>
      <trkpt lat="45.7606" lon="6.53316">
        <ele>1660.027</ele>
        <time>2022-08-20T15:18:44Z</time>
      </trkpt>
      <trkpt lat="45.76061" lon="6.53316">
        <ele>1658.826</ele>
        <time>2022-08-20T15:18:54Z</time>
      </trkpt>
      <trkpt lat="45.7606" lon="6.53313">
        <ele>1656.369</ele>
        <time>2022-08-20T15:19:03Z</time>
      </trkpt>
      <trkpt lat="45.76062" lon="6.53312">
        <ele>1656.104</ele>
        <time>2022-08-20T15:19:13Z</time>
      </trkpt>
      <trkpt lat="45.76062" lon="6.53312">
        <ele>1656.135</ele>
        <time>2022-08-20T15:19:22Z</time>
      </trkpt>
      <trkpt lat="45.76063" lon="6.53312">
        <ele>1656.784</ele>
        <time>2022-08-20T15:19:32Z</time>
      </trkpt>
      <trkpt lat="45.76063" lon="6.53312">
        <ele>1656.799</ele>
        <time>2022-08-20T15:19:41Z</time>
      </trkpt>
      <trkpt lat="45.76063" lon="6.53315">
        <ele>1657.069</ele>
        <time>2022-08-20T15:19:51Z</time>
      </trkpt>
      <trkpt lat="45.76055" lon="6.53322">
        <ele>1657.732</ele>
        <time>2022-08-20T15:20:00Z</time>
      </trkpt>
      <trkpt lat="45.76021" lon="6.53336">
        <ele>1660.352</ele>
        <time>2022-08-20T15:20:09Z</time>
      </trkpt>
      <trkpt lat="45.76014" lon="6.5334">
        <ele>1661.052</ele>
        <time>2022-08-20T15:20:19Z</time>
      </trkpt>
      <trkpt lat="45.76013" lon="6.5334">
        <ele>1661.429</ele>
        <time>2022-08-20T15:20:28Z</time>
      </trkpt>
      <trkpt lat="45.75981" lon="6.53363">
        <ele>1663.612</ele>
        <time>2022-08-20T15:20:38Z</time>
      </trkpt>
      <trkpt lat="45.75942" lon="6.53401">
        <ele>1666.125</ele>
        <time>2022-08-20T15:20:47Z</time>
      </trkpt>
      <trkpt lat="45.75932" lon="6.53421">
        <ele>1666.138</ele>
        <time>2022-08-20T15:20:57Z</time>
      </trkpt>
      <trkpt lat="45.75936" lon="6.5343">
        <ele>1662.636</ele>
        <time>2022-08-20T15:21:07Z</time>
      </trkpt>
      <trkpt lat="45.75912" lon="6.53495">
        <ele>1662.514</ele>
        <time>2022-08-20T15:21:17Z</time>
      </trkpt>
      <trkpt lat="45.75874" lon="6.53557">
        <ele>1660.217</ele>
        <time>2022-08-20T15:21:27Z</time>
      </trkpt>
      <trkpt lat="45.75836" lon="6.53613">
        <ele>1657.748</ele>
        <time>2022-08-20T15:21:37Z</time>
      </trkpt>
      <trkpt lat="45.7582" lon="6.53648">
        <ele>1656.391</ele>
        <time>2022-08-20T15:21:47Z</time>
      </trkpt>
      <trkpt lat="45.75807" lon="6.53682">
        <ele>1654.202</ele>
        <time>2022-08-20T15:21:56Z</time>
      </trkpt>
      <trkpt lat="45.75794" lon="6.5373">
        <ele>1653.18</ele>
        <time>2022-08-20T15:22:06Z</time>
      </trkpt>
      <trkpt lat="45.75779" lon="6.53778">
        <ele>1650.365</ele>
        <time>2022-08-20T15:22:16Z</time>
      </trkpt>
      <trkpt lat="45.75754" lon="6.53842">
        <ele>1647.314</ele>
        <time>2022-08-20T15:22:25Z</time>
      </trkpt>
      <trkpt lat="45.75732" lon="6.53916">
        <ele>1643.766</ele>
        <time>2022-08-20T15:22:34Z</time>
      </trkpt>
      <trkpt lat="45.75728" lon="6.5393">
        <ele>1639.746</ele>
        <time>2022-08-20T15:22:44Z</time>
      </trkpt>
      <trkpt lat="45.75752" lon="6.53851">
        <ele>1643.063</ele>
        <time>2022-08-20T15:22:53Z</time>
      </trkpt>
      <trkpt lat="45.75781" lon="6.53774">
        <ele>1646.356</ele>
        <time>2022-08-20T15:23:02Z</time>
      </trkpt>
      <trkpt lat="45.75801" lon="6.53713">
        <ele>1648.751</ele>
        <time>2022-08-20T15:23:12Z</time>
      </trkpt>
      <trkpt lat="45.75805" lon="6.53711">
        <ele>1648.761</ele>
        <time>2022-08-20T15:23:21Z</time>
      </trkpt>
      <trkpt lat="45.75806" lon="6.53711">
        <ele>1648.196</ele>
        <time>2022-08-20T15:23:31Z</time>
      </trkpt>
      <trkpt lat="45.75803" lon="6.53712">
        <ele>1648.853</ele>
        <time>2022-08-20T15:23:41Z</time>
      </trkpt>
      <trkpt lat="45.75797" lon="6.53713">
        <ele>1650.448</ele>
        <time>2022-08-20T15:23:50Z</time>
      </trkpt>
      <trkpt lat="45.75787" lon="6.53723">
        <ele>1649.228</ele>
        <time>2022-08-20T15:24:00Z</time>
      </trkpt>
      <trkpt lat="45.75776" lon="6.53733">
        <ele>1649.156</ele>
        <time>2022-08-20T15:24:09Z</time>
      </trkpt>
      <trkpt lat="45.75774" lon="6.53733">
        <ele>1648.853</ele>
        <time>2022-08-20T15:24:19Z</time>
      </trkpt>
      <trkpt lat="45.75773" lon="6.53734">
        <ele>1650.189</ele>
        <time>2022-08-20T15:24:29Z</time>
      </trkpt>
      <trkpt lat="45.7577" lon="6.53724">
        <ele>1649.322</ele>
        <time>2022-08-20T15:24:39Z</time>
      </trkpt>
      <trkpt lat="45.7577" lon="6.53725">
        <ele>1649.79</ele>
        <time>2022-08-20T15:24:49Z</time>
      </trkpt>
      <trkpt lat="45.75771" lon="6.53726">
        <ele>1650.123</ele>
        <time>2022-08-20T15:24:58Z</time>
      </trkpt>
      <trkpt lat="45.75771" lon="6.53726">
        <ele>1650.481</ele>
        <time>2022-08-20T15:25:08Z</time>
      </trkpt>
      <trkpt lat="45.75771" lon="6.53726">
        <ele>1650.773</ele>
        <time>2022-08-20T15:25:18Z</time>
      </trkpt>
      <trkpt lat="45.75771" lon="6.53727">
        <ele>1650.903</ele>
        <time>2022-08-20T15:25:27Z</time>
      </trkpt>
      <trkpt lat="45.75772" lon="6.53727">
        <ele>1650.712</ele>
        <time>2022-08-20T15:25:37Z</time>
      </trkpt>
      <trkpt lat="45.75772" lon="6.53727">
        <ele>1650.72</ele>
        <time>2022-08-20T15:25:46Z</time>
      </trkpt>
      <trkpt lat="45.75772" lon="6.53727">
        <ele>1650.712</ele>
        <time>2022-08-20T15:25:55Z</time>
      </trkpt>
      <trkpt lat="45.75772" lon="6.53727">
        <ele>1650.634</ele>
        <time>2022-08-20T15:26:04Z</time>
      </trkpt>
      <trkpt lat="45.75772" lon="6.53727">
        <ele>1650.543</ele>
        <time>2022-08-20T15:26:14Z</time>
      </trkpt>
      <trkpt lat="45.75772" lon="6.53727">
        <ele>1650.464</ele>
        <time>2022-08-20T15:26:23Z</time>
      </trkpt>
      <trkpt lat="45.75772" lon="6.53727">
        <ele>1650.408</ele>
        <time>2022-08-20T15:26:32Z</time>
      </trkpt>
      <trkpt lat="45.75772" lon="6.53728">
        <ele>1650.349</ele>
        <time>2022-08-20T15:26:42Z</time>
      </trkpt>
      <trkpt lat="45.75772" lon="6.53728">
        <ele>1650.351</ele>
        <time>2022-08-20T15:26:52Z</time>
      </trkpt>
      <trkpt lat="45.75772" lon="6.53728">
        <ele>1650.311</ele>
        <time>2022-08-20T15:27:01Z</time>
      </trkpt>
      <trkpt lat="45.75772" lon="6.53728">
        <ele>1650.228</ele>
        <time>2022-08-20T15:27:10Z</time>
      </trkpt>
    </trkseg>
  </trk>
</gpx>